<?xml version="1.0" encoding="UTF-8" standalone="no" ?>
<gpx xmlns="http://www.topografix.com/GPX/1/1" xmlns:xsi="http://www.w3.org/2001/XMLSchema-instance" xsi:schemaLocation="http://www.topografix.com/GPX/1/1 http://www.topografix.com/GPX/1/1/gpx.xsd" version="1.1" creator="VisuGPX - https://www.visugpx.com">
  <metadata>
    <name>130608ROBGuinguetteCarcesLac</name>
    <desc><![CDATA[Excellente rando de remise en forme cardio. Tour du lac par la route et par la piste]]></desc>
  </metadata>
  <trk>
    <name><![CDATA[130608ROBGuinguetteCarcesLac]]></name>
    <trkseg>
      <trkpt lat="43.40403" lon="6.06534">
        <ele>221.80000305176</ele>
        <time>2013-06-08T12:02:19Z</time>
      </trkpt>
      <trkpt lat="43.40403" lon="6.06534">
        <ele>221.80000305176</ele>
        <time>2013-06-08T12:02:20Z</time>
      </trkpt>
      <trkpt lat="43.40403" lon="6.06532">
        <ele>221.80000305176</ele>
        <time>2013-06-08T12:02:23Z</time>
      </trkpt>
      <trkpt lat="43.40403" lon="6.06531">
        <ele>221.80000305176</ele>
        <time>2013-06-08T12:02:24Z</time>
      </trkpt>
      <trkpt lat="43.40403" lon="6.0653">
        <ele>222.39999389648</ele>
        <time>2013-06-08T12:02:25Z</time>
      </trkpt>
      <trkpt lat="43.40405" lon="6.0652">
        <ele>222.39999389648</ele>
        <time>2013-06-08T12:02:30Z</time>
      </trkpt>
      <trkpt lat="43.40406" lon="6.06511">
        <ele>222.39999389648</ele>
        <time>2013-06-08T12:02:33Z</time>
      </trkpt>
      <trkpt lat="43.40409" lon="6.0649">
        <ele>222.39999389648</ele>
        <time>2013-06-08T12:02:40Z</time>
      </trkpt>
      <trkpt lat="43.40417" lon="6.06481">
        <ele>222.39999389648</ele>
        <time>2013-06-08T12:02:44Z</time>
      </trkpt>
      <trkpt lat="43.40431" lon="6.06483">
        <ele>222.39999389648</ele>
        <time>2013-06-08T12:02:48Z</time>
      </trkpt>
      <trkpt lat="43.40452" lon="6.06489">
        <ele>222.39999389648</ele>
        <time>2013-06-08T12:02:53Z</time>
      </trkpt>
      <trkpt lat="43.40471" lon="6.06495">
        <ele>221.60000610352</ele>
        <time>2013-06-08T12:02:57Z</time>
      </trkpt>
      <trkpt lat="43.40481" lon="6.06496">
        <ele>220.39999389648</ele>
        <time>2013-06-08T12:02:59Z</time>
      </trkpt>
      <trkpt lat="43.40488" lon="6.06497">
        <ele>219.19999694824</ele>
        <time>2013-06-08T12:03:01Z</time>
      </trkpt>
      <trkpt lat="43.40493" lon="6.065">
        <ele>219.19999694824</ele>
        <time>2013-06-08T12:03:03Z</time>
      </trkpt>
      <trkpt lat="43.40493" lon="6.06499">
        <ele>219.19999694824</ele>
        <time>2013-06-08T12:03:06Z</time>
      </trkpt>
      <trkpt lat="43.40495" lon="6.065">
        <ele>219.19999694824</ele>
        <time>2013-06-08T12:03:08Z</time>
      </trkpt>
      <trkpt lat="43.40502" lon="6.06504">
        <ele>219.19999694824</ele>
        <time>2013-06-08T12:03:10Z</time>
      </trkpt>
      <trkpt lat="43.40516" lon="6.06509">
        <ele>218.80000305176</ele>
        <time>2013-06-08T12:03:13Z</time>
      </trkpt>
      <trkpt lat="43.40526" lon="6.06513">
        <ele>218</ele>
        <time>2013-06-08T12:03:14Z</time>
      </trkpt>
      <trkpt lat="43.40531" lon="6.06515">
        <ele>217.60000610352</ele>
        <time>2013-06-08T12:03:16Z</time>
      </trkpt>
      <trkpt lat="43.40536" lon="6.06517">
        <ele>217.19999694824</ele>
        <time>2013-06-08T12:03:17Z</time>
      </trkpt>
      <trkpt lat="43.40564" lon="6.06526">
        <ele>217.19999694824</ele>
        <time>2013-06-08T12:03:22Z</time>
      </trkpt>
      <trkpt lat="43.4057" lon="6.06527">
        <ele>216.80000305176</ele>
        <time>2013-06-08T12:03:23Z</time>
      </trkpt>
      <trkpt lat="43.40577" lon="6.06529">
        <ele>216.19999694824</ele>
        <time>2013-06-08T12:03:24Z</time>
      </trkpt>
      <trkpt lat="43.40601" lon="6.06533">
        <ele>215</ele>
        <time>2013-06-08T12:03:28Z</time>
      </trkpt>
      <trkpt lat="43.40609" lon="6.06535">
        <ele>214.60000610352</ele>
        <time>2013-06-08T12:03:31Z</time>
      </trkpt>
      <trkpt lat="43.4061" lon="6.06535">
        <ele>214.19999694824</ele>
        <time>2013-06-08T12:03:32Z</time>
      </trkpt>
      <trkpt lat="43.40611" lon="6.06535">
        <ele>213.80000305176</ele>
        <time>2013-06-08T12:03:33Z</time>
      </trkpt>
      <trkpt lat="43.40613" lon="6.06534">
        <ele>213.19999694824</ele>
        <time>2013-06-08T12:03:34Z</time>
      </trkpt>
      <trkpt lat="43.40616" lon="6.06531">
        <ele>212.80000305176</ele>
        <time>2013-06-08T12:03:35Z</time>
      </trkpt>
      <trkpt lat="43.40619" lon="6.06527">
        <ele>212.80000305176</ele>
        <time>2013-06-08T12:03:36Z</time>
      </trkpt>
      <trkpt lat="43.40625" lon="6.06511">
        <ele>212.80000305176</ele>
        <time>2013-06-08T12:03:39Z</time>
      </trkpt>
      <trkpt lat="43.40635" lon="6.06495">
        <ele>212.80000305176</ele>
        <time>2013-06-08T12:03:42Z</time>
      </trkpt>
      <trkpt lat="43.40645" lon="6.06483">
        <ele>212.39999389648</ele>
        <time>2013-06-08T12:03:44Z</time>
      </trkpt>
      <trkpt lat="43.4065" lon="6.06478">
        <ele>212</ele>
        <time>2013-06-08T12:03:45Z</time>
      </trkpt>
      <trkpt lat="43.40667" lon="6.06459">
        <ele>210.60000610352</ele>
        <time>2013-06-08T12:03:48Z</time>
      </trkpt>
      <trkpt lat="43.40679" lon="6.06447">
        <ele>209.80000305176</ele>
        <time>2013-06-08T12:03:50Z</time>
      </trkpt>
      <trkpt lat="43.40692" lon="6.06437">
        <ele>208.80000305176</ele>
        <time>2013-06-08T12:03:52Z</time>
      </trkpt>
      <trkpt lat="43.40707" lon="6.06431">
        <ele>207.80000305176</ele>
        <time>2013-06-08T12:03:54Z</time>
      </trkpt>
      <trkpt lat="43.40723" lon="6.06428">
        <ele>207</ele>
        <time>2013-06-08T12:03:56Z</time>
      </trkpt>
      <trkpt lat="43.40739" lon="6.06428">
        <ele>206.19999694824</ele>
        <time>2013-06-08T12:03:58Z</time>
      </trkpt>
      <trkpt lat="43.40755" lon="6.06426">
        <ele>206.19999694824</ele>
        <time>2013-06-08T12:04:00Z</time>
      </trkpt>
      <trkpt lat="43.40777" lon="6.0642">
        <ele>205.60000610352</ele>
        <time>2013-06-08T12:04:03Z</time>
      </trkpt>
      <trkpt lat="43.40797" lon="6.06414">
        <ele>204.39999389648</ele>
        <time>2013-06-08T12:04:06Z</time>
      </trkpt>
      <trkpt lat="43.40825" lon="6.06422">
        <ele>204</ele>
        <time>2013-06-08T12:04:10Z</time>
      </trkpt>
      <trkpt lat="43.40843" lon="6.06417">
        <ele>204</ele>
        <time>2013-06-08T12:04:13Z</time>
      </trkpt>
      <trkpt lat="43.40865" lon="6.06402">
        <ele>204</ele>
        <time>2013-06-08T12:04:17Z</time>
      </trkpt>
      <trkpt lat="43.40878" lon="6.06388">
        <ele>204</ele>
        <time>2013-06-08T12:04:20Z</time>
      </trkpt>
      <trkpt lat="43.40886" lon="6.06378">
        <ele>204</ele>
        <time>2013-06-08T12:04:22Z</time>
      </trkpt>
      <trkpt lat="43.40897" lon="6.06364">
        <ele>204</ele>
        <time>2013-06-08T12:04:25Z</time>
      </trkpt>
      <trkpt lat="43.40909" lon="6.06349">
        <ele>204</ele>
        <time>2013-06-08T12:04:28Z</time>
      </trkpt>
      <trkpt lat="43.40931" lon="6.0632">
        <ele>204</ele>
        <time>2013-06-08T12:04:34Z</time>
      </trkpt>
      <trkpt lat="43.40948" lon="6.06302">
        <ele>204</ele>
        <time>2013-06-08T12:04:38Z</time>
      </trkpt>
      <trkpt lat="43.40953" lon="6.06299">
        <ele>204</ele>
        <time>2013-06-08T12:04:39Z</time>
      </trkpt>
      <trkpt lat="43.40966" lon="6.06303">
        <ele>204</ele>
        <time>2013-06-08T12:04:42Z</time>
      </trkpt>
      <trkpt lat="43.40971" lon="6.06322">
        <ele>204</ele>
        <time>2013-06-08T12:04:46Z</time>
      </trkpt>
      <trkpt lat="43.40979" lon="6.06348">
        <ele>204</ele>
        <time>2013-06-08T12:04:50Z</time>
      </trkpt>
      <trkpt lat="43.40987" lon="6.06381">
        <ele>204</ele>
        <time>2013-06-08T12:04:55Z</time>
      </trkpt>
      <trkpt lat="43.40985" lon="6.06387">
        <ele>204</ele>
        <time>2013-06-08T12:04:56Z</time>
      </trkpt>
      <trkpt lat="43.40987" lon="6.06406">
        <ele>204</ele>
        <time>2013-06-08T12:04:59Z</time>
      </trkpt>
      <trkpt lat="43.40992" lon="6.06417">
        <ele>204</ele>
        <time>2013-06-08T12:05:01Z</time>
      </trkpt>
      <trkpt lat="43.41006" lon="6.06439">
        <ele>204</ele>
        <time>2013-06-08T12:05:05Z</time>
      </trkpt>
      <trkpt lat="43.41024" lon="6.06476">
        <ele>204</ele>
        <time>2013-06-08T12:05:11Z</time>
      </trkpt>
      <trkpt lat="43.41032" lon="6.06496">
        <ele>204</ele>
        <time>2013-06-08T12:05:14Z</time>
      </trkpt>
      <trkpt lat="43.41036" lon="6.06511">
        <ele>204</ele>
        <time>2013-06-08T12:05:16Z</time>
      </trkpt>
      <trkpt lat="43.41041" lon="6.06533">
        <ele>204</ele>
        <time>2013-06-08T12:05:19Z</time>
      </trkpt>
      <trkpt lat="43.41046" lon="6.06569">
        <ele>203.60000610352</ele>
        <time>2013-06-08T12:05:24Z</time>
      </trkpt>
      <trkpt lat="43.41063" lon="6.06643">
        <ele>202</ele>
        <time>2013-06-08T12:05:34Z</time>
      </trkpt>
      <trkpt lat="43.41071" lon="6.06687">
        <ele>202</ele>
        <time>2013-06-08T12:05:40Z</time>
      </trkpt>
      <trkpt lat="43.41079" lon="6.06741">
        <ele>202</ele>
        <time>2013-06-08T12:05:47Z</time>
      </trkpt>
      <trkpt lat="43.41079" lon="6.06786">
        <ele>202</ele>
        <time>2013-06-08T12:05:53Z</time>
      </trkpt>
      <trkpt lat="43.41074" lon="6.06839">
        <ele>202</ele>
        <time>2013-06-08T12:06:00Z</time>
      </trkpt>
      <trkpt lat="43.41074" lon="6.06854">
        <ele>202</ele>
        <time>2013-06-08T12:06:02Z</time>
      </trkpt>
      <trkpt lat="43.41077" lon="6.06885">
        <ele>202</ele>
        <time>2013-06-08T12:06:06Z</time>
      </trkpt>
      <trkpt lat="43.41081" lon="6.069">
        <ele>202</ele>
        <time>2013-06-08T12:06:08Z</time>
      </trkpt>
      <trkpt lat="43.41098" lon="6.06956">
        <ele>202</ele>
        <time>2013-06-08T12:06:16Z</time>
      </trkpt>
      <trkpt lat="43.41102" lon="6.06978">
        <ele>202</ele>
        <time>2013-06-08T12:06:19Z</time>
      </trkpt>
      <trkpt lat="43.41111" lon="6.07037">
        <ele>202</ele>
        <time>2013-06-08T12:06:27Z</time>
      </trkpt>
      <trkpt lat="43.41122" lon="6.07065">
        <ele>202</ele>
        <time>2013-06-08T12:06:32Z</time>
      </trkpt>
      <trkpt lat="43.41143" lon="6.07101">
        <ele>202</ele>
        <time>2013-06-08T12:06:40Z</time>
      </trkpt>
      <trkpt lat="43.41168" lon="6.07144">
        <ele>202</ele>
        <time>2013-06-08T12:06:49Z</time>
      </trkpt>
      <trkpt lat="43.41188" lon="6.07185">
        <ele>202</ele>
        <time>2013-06-08T12:06:57Z</time>
      </trkpt>
      <trkpt lat="43.41203" lon="6.07225">
        <ele>202</ele>
        <time>2013-06-08T12:07:05Z</time>
      </trkpt>
      <trkpt lat="43.41222" lon="6.0726">
        <ele>202</ele>
        <time>2013-06-08T12:07:13Z</time>
      </trkpt>
      <trkpt lat="43.41246" lon="6.07292">
        <ele>202</ele>
        <time>2013-06-08T12:07:20Z</time>
      </trkpt>
      <trkpt lat="43.41262" lon="6.07316">
        <ele>202</ele>
        <time>2013-06-08T12:07:25Z</time>
      </trkpt>
      <trkpt lat="43.41267" lon="6.0733">
        <ele>202</ele>
        <time>2013-06-08T12:07:27Z</time>
      </trkpt>
      <trkpt lat="43.4127" lon="6.07344">
        <ele>202</ele>
        <time>2013-06-08T12:07:29Z</time>
      </trkpt>
      <trkpt lat="43.41275" lon="6.07374">
        <ele>202</ele>
        <time>2013-06-08T12:07:33Z</time>
      </trkpt>
      <trkpt lat="43.41283" lon="6.07439">
        <ele>202</ele>
        <time>2013-06-08T12:07:41Z</time>
      </trkpt>
      <trkpt lat="43.41286" lon="6.07491">
        <ele>202</ele>
        <time>2013-06-08T12:07:47Z</time>
      </trkpt>
      <trkpt lat="43.41285" lon="6.075">
        <ele>202</ele>
        <time>2013-06-08T12:07:48Z</time>
      </trkpt>
      <trkpt lat="43.41278" lon="6.07545">
        <ele>202</ele>
        <time>2013-06-08T12:07:53Z</time>
      </trkpt>
      <trkpt lat="43.41275" lon="6.07553">
        <ele>202</ele>
        <time>2013-06-08T12:07:54Z</time>
      </trkpt>
      <trkpt lat="43.41256" lon="6.0759">
        <ele>200.39999389648</ele>
        <time>2013-06-08T12:07:59Z</time>
      </trkpt>
      <trkpt lat="43.41237" lon="6.07615">
        <ele>200</ele>
        <time>2013-06-08T12:08:03Z</time>
      </trkpt>
      <trkpt lat="43.41208" lon="6.07663">
        <ele>200</ele>
        <time>2013-06-08T12:08:10Z</time>
      </trkpt>
      <trkpt lat="43.41198" lon="6.07699">
        <ele>200</ele>
        <time>2013-06-08T12:08:14Z</time>
      </trkpt>
      <trkpt lat="43.41198" lon="6.07709">
        <ele>200</ele>
        <time>2013-06-08T12:08:15Z</time>
      </trkpt>
      <trkpt lat="43.41196" lon="6.0774">
        <ele>199.60000610352</ele>
        <time>2013-06-08T12:08:18Z</time>
      </trkpt>
      <trkpt lat="43.41199" lon="6.07762">
        <ele>198.60000610352</ele>
        <time>2013-06-08T12:08:20Z</time>
      </trkpt>
      <trkpt lat="43.41201" lon="6.07772">
        <ele>198.19999694824</ele>
        <time>2013-06-08T12:08:21Z</time>
      </trkpt>
      <trkpt lat="43.4121" lon="6.07799">
        <ele>197.80000305176</ele>
        <time>2013-06-08T12:08:24Z</time>
      </trkpt>
      <trkpt lat="43.41232" lon="6.07856">
        <ele>197.80000305176</ele>
        <time>2013-06-08T12:08:31Z</time>
      </trkpt>
      <trkpt lat="43.41236" lon="6.07862">
        <ele>197.80000305176</ele>
        <time>2013-06-08T12:08:32Z</time>
      </trkpt>
      <trkpt lat="43.41256" lon="6.07881">
        <ele>197.80000305176</ele>
        <time>2013-06-08T12:08:36Z</time>
      </trkpt>
      <trkpt lat="43.41283" lon="6.07898">
        <ele>197.80000305176</ele>
        <time>2013-06-08T12:08:41Z</time>
      </trkpt>
      <trkpt lat="43.41339" lon="6.0793">
        <ele>197.80000305176</ele>
        <time>2013-06-08T12:08:51Z</time>
      </trkpt>
      <trkpt lat="43.41373" lon="6.0796">
        <ele>197.80000305176</ele>
        <time>2013-06-08T12:08:58Z</time>
      </trkpt>
      <trkpt lat="43.4138" lon="6.07971">
        <ele>197.80000305176</ele>
        <time>2013-06-08T12:09:00Z</time>
      </trkpt>
      <trkpt lat="43.4139" lon="6.07989">
        <ele>197.80000305176</ele>
        <time>2013-06-08T12:09:03Z</time>
      </trkpt>
      <trkpt lat="43.41429" lon="6.08057">
        <ele>197.80000305176</ele>
        <time>2013-06-08T12:09:14Z</time>
      </trkpt>
      <trkpt lat="43.4146" lon="6.08106">
        <ele>197.80000305176</ele>
        <time>2013-06-08T12:09:22Z</time>
      </trkpt>
      <trkpt lat="43.41486" lon="6.08146">
        <ele>197.80000305176</ele>
        <time>2013-06-08T12:09:29Z</time>
      </trkpt>
      <trkpt lat="43.41505" lon="6.08178">
        <ele>197.80000305176</ele>
        <time>2013-06-08T12:09:35Z</time>
      </trkpt>
      <trkpt lat="43.4153" lon="6.08235">
        <ele>197.39999389648</ele>
        <time>2013-06-08T12:09:43Z</time>
      </trkpt>
      <trkpt lat="43.41537" lon="6.08251">
        <ele>196.60000610352</ele>
        <time>2013-06-08T12:09:45Z</time>
      </trkpt>
      <trkpt lat="43.41543" lon="6.08267">
        <ele>195.80000305176</ele>
        <time>2013-06-08T12:09:47Z</time>
      </trkpt>
      <trkpt lat="43.41547" lon="6.08283">
        <ele>195.80000305176</ele>
        <time>2013-06-08T12:09:49Z</time>
      </trkpt>
      <trkpt lat="43.41563" lon="6.0837">
        <ele>195.80000305176</ele>
        <time>2013-06-08T12:10:00Z</time>
      </trkpt>
      <trkpt lat="43.41575" lon="6.08433">
        <ele>195.80000305176</ele>
        <time>2013-06-08T12:10:08Z</time>
      </trkpt>
      <trkpt lat="43.41582" lon="6.0849">
        <ele>195.80000305176</ele>
        <time>2013-06-08T12:10:15Z</time>
      </trkpt>
      <trkpt lat="43.41589" lon="6.08547">
        <ele>195.80000305176</ele>
        <time>2013-06-08T12:10:22Z</time>
      </trkpt>
      <trkpt lat="43.41599" lon="6.08611">
        <ele>195.80000305176</ele>
        <time>2013-06-08T12:10:30Z</time>
      </trkpt>
      <trkpt lat="43.41612" lon="6.08664">
        <ele>195.80000305176</ele>
        <time>2013-06-08T12:10:37Z</time>
      </trkpt>
      <trkpt lat="43.41638" lon="6.08715">
        <ele>195.80000305176</ele>
        <time>2013-06-08T12:10:45Z</time>
      </trkpt>
      <trkpt lat="43.41667" lon="6.08767">
        <ele>195.80000305176</ele>
        <time>2013-06-08T12:10:53Z</time>
      </trkpt>
      <trkpt lat="43.41695" lon="6.08817">
        <ele>195.80000305176</ele>
        <time>2013-06-08T12:11:01Z</time>
      </trkpt>
      <trkpt lat="43.41726" lon="6.08874">
        <ele>193.60000610352</ele>
        <time>2013-06-08T12:11:10Z</time>
      </trkpt>
      <trkpt lat="43.41728" lon="6.08881">
        <ele>193.60000610352</ele>
        <time>2013-06-08T12:11:11Z</time>
      </trkpt>
      <trkpt lat="43.41735" lon="6.08909">
        <ele>193.60000610352</ele>
        <time>2013-06-08T12:11:15Z</time>
      </trkpt>
      <trkpt lat="43.41732" lon="6.08963">
        <ele>193.60000610352</ele>
        <time>2013-06-08T12:11:22Z</time>
      </trkpt>
      <trkpt lat="43.41721" lon="6.09029">
        <ele>193.60000610352</ele>
        <time>2013-06-08T12:11:31Z</time>
      </trkpt>
      <trkpt lat="43.4172" lon="6.09058">
        <ele>193.60000610352</ele>
        <time>2013-06-08T12:11:35Z</time>
      </trkpt>
      <trkpt lat="43.41718" lon="6.09185">
        <ele>193.60000610352</ele>
        <time>2013-06-08T12:11:52Z</time>
      </trkpt>
      <trkpt lat="43.41721" lon="6.09312">
        <ele>193.60000610352</ele>
        <time>2013-06-08T12:12:09Z</time>
      </trkpt>
      <trkpt lat="43.41726" lon="6.09355">
        <ele>193.60000610352</ele>
        <time>2013-06-08T12:12:15Z</time>
      </trkpt>
      <trkpt lat="43.41749" lon="6.09456">
        <ele>193.60000610352</ele>
        <time>2013-06-08T12:12:29Z</time>
      </trkpt>
      <trkpt lat="43.41766" lon="6.09521">
        <ele>193.60000610352</ele>
        <time>2013-06-08T12:12:38Z</time>
      </trkpt>
      <trkpt lat="43.41784" lon="6.09566">
        <ele>193.60000610352</ele>
        <time>2013-06-08T12:12:45Z</time>
      </trkpt>
      <trkpt lat="43.41809" lon="6.09618">
        <ele>193.60000610352</ele>
        <time>2013-06-08T12:12:54Z</time>
      </trkpt>
      <trkpt lat="43.41822" lon="6.09638">
        <ele>193.60000610352</ele>
        <time>2013-06-08T12:12:58Z</time>
      </trkpt>
      <trkpt lat="43.41844" lon="6.0965">
        <ele>193.60000610352</ele>
        <time>2013-06-08T12:13:03Z</time>
      </trkpt>
      <trkpt lat="43.41849" lon="6.09651">
        <ele>193.60000610352</ele>
        <time>2013-06-08T12:13:04Z</time>
      </trkpt>
      <trkpt lat="43.41946" lon="6.09662">
        <ele>193.60000610352</ele>
        <time>2013-06-08T12:13:23Z</time>
      </trkpt>
      <trkpt lat="43.41967" lon="6.09664">
        <ele>193.60000610352</ele>
        <time>2013-06-08T12:13:27Z</time>
      </trkpt>
      <trkpt lat="43.41998" lon="6.09669">
        <ele>193.60000610352</ele>
        <time>2013-06-08T12:13:33Z</time>
      </trkpt>
      <trkpt lat="43.42016" lon="6.09675">
        <ele>193.60000610352</ele>
        <time>2013-06-08T12:13:37Z</time>
      </trkpt>
      <trkpt lat="43.42028" lon="6.09681">
        <ele>193.60000610352</ele>
        <time>2013-06-08T12:13:40Z</time>
      </trkpt>
      <trkpt lat="43.42041" lon="6.09689">
        <ele>193.60000610352</ele>
        <time>2013-06-08T12:13:43Z</time>
      </trkpt>
      <trkpt lat="43.42056" lon="6.09704">
        <ele>193.60000610352</ele>
        <time>2013-06-08T12:13:47Z</time>
      </trkpt>
      <trkpt lat="43.42081" lon="6.09747">
        <ele>193.60000610352</ele>
        <time>2013-06-08T12:13:55Z</time>
      </trkpt>
      <trkpt lat="43.42085" lon="6.09759">
        <ele>193.60000610352</ele>
        <time>2013-06-08T12:13:57Z</time>
      </trkpt>
      <trkpt lat="43.42089" lon="6.09786">
        <ele>193.60000610352</ele>
        <time>2013-06-08T12:14:01Z</time>
      </trkpt>
      <trkpt lat="43.42091" lon="6.09807">
        <ele>193.60000610352</ele>
        <time>2013-06-08T12:14:04Z</time>
      </trkpt>
      <trkpt lat="43.42091" lon="6.09828">
        <ele>193.60000610352</ele>
        <time>2013-06-08T12:14:07Z</time>
      </trkpt>
      <trkpt lat="43.42089" lon="6.09854">
        <ele>193.60000610352</ele>
        <time>2013-06-08T12:14:11Z</time>
      </trkpt>
      <trkpt lat="43.42081" lon="6.09888">
        <ele>193.60000610352</ele>
        <time>2013-06-08T12:14:17Z</time>
      </trkpt>
      <trkpt lat="43.42077" lon="6.09899">
        <ele>193.60000610352</ele>
        <time>2013-06-08T12:14:19Z</time>
      </trkpt>
      <trkpt lat="43.42067" lon="6.09926">
        <ele>193.60000610352</ele>
        <time>2013-06-08T12:14:24Z</time>
      </trkpt>
      <trkpt lat="43.42057" lon="6.09959">
        <ele>193.60000610352</ele>
        <time>2013-06-08T12:14:30Z</time>
      </trkpt>
      <trkpt lat="43.4205" lon="6.09997">
        <ele>194</ele>
        <time>2013-06-08T12:14:36Z</time>
      </trkpt>
      <trkpt lat="43.42041" lon="6.10044">
        <ele>195.80000305176</ele>
        <time>2013-06-08T12:14:43Z</time>
      </trkpt>
      <trkpt lat="43.42032" lon="6.10103">
        <ele>195.80000305176</ele>
        <time>2013-06-08T12:14:51Z</time>
      </trkpt>
      <trkpt lat="43.42025" lon="6.10163">
        <ele>195.80000305176</ele>
        <time>2013-06-08T12:14:59Z</time>
      </trkpt>
      <trkpt lat="43.42018" lon="6.10227">
        <ele>195.80000305176</ele>
        <time>2013-06-08T12:15:07Z</time>
      </trkpt>
      <trkpt lat="43.4201" lon="6.10277">
        <ele>195</ele>
        <time>2013-06-08T12:15:13Z</time>
      </trkpt>
      <trkpt lat="43.42008" lon="6.10295">
        <ele>193.60000610352</ele>
        <time>2013-06-08T12:15:15Z</time>
      </trkpt>
      <trkpt lat="43.41998" lon="6.10364">
        <ele>193.60000610352</ele>
        <time>2013-06-08T12:15:23Z</time>
      </trkpt>
      <trkpt lat="43.4199" lon="6.10412">
        <ele>193.60000610352</ele>
        <time>2013-06-08T12:15:29Z</time>
      </trkpt>
      <trkpt lat="43.41986" lon="6.10469">
        <ele>193.60000610352</ele>
        <time>2013-06-08T12:15:36Z</time>
      </trkpt>
      <trkpt lat="43.41984" lon="6.10524">
        <ele>193.60000610352</ele>
        <time>2013-06-08T12:15:43Z</time>
      </trkpt>
      <trkpt lat="43.41983" lon="6.10532">
        <ele>193.60000610352</ele>
        <time>2013-06-08T12:15:44Z</time>
      </trkpt>
      <trkpt lat="43.41974" lon="6.10562">
        <ele>193.19999694824</ele>
        <time>2013-06-08T12:15:48Z</time>
      </trkpt>
      <trkpt lat="43.41963" lon="6.10592">
        <ele>191.60000610352</ele>
        <time>2013-06-08T12:15:52Z</time>
      </trkpt>
      <trkpt lat="43.41945" lon="6.10646">
        <ele>191.60000610352</ele>
        <time>2013-06-08T12:15:59Z</time>
      </trkpt>
      <trkpt lat="43.41927" lon="6.10697">
        <ele>191.60000610352</ele>
        <time>2013-06-08T12:16:06Z</time>
      </trkpt>
      <trkpt lat="43.4191" lon="6.10752">
        <ele>191.60000610352</ele>
        <time>2013-06-08T12:16:14Z</time>
      </trkpt>
      <trkpt lat="43.41906" lon="6.10781">
        <ele>191.60000610352</ele>
        <time>2013-06-08T12:16:18Z</time>
      </trkpt>
      <trkpt lat="43.41903" lon="6.10802">
        <ele>191.19999694824</ele>
        <time>2013-06-08T12:16:21Z</time>
      </trkpt>
      <trkpt lat="43.41897" lon="6.10847">
        <ele>189.39999389648</ele>
        <time>2013-06-08T12:16:27Z</time>
      </trkpt>
      <trkpt lat="43.419" lon="6.10891">
        <ele>189.39999389648</ele>
        <time>2013-06-08T12:16:33Z</time>
      </trkpt>
      <trkpt lat="43.41913" lon="6.10945">
        <ele>189.39999389648</ele>
        <time>2013-06-08T12:16:40Z</time>
      </trkpt>
      <trkpt lat="43.4192" lon="6.10982">
        <ele>189.39999389648</ele>
        <time>2013-06-08T12:16:45Z</time>
      </trkpt>
      <trkpt lat="43.4192" lon="6.10989">
        <ele>189.39999389648</ele>
        <time>2013-06-08T12:16:46Z</time>
      </trkpt>
      <trkpt lat="43.41919" lon="6.11032">
        <ele>189.39999389648</ele>
        <time>2013-06-08T12:16:51Z</time>
      </trkpt>
      <trkpt lat="43.41914" lon="6.11102">
        <ele>189.39999389648</ele>
        <time>2013-06-08T12:16:59Z</time>
      </trkpt>
      <trkpt lat="43.41914" lon="6.11117">
        <ele>189.39999389648</ele>
        <time>2013-06-08T12:17:01Z</time>
      </trkpt>
      <trkpt lat="43.41919" lon="6.11139">
        <ele>189.39999389648</ele>
        <time>2013-06-08T12:17:04Z</time>
      </trkpt>
      <trkpt lat="43.41935" lon="6.11179">
        <ele>189.39999389648</ele>
        <time>2013-06-08T12:17:10Z</time>
      </trkpt>
      <trkpt lat="43.41959" lon="6.11224">
        <ele>189.39999389648</ele>
        <time>2013-06-08T12:17:17Z</time>
      </trkpt>
      <trkpt lat="43.41967" lon="6.11236">
        <ele>188.60000610352</ele>
        <time>2013-06-08T12:17:19Z</time>
      </trkpt>
      <trkpt lat="43.41986" lon="6.11264">
        <ele>187.39999389648</ele>
        <time>2013-06-08T12:17:24Z</time>
      </trkpt>
      <trkpt lat="43.42012" lon="6.11302">
        <ele>187.39999389648</ele>
        <time>2013-06-08T12:17:31Z</time>
      </trkpt>
      <trkpt lat="43.42041" lon="6.1135">
        <ele>187.39999389648</ele>
        <time>2013-06-08T12:17:40Z</time>
      </trkpt>
      <trkpt lat="43.42065" lon="6.11392">
        <ele>187.39999389648</ele>
        <time>2013-06-08T12:17:48Z</time>
      </trkpt>
      <trkpt lat="43.42094" lon="6.11441">
        <ele>187.39999389648</ele>
        <time>2013-06-08T12:17:58Z</time>
      </trkpt>
      <trkpt lat="43.42138" lon="6.11495">
        <ele>187.39999389648</ele>
        <time>2013-06-08T12:18:12Z</time>
      </trkpt>
      <trkpt lat="43.42162" lon="6.11532">
        <ele>187.39999389648</ele>
        <time>2013-06-08T12:18:20Z</time>
      </trkpt>
      <trkpt lat="43.42186" lon="6.11573">
        <ele>187.39999389648</ele>
        <time>2013-06-08T12:18:28Z</time>
      </trkpt>
      <trkpt lat="43.42213" lon="6.11621">
        <ele>187.39999389648</ele>
        <time>2013-06-08T12:18:37Z</time>
      </trkpt>
      <trkpt lat="43.42239" lon="6.11661">
        <ele>187.39999389648</ele>
        <time>2013-06-08T12:18:45Z</time>
      </trkpt>
      <trkpt lat="43.4227" lon="6.11701">
        <ele>187.39999389648</ele>
        <time>2013-06-08T12:18:54Z</time>
      </trkpt>
      <trkpt lat="43.42293" lon="6.11731">
        <ele>187.39999389648</ele>
        <time>2013-06-08T12:19:01Z</time>
      </trkpt>
      <trkpt lat="43.42318" lon="6.11763">
        <ele>187.39999389648</ele>
        <time>2013-06-08T12:19:08Z</time>
      </trkpt>
      <trkpt lat="43.42343" lon="6.11796">
        <ele>187.39999389648</ele>
        <time>2013-06-08T12:19:16Z</time>
      </trkpt>
      <trkpt lat="43.42357" lon="6.11827">
        <ele>187.39999389648</ele>
        <time>2013-06-08T12:19:23Z</time>
      </trkpt>
      <trkpt lat="43.42363" lon="6.11878">
        <ele>187.39999389648</ele>
        <time>2013-06-08T12:19:30Z</time>
      </trkpt>
      <trkpt lat="43.42376" lon="6.11945">
        <ele>187.39999389648</ele>
        <time>2013-06-08T12:19:39Z</time>
      </trkpt>
      <trkpt lat="43.4239" lon="6.12002">
        <ele>187.39999389648</ele>
        <time>2013-06-08T12:19:47Z</time>
      </trkpt>
      <trkpt lat="43.424" lon="6.12034">
        <ele>187</ele>
        <time>2013-06-08T12:19:52Z</time>
      </trkpt>
      <trkpt lat="43.42402" lon="6.1204">
        <ele>186.60000610352</ele>
        <time>2013-06-08T12:19:53Z</time>
      </trkpt>
      <trkpt lat="43.42407" lon="6.12052">
        <ele>185.80000305176</ele>
        <time>2013-06-08T12:19:55Z</time>
      </trkpt>
      <trkpt lat="43.42426" lon="6.12087">
        <ele>185.39999389648</ele>
        <time>2013-06-08T12:20:01Z</time>
      </trkpt>
      <trkpt lat="43.4246" lon="6.12136">
        <ele>185.39999389648</ele>
        <time>2013-06-08T12:20:10Z</time>
      </trkpt>
      <trkpt lat="43.42488" lon="6.12172">
        <ele>185.39999389648</ele>
        <time>2013-06-08T12:20:17Z</time>
      </trkpt>
      <trkpt lat="43.42506" lon="6.12208">
        <ele>185.39999389648</ele>
        <time>2013-06-08T12:20:23Z</time>
      </trkpt>
      <trkpt lat="43.42521" lon="6.12257">
        <ele>183.19999694824</ele>
        <time>2013-06-08T12:20:30Z</time>
      </trkpt>
      <trkpt lat="43.42537" lon="6.12304">
        <ele>183.19999694824</ele>
        <time>2013-06-08T12:20:37Z</time>
      </trkpt>
      <trkpt lat="43.42539" lon="6.1231">
        <ele>183.19999694824</ele>
        <time>2013-06-08T12:20:38Z</time>
      </trkpt>
      <trkpt lat="43.42551" lon="6.12342">
        <ele>183.19999694824</ele>
        <time>2013-06-08T12:20:43Z</time>
      </trkpt>
      <trkpt lat="43.42566" lon="6.12378">
        <ele>183.19999694824</ele>
        <time>2013-06-08T12:20:50Z</time>
      </trkpt>
      <trkpt lat="43.4258" lon="6.12406">
        <ele>183.19999694824</ele>
        <time>2013-06-08T12:20:57Z</time>
      </trkpt>
      <trkpt lat="43.42597" lon="6.12442">
        <ele>183.19999694824</ele>
        <time>2013-06-08T12:21:04Z</time>
      </trkpt>
      <trkpt lat="43.42611" lon="6.12466">
        <ele>183.19999694824</ele>
        <time>2013-06-08T12:21:10Z</time>
      </trkpt>
      <trkpt lat="43.42633" lon="6.12491">
        <ele>183.19999694824</ele>
        <time>2013-06-08T12:21:17Z</time>
      </trkpt>
      <trkpt lat="43.42657" lon="6.12513">
        <ele>183.19999694824</ele>
        <time>2013-06-08T12:21:24Z</time>
      </trkpt>
      <trkpt lat="43.42683" lon="6.12528">
        <ele>183.19999694824</ele>
        <time>2013-06-08T12:21:31Z</time>
      </trkpt>
      <trkpt lat="43.42719" lon="6.12512">
        <ele>183.19999694824</ele>
        <time>2013-06-08T12:21:36Z</time>
      </trkpt>
      <trkpt lat="43.42744" lon="6.12503">
        <ele>183.19999694824</ele>
        <time>2013-06-08T12:21:40Z</time>
      </trkpt>
      <trkpt lat="43.42754" lon="6.12502">
        <ele>183.19999694824</ele>
        <time>2013-06-08T12:21:42Z</time>
      </trkpt>
      <trkpt lat="43.42778" lon="6.12493">
        <ele>183.19999694824</ele>
        <time>2013-06-08T12:21:47Z</time>
      </trkpt>
      <trkpt lat="43.42803" lon="6.12469">
        <ele>183.19999694824</ele>
        <time>2013-06-08T12:21:52Z</time>
      </trkpt>
      <trkpt lat="43.4281" lon="6.12458">
        <ele>183.19999694824</ele>
        <time>2013-06-08T12:21:54Z</time>
      </trkpt>
      <trkpt lat="43.42822" lon="6.12441">
        <ele>183.19999694824</ele>
        <time>2013-06-08T12:21:57Z</time>
      </trkpt>
      <trkpt lat="43.42846" lon="6.124">
        <ele>183.19999694824</ele>
        <time>2013-06-08T12:22:04Z</time>
      </trkpt>
      <trkpt lat="43.42865" lon="6.12371">
        <ele>183.19999694824</ele>
        <time>2013-06-08T12:22:10Z</time>
      </trkpt>
      <trkpt lat="43.42881" lon="6.12351">
        <ele>183.19999694824</ele>
        <time>2013-06-08T12:22:15Z</time>
      </trkpt>
      <trkpt lat="43.42894" lon="6.12342">
        <ele>183.19999694824</ele>
        <time>2013-06-08T12:22:18Z</time>
      </trkpt>
      <trkpt lat="43.42911" lon="6.12334">
        <ele>183.19999694824</ele>
        <time>2013-06-08T12:22:22Z</time>
      </trkpt>
      <trkpt lat="43.42931" lon="6.12328">
        <ele>183.19999694824</ele>
        <time>2013-06-08T12:22:27Z</time>
      </trkpt>
      <trkpt lat="43.42958" lon="6.1233">
        <ele>183.19999694824</ele>
        <time>2013-06-08T12:22:34Z</time>
      </trkpt>
      <trkpt lat="43.42975" lon="6.12343">
        <ele>183.19999694824</ele>
        <time>2013-06-08T12:22:39Z</time>
      </trkpt>
      <trkpt lat="43.42979" lon="6.12363">
        <ele>183.19999694824</ele>
        <time>2013-06-08T12:22:43Z</time>
      </trkpt>
      <trkpt lat="43.42999" lon="6.12451">
        <ele>183.19999694824</ele>
        <time>2013-06-08T12:22:56Z</time>
      </trkpt>
      <trkpt lat="43.43" lon="6.12459">
        <ele>183.19999694824</ele>
        <time>2013-06-08T12:22:57Z</time>
      </trkpt>
      <trkpt lat="43.43011" lon="6.12509">
        <ele>183.19999694824</ele>
        <time>2013-06-08T12:23:03Z</time>
      </trkpt>
      <trkpt lat="43.43012" lon="6.12517">
        <ele>183.19999694824</ele>
        <time>2013-06-08T12:23:04Z</time>
      </trkpt>
      <trkpt lat="43.43016" lon="6.12542">
        <ele>182.80000305176</ele>
        <time>2013-06-08T12:23:07Z</time>
      </trkpt>
      <trkpt lat="43.4302" lon="6.1258">
        <ele>181.19999694824</ele>
        <time>2013-06-08T12:23:12Z</time>
      </trkpt>
      <trkpt lat="43.4302" lon="6.12619">
        <ele>181.19999694824</ele>
        <time>2013-06-08T12:23:17Z</time>
      </trkpt>
      <trkpt lat="43.43017" lon="6.12748">
        <ele>181.19999694824</ele>
        <time>2013-06-08T12:23:34Z</time>
      </trkpt>
      <trkpt lat="43.43017" lon="6.12791">
        <ele>181.19999694824</ele>
        <time>2013-06-08T12:23:40Z</time>
      </trkpt>
      <trkpt lat="43.43019" lon="6.12818">
        <ele>179.60000610352</ele>
        <time>2013-06-08T12:23:44Z</time>
      </trkpt>
      <trkpt lat="43.43022" lon="6.12838">
        <ele>178.80000305176</ele>
        <time>2013-06-08T12:23:47Z</time>
      </trkpt>
      <trkpt lat="43.4303" lon="6.1287">
        <ele>178.80000305176</ele>
        <time>2013-06-08T12:23:52Z</time>
      </trkpt>
      <trkpt lat="43.43043" lon="6.12925">
        <ele>178.80000305176</ele>
        <time>2013-06-08T12:24:00Z</time>
      </trkpt>
      <trkpt lat="43.43065" lon="6.13021">
        <ele>178.80000305176</ele>
        <time>2013-06-08T12:24:14Z</time>
      </trkpt>
      <trkpt lat="43.43078" lon="6.1307">
        <ele>178.80000305176</ele>
        <time>2013-06-08T12:24:21Z</time>
      </trkpt>
      <trkpt lat="43.43093" lon="6.13124">
        <ele>178.80000305176</ele>
        <time>2013-06-08T12:24:29Z</time>
      </trkpt>
      <trkpt lat="43.43107" lon="6.13175">
        <ele>178.80000305176</ele>
        <time>2013-06-08T12:24:37Z</time>
      </trkpt>
      <trkpt lat="43.43117" lon="6.13219">
        <ele>178.80000305176</ele>
        <time>2013-06-08T12:24:44Z</time>
      </trkpt>
      <trkpt lat="43.43123" lon="6.13259">
        <ele>178.80000305176</ele>
        <time>2013-06-08T12:24:50Z</time>
      </trkpt>
      <trkpt lat="43.43124" lon="6.13298">
        <ele>178.80000305176</ele>
        <time>2013-06-08T12:24:56Z</time>
      </trkpt>
      <trkpt lat="43.43121" lon="6.1334">
        <ele>178.80000305176</ele>
        <time>2013-06-08T12:25:03Z</time>
      </trkpt>
      <trkpt lat="43.43113" lon="6.13381">
        <ele>178.80000305176</ele>
        <time>2013-06-08T12:25:10Z</time>
      </trkpt>
      <trkpt lat="43.43112" lon="6.13387">
        <ele>178.80000305176</ele>
        <time>2013-06-08T12:25:11Z</time>
      </trkpt>
      <trkpt lat="43.43106" lon="6.13405">
        <ele>178.80000305176</ele>
        <time>2013-06-08T12:25:14Z</time>
      </trkpt>
      <trkpt lat="43.4309" lon="6.13447">
        <ele>178.80000305176</ele>
        <time>2013-06-08T12:25:21Z</time>
      </trkpt>
      <trkpt lat="43.43079" lon="6.13476">
        <ele>178.80000305176</ele>
        <time>2013-06-08T12:25:26Z</time>
      </trkpt>
      <trkpt lat="43.43075" lon="6.13488">
        <ele>178.80000305176</ele>
        <time>2013-06-08T12:25:28Z</time>
      </trkpt>
      <trkpt lat="43.4307" lon="6.13512">
        <ele>178.80000305176</ele>
        <time>2013-06-08T12:25:32Z</time>
      </trkpt>
      <trkpt lat="43.43071" lon="6.13541">
        <ele>178.80000305176</ele>
        <time>2013-06-08T12:25:36Z</time>
      </trkpt>
      <trkpt lat="43.43076" lon="6.13574">
        <ele>178.80000305176</ele>
        <time>2013-06-08T12:25:41Z</time>
      </trkpt>
      <trkpt lat="43.43087" lon="6.1362">
        <ele>178.80000305176</ele>
        <time>2013-06-08T12:25:48Z</time>
      </trkpt>
      <trkpt lat="43.43105" lon="6.13668">
        <ele>178.80000305176</ele>
        <time>2013-06-08T12:25:56Z</time>
      </trkpt>
      <trkpt lat="43.43124" lon="6.13711">
        <ele>178.80000305176</ele>
        <time>2013-06-08T12:26:03Z</time>
      </trkpt>
      <trkpt lat="43.43144" lon="6.13744">
        <ele>178.80000305176</ele>
        <time>2013-06-08T12:26:09Z</time>
      </trkpt>
      <trkpt lat="43.43167" lon="6.13786">
        <ele>178.80000305176</ele>
        <time>2013-06-08T12:26:16Z</time>
      </trkpt>
      <trkpt lat="43.43209" lon="6.13858">
        <ele>178.80000305176</ele>
        <time>2013-06-08T12:26:30Z</time>
      </trkpt>
      <trkpt lat="43.43258" lon="6.13954">
        <ele>178.80000305176</ele>
        <time>2013-06-08T12:26:47Z</time>
      </trkpt>
      <trkpt lat="43.43266" lon="6.13979">
        <ele>178.19999694824</ele>
        <time>2013-06-08T12:26:51Z</time>
      </trkpt>
      <trkpt lat="43.43268" lon="6.13986">
        <ele>177.80000305176</ele>
        <time>2013-06-08T12:26:52Z</time>
      </trkpt>
      <trkpt lat="43.43271" lon="6.14006">
        <ele>176.60000610352</ele>
        <time>2013-06-08T12:26:55Z</time>
      </trkpt>
      <trkpt lat="43.43274" lon="6.14041">
        <ele>176.60000610352</ele>
        <time>2013-06-08T12:27:00Z</time>
      </trkpt>
      <trkpt lat="43.43266" lon="6.14104">
        <ele>176.60000610352</ele>
        <time>2013-06-08T12:27:09Z</time>
      </trkpt>
      <trkpt lat="43.43261" lon="6.14124">
        <ele>176.60000610352</ele>
        <time>2013-06-08T12:27:12Z</time>
      </trkpt>
      <trkpt lat="43.43256" lon="6.14137">
        <ele>176.60000610352</ele>
        <time>2013-06-08T12:27:14Z</time>
      </trkpt>
      <trkpt lat="43.43247" lon="6.1416">
        <ele>176.60000610352</ele>
        <time>2013-06-08T12:27:18Z</time>
      </trkpt>
      <trkpt lat="43.43233" lon="6.14194">
        <ele>176.60000610352</ele>
        <time>2013-06-08T12:27:24Z</time>
      </trkpt>
      <trkpt lat="43.4322" lon="6.14232">
        <ele>176.60000610352</ele>
        <time>2013-06-08T12:27:31Z</time>
      </trkpt>
      <trkpt lat="43.43209" lon="6.14275">
        <ele>176.60000610352</ele>
        <time>2013-06-08T12:27:38Z</time>
      </trkpt>
      <trkpt lat="43.43203" lon="6.14316">
        <ele>176.60000610352</ele>
        <time>2013-06-08T12:27:44Z</time>
      </trkpt>
      <trkpt lat="43.43198" lon="6.14366">
        <ele>176.60000610352</ele>
        <time>2013-06-08T12:27:52Z</time>
      </trkpt>
      <trkpt lat="43.43199" lon="6.14418">
        <ele>176.60000610352</ele>
        <time>2013-06-08T12:28:00Z</time>
      </trkpt>
      <trkpt lat="43.43211" lon="6.14449">
        <ele>176.60000610352</ele>
        <time>2013-06-08T12:28:05Z</time>
      </trkpt>
      <trkpt lat="43.43231" lon="6.14482">
        <ele>176.60000610352</ele>
        <time>2013-06-08T12:28:11Z</time>
      </trkpt>
      <trkpt lat="43.43255" lon="6.14519">
        <ele>176.60000610352</ele>
        <time>2013-06-08T12:28:18Z</time>
      </trkpt>
      <trkpt lat="43.43284" lon="6.14562">
        <ele>176.60000610352</ele>
        <time>2013-06-08T12:28:26Z</time>
      </trkpt>
      <trkpt lat="43.43307" lon="6.14592">
        <ele>176.19999694824</ele>
        <time>2013-06-08T12:28:32Z</time>
      </trkpt>
      <trkpt lat="43.43336" lon="6.14638">
        <ele>174.39999389648</ele>
        <time>2013-06-08T12:28:41Z</time>
      </trkpt>
      <trkpt lat="43.43343" lon="6.14655">
        <ele>174.39999389648</ele>
        <time>2013-06-08T12:28:44Z</time>
      </trkpt>
      <trkpt lat="43.43347" lon="6.14674">
        <ele>174.39999389648</ele>
        <time>2013-06-08T12:28:47Z</time>
      </trkpt>
      <trkpt lat="43.43348" lon="6.147">
        <ele>174.39999389648</ele>
        <time>2013-06-08T12:28:51Z</time>
      </trkpt>
      <trkpt lat="43.43343" lon="6.14761">
        <ele>174.39999389648</ele>
        <time>2013-06-08T12:29:00Z</time>
      </trkpt>
      <trkpt lat="43.43347" lon="6.14798">
        <ele>174.39999389648</ele>
        <time>2013-06-08T12:29:06Z</time>
      </trkpt>
      <trkpt lat="43.43357" lon="6.14837">
        <ele>174.39999389648</ele>
        <time>2013-06-08T12:29:12Z</time>
      </trkpt>
      <trkpt lat="43.43377" lon="6.14879">
        <ele>174.39999389648</ele>
        <time>2013-06-08T12:29:19Z</time>
      </trkpt>
      <trkpt lat="43.43398" lon="6.14919">
        <ele>174.39999389648</ele>
        <time>2013-06-08T12:29:26Z</time>
      </trkpt>
      <trkpt lat="43.43419" lon="6.14955">
        <ele>174.39999389648</ele>
        <time>2013-06-08T12:29:32Z</time>
      </trkpt>
      <trkpt lat="43.43442" lon="6.14992">
        <ele>174.39999389648</ele>
        <time>2013-06-08T12:29:39Z</time>
      </trkpt>
      <trkpt lat="43.43472" lon="6.15029">
        <ele>174.39999389648</ele>
        <time>2013-06-08T12:29:47Z</time>
      </trkpt>
      <trkpt lat="43.43503" lon="6.15056">
        <ele>174.39999389648</ele>
        <time>2013-06-08T12:29:54Z</time>
      </trkpt>
      <trkpt lat="43.43536" lon="6.15078">
        <ele>174.39999389648</ele>
        <time>2013-06-08T12:30:01Z</time>
      </trkpt>
      <trkpt lat="43.43571" lon="6.15103">
        <ele>174.39999389648</ele>
        <time>2013-06-08T12:30:09Z</time>
      </trkpt>
      <trkpt lat="43.43605" lon="6.15132">
        <ele>174.39999389648</ele>
        <time>2013-06-08T12:30:17Z</time>
      </trkpt>
      <trkpt lat="43.43641" lon="6.15172">
        <ele>174.39999389648</ele>
        <time>2013-06-08T12:30:26Z</time>
      </trkpt>
      <trkpt lat="43.43665" lon="6.15207">
        <ele>174.39999389648</ele>
        <time>2013-06-08T12:30:33Z</time>
      </trkpt>
      <trkpt lat="43.43691" lon="6.15252">
        <ele>174.39999389648</ele>
        <time>2013-06-08T12:30:42Z</time>
      </trkpt>
      <trkpt lat="43.43707" lon="6.15275">
        <ele>174.39999389648</ele>
        <time>2013-06-08T12:30:47Z</time>
      </trkpt>
      <trkpt lat="43.43732" lon="6.1531">
        <ele>174.39999389648</ele>
        <time>2013-06-08T12:30:55Z</time>
      </trkpt>
      <trkpt lat="43.43752" lon="6.15345">
        <ele>174.39999389648</ele>
        <time>2013-06-08T12:31:02Z</time>
      </trkpt>
      <trkpt lat="43.43766" lon="6.15388">
        <ele>174.39999389648</ele>
        <time>2013-06-08T12:31:09Z</time>
      </trkpt>
      <trkpt lat="43.4378" lon="6.15436">
        <ele>174.39999389648</ele>
        <time>2013-06-08T12:31:16Z</time>
      </trkpt>
      <trkpt lat="43.43793" lon="6.15491">
        <ele>174.39999389648</ele>
        <time>2013-06-08T12:31:24Z</time>
      </trkpt>
      <trkpt lat="43.43795" lon="6.15527">
        <ele>174.39999389648</ele>
        <time>2013-06-08T12:31:29Z</time>
      </trkpt>
      <trkpt lat="43.43792" lon="6.15549">
        <ele>174.39999389648</ele>
        <time>2013-06-08T12:31:32Z</time>
      </trkpt>
      <trkpt lat="43.43789" lon="6.15564">
        <ele>174.39999389648</ele>
        <time>2013-06-08T12:31:34Z</time>
      </trkpt>
      <trkpt lat="43.43778" lon="6.15599">
        <ele>174.39999389648</ele>
        <time>2013-06-08T12:31:39Z</time>
      </trkpt>
      <trkpt lat="43.43776" lon="6.15606">
        <ele>174.39999389648</ele>
        <time>2013-06-08T12:31:40Z</time>
      </trkpt>
      <trkpt lat="43.43761" lon="6.15644">
        <ele>174.39999389648</ele>
        <time>2013-06-08T12:31:46Z</time>
      </trkpt>
      <trkpt lat="43.4372" lon="6.15741">
        <ele>174.39999389648</ele>
        <time>2013-06-08T12:32:01Z</time>
      </trkpt>
      <trkpt lat="43.43697" lon="6.15799">
        <ele>174.39999389648</ele>
        <time>2013-06-08T12:32:10Z</time>
      </trkpt>
      <trkpt lat="43.43682" lon="6.15853">
        <ele>174.39999389648</ele>
        <time>2013-06-08T12:32:18Z</time>
      </trkpt>
      <trkpt lat="43.43676" lon="6.15941">
        <ele>174.39999389648</ele>
        <time>2013-06-08T12:32:30Z</time>
      </trkpt>
      <trkpt lat="43.43675" lon="6.15993">
        <ele>174.39999389648</ele>
        <time>2013-06-08T12:32:37Z</time>
      </trkpt>
      <trkpt lat="43.43674" lon="6.16043">
        <ele>174.39999389648</ele>
        <time>2013-06-08T12:32:44Z</time>
      </trkpt>
      <trkpt lat="43.43672" lon="6.16083">
        <ele>174.39999389648</ele>
        <time>2013-06-08T12:32:50Z</time>
      </trkpt>
      <trkpt lat="43.43665" lon="6.16166">
        <ele>174.39999389648</ele>
        <time>2013-06-08T12:33:03Z</time>
      </trkpt>
      <trkpt lat="43.43656" lon="6.16231">
        <ele>174.39999389648</ele>
        <time>2013-06-08T12:33:14Z</time>
      </trkpt>
      <trkpt lat="43.43653" lon="6.16249">
        <ele>174.39999389648</ele>
        <time>2013-06-08T12:33:17Z</time>
      </trkpt>
      <trkpt lat="43.43645" lon="6.16293">
        <ele>174.39999389648</ele>
        <time>2013-06-08T12:33:24Z</time>
      </trkpt>
      <trkpt lat="43.43645" lon="6.163">
        <ele>174.39999389648</ele>
        <time>2013-06-08T12:33:25Z</time>
      </trkpt>
      <trkpt lat="43.43642" lon="6.16331">
        <ele>174.39999389648</ele>
        <time>2013-06-08T12:33:29Z</time>
      </trkpt>
      <trkpt lat="43.43638" lon="6.16377">
        <ele>174</ele>
        <time>2013-06-08T12:33:36Z</time>
      </trkpt>
      <trkpt lat="43.43637" lon="6.16483">
        <ele>172.19999694824</ele>
        <time>2013-06-08T12:33:51Z</time>
      </trkpt>
      <trkpt lat="43.4363" lon="6.16556">
        <ele>172.19999694824</ele>
        <time>2013-06-08T12:34:01Z</time>
      </trkpt>
      <trkpt lat="43.43632" lon="6.16583">
        <ele>172.19999694824</ele>
        <time>2013-06-08T12:34:05Z</time>
      </trkpt>
      <trkpt lat="43.43639" lon="6.16625">
        <ele>170.39999389648</ele>
        <time>2013-06-08T12:34:11Z</time>
      </trkpt>
      <trkpt lat="43.43651" lon="6.16681">
        <ele>169.80000305176</ele>
        <time>2013-06-08T12:34:19Z</time>
      </trkpt>
      <trkpt lat="43.43687" lon="6.16816">
        <ele>169.80000305176</ele>
        <time>2013-06-08T12:34:39Z</time>
      </trkpt>
      <trkpt lat="43.43697" lon="6.16841">
        <ele>169.80000305176</ele>
        <time>2013-06-08T12:34:43Z</time>
      </trkpt>
      <trkpt lat="43.43716" lon="6.16883">
        <ele>169.80000305176</ele>
        <time>2013-06-08T12:34:50Z</time>
      </trkpt>
      <trkpt lat="43.4375" lon="6.16951">
        <ele>169.80000305176</ele>
        <time>2013-06-08T12:35:01Z</time>
      </trkpt>
      <trkpt lat="43.43773" lon="6.17002">
        <ele>169.80000305176</ele>
        <time>2013-06-08T12:35:09Z</time>
      </trkpt>
      <trkpt lat="43.43793" lon="6.17036">
        <ele>169.80000305176</ele>
        <time>2013-06-08T12:35:15Z</time>
      </trkpt>
      <trkpt lat="43.4382" lon="6.17076">
        <ele>169</ele>
        <time>2013-06-08T12:35:23Z</time>
      </trkpt>
      <trkpt lat="43.43823" lon="6.17081">
        <ele>168.60000610352</ele>
        <time>2013-06-08T12:35:24Z</time>
      </trkpt>
      <trkpt lat="43.43845" lon="6.17106">
        <ele>167.60000610352</ele>
        <time>2013-06-08T12:35:30Z</time>
      </trkpt>
      <trkpt lat="43.43868" lon="6.17129">
        <ele>167.60000610352</ele>
        <time>2013-06-08T12:35:36Z</time>
      </trkpt>
      <trkpt lat="43.43901" lon="6.17161">
        <ele>165.39999389648</ele>
        <time>2013-06-08T12:35:44Z</time>
      </trkpt>
      <trkpt lat="43.43948" lon="6.17211">
        <ele>165.39999389648</ele>
        <time>2013-06-08T12:35:56Z</time>
      </trkpt>
      <trkpt lat="43.43973" lon="6.17225">
        <ele>165.39999389648</ele>
        <time>2013-06-08T12:36:01Z</time>
      </trkpt>
      <trkpt lat="43.44006" lon="6.17242">
        <ele>165.39999389648</ele>
        <time>2013-06-08T12:36:08Z</time>
      </trkpt>
      <trkpt lat="43.44031" lon="6.17258">
        <ele>165.39999389648</ele>
        <time>2013-06-08T12:36:14Z</time>
      </trkpt>
      <trkpt lat="43.44075" lon="6.17276">
        <ele>165.39999389648</ele>
        <time>2013-06-08T12:36:23Z</time>
      </trkpt>
      <trkpt lat="43.44115" lon="6.17289">
        <ele>165.39999389648</ele>
        <time>2013-06-08T12:36:31Z</time>
      </trkpt>
      <trkpt lat="43.44138" lon="6.17301">
        <ele>167</ele>
        <time>2013-06-08T12:36:36Z</time>
      </trkpt>
      <trkpt lat="43.44159" lon="6.17315">
        <ele>167.60000610352</ele>
        <time>2013-06-08T12:36:41Z</time>
      </trkpt>
      <trkpt lat="43.44162" lon="6.17319">
        <ele>167.19999694824</ele>
        <time>2013-06-08T12:36:42Z</time>
      </trkpt>
      <trkpt lat="43.44193" lon="6.17356">
        <ele>166</ele>
        <time>2013-06-08T12:36:51Z</time>
      </trkpt>
      <trkpt lat="43.44211" lon="6.17384">
        <ele>166.39999389648</ele>
        <time>2013-06-08T12:36:57Z</time>
      </trkpt>
      <trkpt lat="43.44221" lon="6.17407">
        <ele>168.39999389648</ele>
        <time>2013-06-08T12:37:01Z</time>
      </trkpt>
      <trkpt lat="43.4423" lon="6.17432">
        <ele>168.39999389648</ele>
        <time>2013-06-08T12:37:05Z</time>
      </trkpt>
      <trkpt lat="43.44233" lon="6.17446">
        <ele>168</ele>
        <time>2013-06-08T12:37:07Z</time>
      </trkpt>
      <trkpt lat="43.44242" lon="6.17486">
        <ele>166.19999694824</ele>
        <time>2013-06-08T12:37:13Z</time>
      </trkpt>
      <trkpt lat="43.44251" lon="6.17533">
        <ele>166.19999694824</ele>
        <time>2013-06-08T12:37:20Z</time>
      </trkpt>
      <trkpt lat="43.44254" lon="6.17565">
        <ele>166.19999694824</ele>
        <time>2013-06-08T12:37:25Z</time>
      </trkpt>
      <trkpt lat="43.4424" lon="6.1761">
        <ele>166.19999694824</ele>
        <time>2013-06-08T12:37:32Z</time>
      </trkpt>
      <trkpt lat="43.44233" lon="6.17635">
        <ele>166.19999694824</ele>
        <time>2013-06-08T12:37:36Z</time>
      </trkpt>
      <trkpt lat="43.4423" lon="6.17648">
        <ele>166.19999694824</ele>
        <time>2013-06-08T12:37:38Z</time>
      </trkpt>
      <trkpt lat="43.44219" lon="6.1772">
        <ele>166.19999694824</ele>
        <time>2013-06-08T12:37:48Z</time>
      </trkpt>
      <trkpt lat="43.44209" lon="6.17759">
        <ele>166.19999694824</ele>
        <time>2013-06-08T12:37:54Z</time>
      </trkpt>
      <trkpt lat="43.44197" lon="6.17798">
        <ele>166.19999694824</ele>
        <time>2013-06-08T12:38:00Z</time>
      </trkpt>
      <trkpt lat="43.44192" lon="6.17828">
        <ele>166.19999694824</ele>
        <time>2013-06-08T12:38:04Z</time>
      </trkpt>
      <trkpt lat="43.44191" lon="6.17844">
        <ele>166.19999694824</ele>
        <time>2013-06-08T12:38:06Z</time>
      </trkpt>
      <trkpt lat="43.44192" lon="6.17876">
        <ele>166.19999694824</ele>
        <time>2013-06-08T12:38:10Z</time>
      </trkpt>
      <trkpt lat="43.44193" lon="6.17883">
        <ele>166.19999694824</ele>
        <time>2013-06-08T12:38:11Z</time>
      </trkpt>
      <trkpt lat="43.44203" lon="6.17916">
        <ele>166.19999694824</ele>
        <time>2013-06-08T12:38:16Z</time>
      </trkpt>
      <trkpt lat="43.44218" lon="6.17969">
        <ele>166.19999694824</ele>
        <time>2013-06-08T12:38:24Z</time>
      </trkpt>
      <trkpt lat="43.44231" lon="6.18022">
        <ele>165.80000305176</ele>
        <time>2013-06-08T12:38:32Z</time>
      </trkpt>
      <trkpt lat="43.44246" lon="6.18089">
        <ele>164</ele>
        <time>2013-06-08T12:38:42Z</time>
      </trkpt>
      <trkpt lat="43.44268" lon="6.18168">
        <ele>164</ele>
        <time>2013-06-08T12:38:54Z</time>
      </trkpt>
      <trkpt lat="43.44282" lon="6.18222">
        <ele>164</ele>
        <time>2013-06-08T12:39:02Z</time>
      </trkpt>
      <trkpt lat="43.44293" lon="6.18265">
        <ele>164</ele>
        <time>2013-06-08T12:39:09Z</time>
      </trkpt>
      <trkpt lat="43.44311" lon="6.18331">
        <ele>164</ele>
        <time>2013-06-08T12:39:21Z</time>
      </trkpt>
      <trkpt lat="43.44322" lon="6.18375">
        <ele>164.60000610352</ele>
        <time>2013-06-08T12:39:30Z</time>
      </trkpt>
      <trkpt lat="43.44342" lon="6.18414">
        <ele>166.80000305176</ele>
        <time>2013-06-08T12:39:40Z</time>
      </trkpt>
      <trkpt lat="43.44345" lon="6.18421">
        <ele>167.80000305176</ele>
        <time>2013-06-08T12:39:42Z</time>
      </trkpt>
      <trkpt lat="43.44348" lon="6.18429">
        <ele>168.60000610352</ele>
        <time>2013-06-08T12:39:44Z</time>
      </trkpt>
      <trkpt lat="43.44355" lon="6.18444">
        <ele>168.60000610352</ele>
        <time>2013-06-08T12:39:48Z</time>
      </trkpt>
      <trkpt lat="43.44359" lon="6.18455">
        <ele>170</ele>
        <time>2013-06-08T12:39:51Z</time>
      </trkpt>
      <trkpt lat="43.44363" lon="6.1847">
        <ele>170.80000305176</ele>
        <time>2013-06-08T12:39:55Z</time>
      </trkpt>
      <trkpt lat="43.44369" lon="6.18494">
        <ele>170.80000305176</ele>
        <time>2013-06-08T12:40:01Z</time>
      </trkpt>
      <trkpt lat="43.44371" lon="6.18505">
        <ele>171.39999389648</ele>
        <time>2013-06-08T12:40:04Z</time>
      </trkpt>
      <trkpt lat="43.44373" lon="6.18521">
        <ele>173</ele>
        <time>2013-06-08T12:40:08Z</time>
      </trkpt>
      <trkpt lat="43.44375" lon="6.18542">
        <ele>173</ele>
        <time>2013-06-08T12:40:13Z</time>
      </trkpt>
      <trkpt lat="43.44377" lon="6.18585">
        <ele>175.19999694824</ele>
        <time>2013-06-08T12:40:22Z</time>
      </trkpt>
      <trkpt lat="43.44377" lon="6.18612">
        <ele>176.39999389648</ele>
        <time>2013-06-08T12:40:27Z</time>
      </trkpt>
      <trkpt lat="43.44375" lon="6.18637">
        <ele>177.39999389648</ele>
        <time>2013-06-08T12:40:32Z</time>
      </trkpt>
      <trkpt lat="43.44375" lon="6.18642">
        <ele>177.39999389648</ele>
        <time>2013-06-08T12:40:33Z</time>
      </trkpt>
      <trkpt lat="43.44382" lon="6.18683">
        <ele>177.39999389648</ele>
        <time>2013-06-08T12:40:40Z</time>
      </trkpt>
      <trkpt lat="43.44387" lon="6.18692">
        <ele>177.39999389648</ele>
        <time>2013-06-08T12:40:42Z</time>
      </trkpt>
      <trkpt lat="43.44398" lon="6.18703">
        <ele>177.39999389648</ele>
        <time>2013-06-08T12:40:45Z</time>
      </trkpt>
      <trkpt lat="43.4442" lon="6.18713">
        <ele>177.39999389648</ele>
        <time>2013-06-08T12:40:50Z</time>
      </trkpt>
      <trkpt lat="43.44432" lon="6.1872">
        <ele>177</ele>
        <time>2013-06-08T12:40:53Z</time>
      </trkpt>
      <trkpt lat="43.44445" lon="6.18729">
        <ele>175.60000610352</ele>
        <time>2013-06-08T12:40:56Z</time>
      </trkpt>
      <trkpt lat="43.44466" lon="6.18749">
        <ele>175.19999694824</ele>
        <time>2013-06-08T12:41:01Z</time>
      </trkpt>
      <trkpt lat="43.44485" lon="6.1877">
        <ele>175.19999694824</ele>
        <time>2013-06-08T12:41:06Z</time>
      </trkpt>
      <trkpt lat="43.4451" lon="6.18803">
        <ele>175.19999694824</ele>
        <time>2013-06-08T12:41:13Z</time>
      </trkpt>
      <trkpt lat="43.44521" lon="6.18818">
        <ele>175.19999694824</ele>
        <time>2013-06-08T12:41:16Z</time>
      </trkpt>
      <trkpt lat="43.44528" lon="6.18837">
        <ele>175.19999694824</ele>
        <time>2013-06-08T12:41:19Z</time>
      </trkpt>
      <trkpt lat="43.44535" lon="6.18875">
        <ele>175.19999694824</ele>
        <time>2013-06-08T12:41:25Z</time>
      </trkpt>
      <trkpt lat="43.44536" lon="6.18887">
        <ele>175.19999694824</ele>
        <time>2013-06-08T12:41:27Z</time>
      </trkpt>
      <trkpt lat="43.44537" lon="6.18913">
        <ele>175.19999694824</ele>
        <time>2013-06-08T12:41:31Z</time>
      </trkpt>
      <trkpt lat="43.44538" lon="6.19001">
        <ele>175.19999694824</ele>
        <time>2013-06-08T12:41:44Z</time>
      </trkpt>
      <trkpt lat="43.4454" lon="6.19036">
        <ele>175.19999694824</ele>
        <time>2013-06-08T12:41:49Z</time>
      </trkpt>
      <trkpt lat="43.4454" lon="6.19051">
        <ele>175.19999694824</ele>
        <time>2013-06-08T12:41:51Z</time>
      </trkpt>
      <trkpt lat="43.4454" lon="6.19072">
        <ele>176</ele>
        <time>2013-06-08T12:41:54Z</time>
      </trkpt>
      <trkpt lat="43.44539" lon="6.19079">
        <ele>176.39999389648</ele>
        <time>2013-06-08T12:41:55Z</time>
      </trkpt>
      <trkpt lat="43.44537" lon="6.19092">
        <ele>177.39999389648</ele>
        <time>2013-06-08T12:41:57Z</time>
      </trkpt>
      <trkpt lat="43.44524" lon="6.1912">
        <ele>177.39999389648</ele>
        <time>2013-06-08T12:42:02Z</time>
      </trkpt>
      <trkpt lat="43.44499" lon="6.19175">
        <ele>177.39999389648</ele>
        <time>2013-06-08T12:42:13Z</time>
      </trkpt>
      <trkpt lat="43.44485" lon="6.19199">
        <ele>177.39999389648</ele>
        <time>2013-06-08T12:42:19Z</time>
      </trkpt>
      <trkpt lat="43.44476" lon="6.19219">
        <ele>177.80000305176</ele>
        <time>2013-06-08T12:42:23Z</time>
      </trkpt>
      <trkpt lat="43.44472" lon="6.19228">
        <ele>179</ele>
        <time>2013-06-08T12:42:25Z</time>
      </trkpt>
      <trkpt lat="43.44461" lon="6.19245">
        <ele>179.39999389648</ele>
        <time>2013-06-08T12:42:29Z</time>
      </trkpt>
      <trkpt lat="43.44447" lon="6.19258">
        <ele>179.39999389648</ele>
        <time>2013-06-08T12:42:33Z</time>
      </trkpt>
      <trkpt lat="43.44426" lon="6.19264">
        <ele>179.80000305176</ele>
        <time>2013-06-08T12:42:38Z</time>
      </trkpt>
      <trkpt lat="43.44415" lon="6.19269">
        <ele>181</ele>
        <time>2013-06-08T12:42:41Z</time>
      </trkpt>
      <trkpt lat="43.44411" lon="6.19272">
        <ele>181.39999389648</ele>
        <time>2013-06-08T12:42:42Z</time>
      </trkpt>
      <trkpt lat="43.44398" lon="6.19288">
        <ele>181.39999389648</ele>
        <time>2013-06-08T12:42:47Z</time>
      </trkpt>
      <trkpt lat="43.44397" lon="6.19315">
        <ele>181.39999389648</ele>
        <time>2013-06-08T12:42:52Z</time>
      </trkpt>
      <trkpt lat="43.44401" lon="6.19347">
        <ele>181.39999389648</ele>
        <time>2013-06-08T12:42:57Z</time>
      </trkpt>
      <trkpt lat="43.44411" lon="6.1939">
        <ele>181.39999389648</ele>
        <time>2013-06-08T12:43:03Z</time>
      </trkpt>
      <trkpt lat="43.44423" lon="6.19435">
        <ele>179.19999694824</ele>
        <time>2013-06-08T12:43:09Z</time>
      </trkpt>
      <trkpt lat="43.44427" lon="6.19459">
        <ele>179.19999694824</ele>
        <time>2013-06-08T12:43:12Z</time>
      </trkpt>
      <trkpt lat="43.44441" lon="6.19513">
        <ele>179.19999694824</ele>
        <time>2013-06-08T12:43:18Z</time>
      </trkpt>
      <trkpt lat="43.44448" lon="6.19529">
        <ele>178.80000305176</ele>
        <time>2013-06-08T12:43:20Z</time>
      </trkpt>
      <trkpt lat="43.44459" lon="6.19539">
        <ele>178</ele>
        <time>2013-06-08T12:43:22Z</time>
      </trkpt>
      <trkpt lat="43.44464" lon="6.19542">
        <ele>177.39999389648</ele>
        <time>2013-06-08T12:43:23Z</time>
      </trkpt>
      <trkpt lat="43.44468" lon="6.19544">
        <ele>177</ele>
        <time>2013-06-08T12:43:24Z</time>
      </trkpt>
      <trkpt lat="43.44488" lon="6.19543">
        <ele>176.60000610352</ele>
        <time>2013-06-08T12:43:27Z</time>
      </trkpt>
      <trkpt lat="43.44496" lon="6.19542">
        <ele>176</ele>
        <time>2013-06-08T12:43:28Z</time>
      </trkpt>
      <trkpt lat="43.44503" lon="6.19541">
        <ele>175.39999389648</ele>
        <time>2013-06-08T12:43:29Z</time>
      </trkpt>
      <trkpt lat="43.44516" lon="6.19545">
        <ele>174.39999389648</ele>
        <time>2013-06-08T12:43:31Z</time>
      </trkpt>
      <trkpt lat="43.4452" lon="6.1955">
        <ele>173.60000610352</ele>
        <time>2013-06-08T12:43:32Z</time>
      </trkpt>
      <trkpt lat="43.44526" lon="6.19555">
        <ele>172.19999694824</ele>
        <time>2013-06-08T12:43:34Z</time>
      </trkpt>
      <trkpt lat="43.4453" lon="6.19558">
        <ele>171</ele>
        <time>2013-06-08T12:43:36Z</time>
      </trkpt>
      <trkpt lat="43.44532" lon="6.19559">
        <ele>170.39999389648</ele>
        <time>2013-06-08T12:43:38Z</time>
      </trkpt>
      <trkpt lat="43.44533" lon="6.1956">
        <ele>169.60000610352</ele>
        <time>2013-06-08T12:43:39Z</time>
      </trkpt>
      <trkpt lat="43.44534" lon="6.19562">
        <ele>169</ele>
        <time>2013-06-08T12:43:40Z</time>
      </trkpt>
      <trkpt lat="43.44535" lon="6.19566">
        <ele>168.60000610352</ele>
        <time>2013-06-08T12:43:41Z</time>
      </trkpt>
      <trkpt lat="43.44537" lon="6.1957">
        <ele>168.19999694824</ele>
        <time>2013-06-08T12:43:42Z</time>
      </trkpt>
      <trkpt lat="43.44538" lon="6.19576">
        <ele>167.80000305176</ele>
        <time>2013-06-08T12:43:43Z</time>
      </trkpt>
      <trkpt lat="43.44538" lon="6.19583">
        <ele>167.19999694824</ele>
        <time>2013-06-08T12:43:44Z</time>
      </trkpt>
      <trkpt lat="43.44539" lon="6.1959">
        <ele>166.80000305176</ele>
        <time>2013-06-08T12:43:45Z</time>
      </trkpt>
      <trkpt lat="43.44445" lon="6.19722">
        <ele>163.60000610352</ele>
        <time>2013-06-08T12:43:52Z</time>
      </trkpt>
      <trkpt lat="43.44441" lon="6.19734">
        <ele>163</ele>
        <time>2013-06-08T12:43:53Z</time>
      </trkpt>
      <trkpt lat="43.44438" lon="6.19744">
        <ele>162.60000610352</ele>
        <time>2013-06-08T12:43:54Z</time>
      </trkpt>
      <trkpt lat="43.44436" lon="6.19756">
        <ele>162</ele>
        <time>2013-06-08T12:43:55Z</time>
      </trkpt>
      <trkpt lat="43.44435" lon="6.19766">
        <ele>161.39999389648</ele>
        <time>2013-06-08T12:43:56Z</time>
      </trkpt>
      <trkpt lat="43.44434" lon="6.19775">
        <ele>161</ele>
        <time>2013-06-08T12:43:57Z</time>
      </trkpt>
      <trkpt lat="43.44432" lon="6.19784">
        <ele>160.39999389648</ele>
        <time>2013-06-08T12:43:58Z</time>
      </trkpt>
      <trkpt lat="43.44427" lon="6.19821">
        <ele>159.80000305176</ele>
        <time>2013-06-08T12:44:02Z</time>
      </trkpt>
      <trkpt lat="43.44424" lon="6.19839">
        <ele>159.80000305176</ele>
        <time>2013-06-08T12:44:04Z</time>
      </trkpt>
      <trkpt lat="43.44421" lon="6.1987">
        <ele>159.80000305176</ele>
        <time>2013-06-08T12:44:08Z</time>
      </trkpt>
      <trkpt lat="43.44426" lon="6.19895">
        <ele>161.39999389648</ele>
        <time>2013-06-08T12:44:12Z</time>
      </trkpt>
      <trkpt lat="43.44428" lon="6.199">
        <ele>161.80000305176</ele>
        <time>2013-06-08T12:44:13Z</time>
      </trkpt>
      <trkpt lat="43.4443" lon="6.19906">
        <ele>162.39999389648</ele>
        <time>2013-06-08T12:44:14Z</time>
      </trkpt>
      <trkpt lat="43.44435" lon="6.19917">
        <ele>162.39999389648</ele>
        <time>2013-06-08T12:44:16Z</time>
      </trkpt>
      <trkpt lat="43.4444" lon="6.19928">
        <ele>162.39999389648</ele>
        <time>2013-06-08T12:44:18Z</time>
      </trkpt>
      <trkpt lat="43.4445" lon="6.1994">
        <ele>162.39999389648</ele>
        <time>2013-06-08T12:44:21Z</time>
      </trkpt>
      <trkpt lat="43.4446" lon="6.19945">
        <ele>162.39999389648</ele>
        <time>2013-06-08T12:44:23Z</time>
      </trkpt>
      <trkpt lat="43.4447" lon="6.1995">
        <ele>161.60000610352</ele>
        <time>2013-06-08T12:44:25Z</time>
      </trkpt>
      <trkpt lat="43.44481" lon="6.19954">
        <ele>160.39999389648</ele>
        <time>2013-06-08T12:44:27Z</time>
      </trkpt>
      <trkpt lat="43.44508" lon="6.19966">
        <ele>160.39999389648</ele>
        <time>2013-06-08T12:44:32Z</time>
      </trkpt>
      <trkpt lat="43.44517" lon="6.1997">
        <ele>160.39999389648</ele>
        <time>2013-06-08T12:44:34Z</time>
      </trkpt>
      <trkpt lat="43.44547" lon="6.19986">
        <ele>160.39999389648</ele>
        <time>2013-06-08T12:44:41Z</time>
      </trkpt>
      <trkpt lat="43.44555" lon="6.19992">
        <ele>160.39999389648</ele>
        <time>2013-06-08T12:44:43Z</time>
      </trkpt>
      <trkpt lat="43.44564" lon="6.20004">
        <ele>160.39999389648</ele>
        <time>2013-06-08T12:44:46Z</time>
      </trkpt>
      <trkpt lat="43.44581" lon="6.20013">
        <ele>160.39999389648</ele>
        <time>2013-06-08T12:44:51Z</time>
      </trkpt>
      <trkpt lat="43.44598" lon="6.20013">
        <ele>160.39999389648</ele>
        <time>2013-06-08T12:44:55Z</time>
      </trkpt>
      <trkpt lat="43.44624" lon="6.20034">
        <ele>160.39999389648</ele>
        <time>2013-06-08T12:45:01Z</time>
      </trkpt>
      <trkpt lat="43.44632" lon="6.20038">
        <ele>160</ele>
        <time>2013-06-08T12:45:03Z</time>
      </trkpt>
      <trkpt lat="43.44648" lon="6.20043">
        <ele>158.19999694824</ele>
        <time>2013-06-08T12:45:07Z</time>
      </trkpt>
      <trkpt lat="43.44664" lon="6.20048">
        <ele>158.19999694824</ele>
        <time>2013-06-08T12:45:11Z</time>
      </trkpt>
      <trkpt lat="43.44676" lon="6.20049">
        <ele>158.19999694824</ele>
        <time>2013-06-08T12:45:14Z</time>
      </trkpt>
      <trkpt lat="43.44689" lon="6.20044">
        <ele>158.19999694824</ele>
        <time>2013-06-08T12:45:17Z</time>
      </trkpt>
      <trkpt lat="43.44693" lon="6.20042">
        <ele>158.19999694824</ele>
        <time>2013-06-08T12:45:18Z</time>
      </trkpt>
      <trkpt lat="43.44709" lon="6.20019">
        <ele>160.39999389648</ele>
        <time>2013-06-08T12:45:23Z</time>
      </trkpt>
      <trkpt lat="43.44711" lon="6.20013">
        <ele>160.39999389648</ele>
        <time>2013-06-08T12:45:24Z</time>
      </trkpt>
      <trkpt lat="43.44718" lon="6.19995">
        <ele>160.39999389648</ele>
        <time>2013-06-08T12:45:27Z</time>
      </trkpt>
      <trkpt lat="43.44734" lon="6.19954">
        <ele>160.39999389648</ele>
        <time>2013-06-08T12:45:34Z</time>
      </trkpt>
      <trkpt lat="43.4475" lon="6.1989">
        <ele>158.19999694824</ele>
        <time>2013-06-08T12:45:44Z</time>
      </trkpt>
      <trkpt lat="43.44755" lon="6.19879">
        <ele>158.19999694824</ele>
        <time>2013-06-08T12:45:46Z</time>
      </trkpt>
      <trkpt lat="43.44786" lon="6.19827">
        <ele>159.80000305176</ele>
        <time>2013-06-08T12:45:56Z</time>
      </trkpt>
      <trkpt lat="43.44789" lon="6.19822">
        <ele>160.19999694824</ele>
        <time>2013-06-08T12:45:57Z</time>
      </trkpt>
      <trkpt lat="43.44806" lon="6.19797">
        <ele>160.19999694824</ele>
        <time>2013-06-08T12:46:02Z</time>
      </trkpt>
      <trkpt lat="43.44818" lon="6.19786">
        <ele>160.19999694824</ele>
        <time>2013-06-08T12:46:05Z</time>
      </trkpt>
      <trkpt lat="43.44827" lon="6.19783">
        <ele>160.19999694824</ele>
        <time>2013-06-08T12:46:07Z</time>
      </trkpt>
      <trkpt lat="43.44842" lon="6.19782">
        <ele>160.19999694824</ele>
        <time>2013-06-08T12:46:10Z</time>
      </trkpt>
      <trkpt lat="43.44852" lon="6.19786">
        <ele>160.19999694824</ele>
        <time>2013-06-08T12:46:12Z</time>
      </trkpt>
      <trkpt lat="43.44871" lon="6.19806">
        <ele>160.19999694824</ele>
        <time>2013-06-08T12:46:17Z</time>
      </trkpt>
      <trkpt lat="43.44881" lon="6.19822">
        <ele>160.19999694824</ele>
        <time>2013-06-08T12:46:20Z</time>
      </trkpt>
      <trkpt lat="43.44888" lon="6.19842">
        <ele>160.19999694824</ele>
        <time>2013-06-08T12:46:23Z</time>
      </trkpt>
      <trkpt lat="43.44891" lon="6.19856">
        <ele>160.19999694824</ele>
        <time>2013-06-08T12:46:25Z</time>
      </trkpt>
      <trkpt lat="43.44896" lon="6.19884">
        <ele>160.19999694824</ele>
        <time>2013-06-08T12:46:29Z</time>
      </trkpt>
      <trkpt lat="43.44905" lon="6.19931">
        <ele>160.19999694824</ele>
        <time>2013-06-08T12:46:36Z</time>
      </trkpt>
      <trkpt lat="43.44915" lon="6.19985">
        <ele>160.19999694824</ele>
        <time>2013-06-08T12:46:44Z</time>
      </trkpt>
      <trkpt lat="43.44925" lon="6.20043">
        <ele>160.19999694824</ele>
        <time>2013-06-08T12:46:52Z</time>
      </trkpt>
      <trkpt lat="43.44925" lon="6.2005">
        <ele>160.19999694824</ele>
        <time>2013-06-08T12:46:53Z</time>
      </trkpt>
      <trkpt lat="43.44927" lon="6.20087">
        <ele>160.19999694824</ele>
        <time>2013-06-08T12:46:58Z</time>
      </trkpt>
      <trkpt lat="43.44928" lon="6.20146">
        <ele>160.19999694824</ele>
        <time>2013-06-08T12:47:06Z</time>
      </trkpt>
      <trkpt lat="43.4493" lon="6.20268">
        <ele>158.19999694824</ele>
        <time>2013-06-08T12:47:23Z</time>
      </trkpt>
      <trkpt lat="43.44936" lon="6.20316">
        <ele>158.19999694824</ele>
        <time>2013-06-08T12:47:30Z</time>
      </trkpt>
      <trkpt lat="43.44953" lon="6.20407">
        <ele>158.19999694824</ele>
        <time>2013-06-08T12:47:43Z</time>
      </trkpt>
      <trkpt lat="43.44958" lon="6.20457">
        <ele>158.19999694824</ele>
        <time>2013-06-08T12:47:50Z</time>
      </trkpt>
      <trkpt lat="43.44964" lon="6.20492">
        <ele>158.19999694824</ele>
        <time>2013-06-08T12:47:55Z</time>
      </trkpt>
      <trkpt lat="43.44981" lon="6.20552">
        <ele>158.19999694824</ele>
        <time>2013-06-08T12:48:04Z</time>
      </trkpt>
      <trkpt lat="43.44991" lon="6.20601">
        <ele>158.19999694824</ele>
        <time>2013-06-08T12:48:11Z</time>
      </trkpt>
      <trkpt lat="43.45005" lon="6.20639">
        <ele>158.19999694824</ele>
        <time>2013-06-08T12:48:17Z</time>
      </trkpt>
      <trkpt lat="43.45024" lon="6.20681">
        <ele>160.39999389648</ele>
        <time>2013-06-08T12:48:24Z</time>
      </trkpt>
      <trkpt lat="43.4503" lon="6.20701">
        <ele>159.39999389648</ele>
        <time>2013-06-08T12:48:27Z</time>
      </trkpt>
      <trkpt lat="43.45035" lon="6.20721">
        <ele>158</ele>
        <time>2013-06-08T12:48:30Z</time>
      </trkpt>
      <trkpt lat="43.45051" lon="6.2078">
        <ele>158</ele>
        <time>2013-06-08T12:48:39Z</time>
      </trkpt>
      <trkpt lat="43.45061" lon="6.20817">
        <ele>158</ele>
        <time>2013-06-08T12:48:46Z</time>
      </trkpt>
      <trkpt lat="43.4507" lon="6.20847">
        <ele>158</ele>
        <time>2013-06-08T12:48:52Z</time>
      </trkpt>
      <trkpt lat="43.45081" lon="6.20878">
        <ele>158</ele>
        <time>2013-06-08T12:48:58Z</time>
      </trkpt>
      <trkpt lat="43.45095" lon="6.20912">
        <ele>158</ele>
        <time>2013-06-08T12:49:04Z</time>
      </trkpt>
      <trkpt lat="43.45108" lon="6.20954">
        <ele>158</ele>
        <time>2013-06-08T12:49:11Z</time>
      </trkpt>
      <trkpt lat="43.45116" lon="6.21008">
        <ele>160</ele>
        <time>2013-06-08T12:49:20Z</time>
      </trkpt>
      <trkpt lat="43.45122" lon="6.21031">
        <ele>159.80000305176</ele>
        <time>2013-06-08T12:49:24Z</time>
      </trkpt>
      <trkpt lat="43.45126" lon="6.21048">
        <ele>158.39999389648</ele>
        <time>2013-06-08T12:49:27Z</time>
      </trkpt>
      <trkpt lat="43.45129" lon="6.2106">
        <ele>158.39999389648</ele>
        <time>2013-06-08T12:49:29Z</time>
      </trkpt>
      <trkpt lat="43.45132" lon="6.21098">
        <ele>158.39999389648</ele>
        <time>2013-06-08T12:49:35Z</time>
      </trkpt>
      <trkpt lat="43.45136" lon="6.21139">
        <ele>158.39999389648</ele>
        <time>2013-06-08T12:49:41Z</time>
      </trkpt>
      <trkpt lat="43.45142" lon="6.21185">
        <ele>159</ele>
        <time>2013-06-08T12:49:48Z</time>
      </trkpt>
      <trkpt lat="43.45164" lon="6.21266">
        <ele>160.60000610352</ele>
        <time>2013-06-08T12:50:02Z</time>
      </trkpt>
      <trkpt lat="43.4517" lon="6.21282">
        <ele>159.19999694824</ele>
        <time>2013-06-08T12:50:05Z</time>
      </trkpt>
      <trkpt lat="43.45174" lon="6.21292">
        <ele>160</ele>
        <time>2013-06-08T12:50:07Z</time>
      </trkpt>
      <trkpt lat="43.45181" lon="6.21307">
        <ele>161.19999694824</ele>
        <time>2013-06-08T12:50:10Z</time>
      </trkpt>
      <trkpt lat="43.452" lon="6.21338">
        <ele>161.19999694824</ele>
        <time>2013-06-08T12:50:17Z</time>
      </trkpt>
      <trkpt lat="43.45219" lon="6.21362">
        <ele>160.80000305176</ele>
        <time>2013-06-08T12:50:23Z</time>
      </trkpt>
      <trkpt lat="43.45247" lon="6.21398">
        <ele>159.19999694824</ele>
        <time>2013-06-08T12:50:31Z</time>
      </trkpt>
      <trkpt lat="43.45266" lon="6.21421">
        <ele>159.60000610352</ele>
        <time>2013-06-08T12:50:36Z</time>
      </trkpt>
      <trkpt lat="43.4527" lon="6.21425">
        <ele>160</ele>
        <time>2013-06-08T12:50:37Z</time>
      </trkpt>
      <trkpt lat="43.45278" lon="6.21434">
        <ele>161.39999389648</ele>
        <time>2013-06-08T12:50:39Z</time>
      </trkpt>
      <trkpt lat="43.45289" lon="6.21446">
        <ele>160.80000305176</ele>
        <time>2013-06-08T12:50:42Z</time>
      </trkpt>
      <trkpt lat="43.45293" lon="6.21449">
        <ele>160.39999389648</ele>
        <time>2013-06-08T12:50:43Z</time>
      </trkpt>
      <trkpt lat="43.45307" lon="6.21454">
        <ele>158.80000305176</ele>
        <time>2013-06-08T12:50:46Z</time>
      </trkpt>
      <trkpt lat="43.45322" lon="6.21455">
        <ele>158.80000305176</ele>
        <time>2013-06-08T12:50:49Z</time>
      </trkpt>
      <trkpt lat="43.45326" lon="6.21454">
        <ele>158.80000305176</ele>
        <time>2013-06-08T12:50:50Z</time>
      </trkpt>
      <trkpt lat="43.45346" lon="6.21449">
        <ele>158.80000305176</ele>
        <time>2013-06-08T12:50:55Z</time>
      </trkpt>
      <trkpt lat="43.45354" lon="6.21445">
        <ele>158.80000305176</ele>
        <time>2013-06-08T12:50:57Z</time>
      </trkpt>
      <trkpt lat="43.45365" lon="6.21433">
        <ele>158.80000305176</ele>
        <time>2013-06-08T12:51:00Z</time>
      </trkpt>
      <trkpt lat="43.45382" lon="6.21412">
        <ele>158.80000305176</ele>
        <time>2013-06-08T12:51:05Z</time>
      </trkpt>
      <trkpt lat="43.4539" lon="6.21407">
        <ele>158.80000305176</ele>
        <time>2013-06-08T12:51:07Z</time>
      </trkpt>
      <trkpt lat="43.45417" lon="6.21396">
        <ele>158.80000305176</ele>
        <time>2013-06-08T12:51:13Z</time>
      </trkpt>
      <trkpt lat="43.45436" lon="6.21397">
        <ele>158.80000305176</ele>
        <time>2013-06-08T12:51:17Z</time>
      </trkpt>
      <trkpt lat="43.45448" lon="6.21403">
        <ele>158.80000305176</ele>
        <time>2013-06-08T12:51:20Z</time>
      </trkpt>
      <trkpt lat="43.45459" lon="6.21415">
        <ele>158.80000305176</ele>
        <time>2013-06-08T12:51:23Z</time>
      </trkpt>
      <trkpt lat="43.45465" lon="6.21424">
        <ele>158.80000305176</ele>
        <time>2013-06-08T12:51:25Z</time>
      </trkpt>
      <trkpt lat="43.45472" lon="6.21442">
        <ele>158.80000305176</ele>
        <time>2013-06-08T12:51:28Z</time>
      </trkpt>
      <trkpt lat="43.45481" lon="6.21482">
        <ele>158.80000305176</ele>
        <time>2013-06-08T12:51:34Z</time>
      </trkpt>
      <trkpt lat="43.45486" lon="6.21501">
        <ele>158.80000305176</ele>
        <time>2013-06-08T12:51:37Z</time>
      </trkpt>
      <trkpt lat="43.45497" lon="6.21524">
        <ele>158.80000305176</ele>
        <time>2013-06-08T12:51:41Z</time>
      </trkpt>
      <trkpt lat="43.45516" lon="6.21539">
        <ele>158.80000305176</ele>
        <time>2013-06-08T12:51:46Z</time>
      </trkpt>
      <trkpt lat="43.45525" lon="6.21542">
        <ele>158.80000305176</ele>
        <time>2013-06-08T12:51:48Z</time>
      </trkpt>
      <trkpt lat="43.45542" lon="6.21544">
        <ele>158.80000305176</ele>
        <time>2013-06-08T12:51:52Z</time>
      </trkpt>
      <trkpt lat="43.45563" lon="6.21546">
        <ele>158.80000305176</ele>
        <time>2013-06-08T12:51:57Z</time>
      </trkpt>
      <trkpt lat="43.45581" lon="6.21546">
        <ele>158.80000305176</ele>
        <time>2013-06-08T12:52:01Z</time>
      </trkpt>
      <trkpt lat="43.4559" lon="6.21546">
        <ele>158.80000305176</ele>
        <time>2013-06-08T12:52:03Z</time>
      </trkpt>
      <trkpt lat="43.4561" lon="6.21538">
        <ele>158.80000305176</ele>
        <time>2013-06-08T12:52:08Z</time>
      </trkpt>
      <trkpt lat="43.45621" lon="6.21528">
        <ele>158.80000305176</ele>
        <time>2013-06-08T12:52:11Z</time>
      </trkpt>
      <trkpt lat="43.45628" lon="6.21518">
        <ele>158.80000305176</ele>
        <time>2013-06-08T12:52:13Z</time>
      </trkpt>
      <trkpt lat="43.45633" lon="6.21508">
        <ele>158.80000305176</ele>
        <time>2013-06-08T12:52:15Z</time>
      </trkpt>
      <trkpt lat="43.45637" lon="6.21491">
        <ele>158.80000305176</ele>
        <time>2013-06-08T12:52:18Z</time>
      </trkpt>
      <trkpt lat="43.45635" lon="6.21463">
        <ele>158.80000305176</ele>
        <time>2013-06-08T12:52:23Z</time>
      </trkpt>
      <trkpt lat="43.45623" lon="6.21425">
        <ele>158.80000305176</ele>
        <time>2013-06-08T12:52:30Z</time>
      </trkpt>
      <trkpt lat="43.45616" lon="6.21374">
        <ele>158.80000305176</ele>
        <time>2013-06-08T12:52:38Z</time>
      </trkpt>
      <trkpt lat="43.45606" lon="6.21352">
        <ele>158.80000305176</ele>
        <time>2013-06-08T12:52:42Z</time>
      </trkpt>
      <trkpt lat="43.456" lon="6.2134">
        <ele>158.80000305176</ele>
        <time>2013-06-08T12:52:44Z</time>
      </trkpt>
      <trkpt lat="43.45595" lon="6.21316">
        <ele>158.80000305176</ele>
        <time>2013-06-08T12:52:48Z</time>
      </trkpt>
      <trkpt lat="43.45599" lon="6.21291">
        <ele>158.80000305176</ele>
        <time>2013-06-08T12:52:52Z</time>
      </trkpt>
      <trkpt lat="43.45607" lon="6.2125">
        <ele>158.80000305176</ele>
        <time>2013-06-08T12:52:59Z</time>
      </trkpt>
      <trkpt lat="43.45617" lon="6.21206">
        <ele>158.80000305176</ele>
        <time>2013-06-08T12:53:05Z</time>
      </trkpt>
      <trkpt lat="43.45626" lon="6.21158">
        <ele>158.80000305176</ele>
        <time>2013-06-08T12:53:12Z</time>
      </trkpt>
      <trkpt lat="43.45639" lon="6.21054">
        <ele>158.80000305176</ele>
        <time>2013-06-08T12:53:26Z</time>
      </trkpt>
      <trkpt lat="43.45645" lon="6.20996">
        <ele>158.80000305176</ele>
        <time>2013-06-08T12:53:34Z</time>
      </trkpt>
      <trkpt lat="43.45651" lon="6.20949">
        <ele>158.80000305176</ele>
        <time>2013-06-08T12:53:41Z</time>
      </trkpt>
      <trkpt lat="43.45662" lon="6.20919">
        <ele>158.80000305176</ele>
        <time>2013-06-08T12:53:46Z</time>
      </trkpt>
      <trkpt lat="43.45681" lon="6.20893">
        <ele>158.80000305176</ele>
        <time>2013-06-08T12:53:51Z</time>
      </trkpt>
      <trkpt lat="43.45708" lon="6.20873">
        <ele>158.80000305176</ele>
        <time>2013-06-08T12:53:57Z</time>
      </trkpt>
      <trkpt lat="43.45737" lon="6.20859">
        <ele>158.80000305176</ele>
        <time>2013-06-08T12:54:03Z</time>
      </trkpt>
      <trkpt lat="43.45797" lon="6.20856">
        <ele>158.80000305176</ele>
        <time>2013-06-08T12:54:15Z</time>
      </trkpt>
      <trkpt lat="43.45801" lon="6.20856">
        <ele>158.80000305176</ele>
        <time>2013-06-08T12:54:16Z</time>
      </trkpt>
      <trkpt lat="43.45831" lon="6.20844">
        <ele>158.80000305176</ele>
        <time>2013-06-08T12:54:22Z</time>
      </trkpt>
      <trkpt lat="43.4587" lon="6.20828">
        <ele>158.80000305176</ele>
        <time>2013-06-08T12:54:30Z</time>
      </trkpt>
      <trkpt lat="43.45876" lon="6.20828">
        <ele>158.80000305176</ele>
        <time>2013-06-08T12:54:31Z</time>
      </trkpt>
      <trkpt lat="43.45895" lon="6.20833">
        <ele>158.80000305176</ele>
        <time>2013-06-08T12:54:35Z</time>
      </trkpt>
      <trkpt lat="43.45899" lon="6.20836">
        <ele>158.80000305176</ele>
        <time>2013-06-08T12:54:36Z</time>
      </trkpt>
      <trkpt lat="43.45909" lon="6.20844">
        <ele>158.80000305176</ele>
        <time>2013-06-08T12:54:38Z</time>
      </trkpt>
      <trkpt lat="43.45916" lon="6.20853">
        <ele>158.80000305176</ele>
        <time>2013-06-08T12:54:40Z</time>
      </trkpt>
      <trkpt lat="43.45927" lon="6.20869">
        <ele>158.80000305176</ele>
        <time>2013-06-08T12:54:43Z</time>
      </trkpt>
      <trkpt lat="43.45951" lon="6.20912">
        <ele>158.80000305176</ele>
        <time>2013-06-08T12:54:51Z</time>
      </trkpt>
      <trkpt lat="43.45965" lon="6.20953">
        <ele>158.80000305176</ele>
        <time>2013-06-08T12:54:58Z</time>
      </trkpt>
      <trkpt lat="43.45971" lon="6.20989">
        <ele>158.80000305176</ele>
        <time>2013-06-08T12:55:04Z</time>
      </trkpt>
      <trkpt lat="43.4598" lon="6.21017">
        <ele>158.80000305176</ele>
        <time>2013-06-08T12:55:09Z</time>
      </trkpt>
      <trkpt lat="43.45998" lon="6.21059">
        <ele>158.80000305176</ele>
        <time>2013-06-08T12:55:17Z</time>
      </trkpt>
      <trkpt lat="43.46018" lon="6.21097">
        <ele>158.80000305176</ele>
        <time>2013-06-08T12:55:24Z</time>
      </trkpt>
      <trkpt lat="43.46046" lon="6.21139">
        <ele>158.80000305176</ele>
        <time>2013-06-08T12:55:32Z</time>
      </trkpt>
      <trkpt lat="43.4608" lon="6.21178">
        <ele>158.80000305176</ele>
        <time>2013-06-08T12:55:41Z</time>
      </trkpt>
      <trkpt lat="43.46103" lon="6.21197">
        <ele>158.80000305176</ele>
        <time>2013-06-08T12:55:45Z</time>
      </trkpt>
      <trkpt lat="43.46107" lon="6.212">
        <ele>158.80000305176</ele>
        <time>2013-06-08T12:55:47Z</time>
      </trkpt>
      <trkpt lat="43.46125" lon="6.21209">
        <ele>158.80000305176</ele>
        <time>2013-06-08T12:55:51Z</time>
      </trkpt>
      <trkpt lat="43.46134" lon="6.21211">
        <ele>158.80000305176</ele>
        <time>2013-06-08T12:55:53Z</time>
      </trkpt>
      <trkpt lat="43.46167" lon="6.21216">
        <ele>158.80000305176</ele>
        <time>2013-06-08T12:56:00Z</time>
      </trkpt>
      <trkpt lat="43.46207" lon="6.21218">
        <ele>158.80000305176</ele>
        <time>2013-06-08T12:56:08Z</time>
      </trkpt>
      <trkpt lat="43.46252" lon="6.21211">
        <ele>158.80000305176</ele>
        <time>2013-06-08T12:56:17Z</time>
      </trkpt>
      <trkpt lat="43.46267" lon="6.21214">
        <ele>158.80000305176</ele>
        <time>2013-06-08T12:56:20Z</time>
      </trkpt>
      <trkpt lat="43.463" lon="6.21225">
        <ele>158.80000305176</ele>
        <time>2013-06-08T12:56:27Z</time>
      </trkpt>
      <trkpt lat="43.46312" lon="6.21224">
        <ele>158.80000305176</ele>
        <time>2013-06-08T12:56:30Z</time>
      </trkpt>
      <trkpt lat="43.46321" lon="6.21221">
        <ele>158.80000305176</ele>
        <time>2013-06-08T12:56:32Z</time>
      </trkpt>
      <trkpt lat="43.46324" lon="6.21218">
        <ele>158.80000305176</ele>
        <time>2013-06-08T12:56:33Z</time>
      </trkpt>
      <trkpt lat="43.46338" lon="6.21204">
        <ele>158.80000305176</ele>
        <time>2013-06-08T12:56:37Z</time>
      </trkpt>
      <trkpt lat="43.46375" lon="6.21168">
        <ele>158.80000305176</ele>
        <time>2013-06-08T12:56:46Z</time>
      </trkpt>
      <trkpt lat="43.46385" lon="6.21161">
        <ele>158.80000305176</ele>
        <time>2013-06-08T12:56:48Z</time>
      </trkpt>
      <trkpt lat="43.46405" lon="6.21152">
        <ele>158.80000305176</ele>
        <time>2013-06-08T12:56:52Z</time>
      </trkpt>
      <trkpt lat="43.46438" lon="6.21133">
        <ele>158.80000305176</ele>
        <time>2013-06-08T12:56:59Z</time>
      </trkpt>
      <trkpt lat="43.46454" lon="6.21121">
        <ele>158.80000305176</ele>
        <time>2013-06-08T12:57:03Z</time>
      </trkpt>
      <trkpt lat="43.46463" lon="6.21117">
        <ele>158.80000305176</ele>
        <time>2013-06-08T12:57:05Z</time>
      </trkpt>
      <trkpt lat="43.46503" lon="6.211">
        <ele>158</ele>
        <time>2013-06-08T12:57:13Z</time>
      </trkpt>
      <trkpt lat="43.46516" lon="6.21086">
        <ele>156.60000610352</ele>
        <time>2013-06-08T12:57:16Z</time>
      </trkpt>
      <trkpt lat="43.46524" lon="6.21074">
        <ele>156.60000610352</ele>
        <time>2013-06-08T12:57:18Z</time>
      </trkpt>
      <trkpt lat="43.46536" lon="6.21055">
        <ele>156.60000610352</ele>
        <time>2013-06-08T12:57:21Z</time>
      </trkpt>
      <trkpt lat="43.46547" lon="6.21044">
        <ele>155.80000305176</ele>
        <time>2013-06-08T12:57:23Z</time>
      </trkpt>
      <trkpt lat="43.46552" lon="6.21039">
        <ele>155.19999694824</ele>
        <time>2013-06-08T12:57:24Z</time>
      </trkpt>
      <trkpt lat="43.46558" lon="6.21035">
        <ele>154.80000305176</ele>
        <time>2013-06-08T12:57:25Z</time>
      </trkpt>
      <trkpt lat="43.46571" lon="6.21028">
        <ele>154.39999389648</ele>
        <time>2013-06-08T12:57:27Z</time>
      </trkpt>
      <trkpt lat="43.46577" lon="6.21025">
        <ele>154.39999389648</ele>
        <time>2013-06-08T12:57:28Z</time>
      </trkpt>
      <trkpt lat="43.46611" lon="6.21011">
        <ele>154</ele>
        <time>2013-06-08T12:57:33Z</time>
      </trkpt>
      <trkpt lat="43.46626" lon="6.20996">
        <ele>152.60000610352</ele>
        <time>2013-06-08T12:57:36Z</time>
      </trkpt>
      <trkpt lat="43.4663" lon="6.2099">
        <ele>152.19999694824</ele>
        <time>2013-06-08T12:57:37Z</time>
      </trkpt>
      <trkpt lat="43.46641" lon="6.20974">
        <ele>152.19999694824</ele>
        <time>2013-06-08T12:57:40Z</time>
      </trkpt>
      <trkpt lat="43.46647" lon="6.20964">
        <ele>152.19999694824</ele>
        <time>2013-06-08T12:57:42Z</time>
      </trkpt>
      <trkpt lat="43.46669" lon="6.20928">
        <ele>152.19999694824</ele>
        <time>2013-06-08T12:57:49Z</time>
      </trkpt>
      <trkpt lat="43.46687" lon="6.20908">
        <ele>152.19999694824</ele>
        <time>2013-06-08T12:57:53Z</time>
      </trkpt>
      <trkpt lat="43.46696" lon="6.20899">
        <ele>152.19999694824</ele>
        <time>2013-06-08T12:57:55Z</time>
      </trkpt>
      <trkpt lat="43.46722" lon="6.20874">
        <ele>152.19999694824</ele>
        <time>2013-06-08T12:58:01Z</time>
      </trkpt>
      <trkpt lat="43.46726" lon="6.2087">
        <ele>152.19999694824</ele>
        <time>2013-06-08T12:58:02Z</time>
      </trkpt>
      <trkpt lat="43.46744" lon="6.20849">
        <ele>152.19999694824</ele>
        <time>2013-06-08T12:58:07Z</time>
      </trkpt>
      <trkpt lat="43.46747" lon="6.20845">
        <ele>152.19999694824</ele>
        <time>2013-06-08T12:58:08Z</time>
      </trkpt>
      <trkpt lat="43.4675" lon="6.2084">
        <ele>152.19999694824</ele>
        <time>2013-06-08T12:58:09Z</time>
      </trkpt>
      <trkpt lat="43.46753" lon="6.20836">
        <ele>152.19999694824</ele>
        <time>2013-06-08T12:58:10Z</time>
      </trkpt>
      <trkpt lat="43.46764" lon="6.20811">
        <ele>152.19999694824</ele>
        <time>2013-06-08T12:58:14Z</time>
      </trkpt>
      <trkpt lat="43.46773" lon="6.20786">
        <ele>151.80000305176</ele>
        <time>2013-06-08T12:58:17Z</time>
      </trkpt>
      <trkpt lat="43.46777" lon="6.20777">
        <ele>151.39999389648</ele>
        <time>2013-06-08T12:58:18Z</time>
      </trkpt>
      <trkpt lat="43.4678" lon="6.20767">
        <ele>150.60000610352</ele>
        <time>2013-06-08T12:58:19Z</time>
      </trkpt>
      <trkpt lat="43.46783" lon="6.20757">
        <ele>150</ele>
        <time>2013-06-08T12:58:20Z</time>
      </trkpt>
      <trkpt lat="43.46786" lon="6.20747">
        <ele>149.39999389648</ele>
        <time>2013-06-08T12:58:21Z</time>
      </trkpt>
      <trkpt lat="43.46791" lon="6.20725">
        <ele>148</ele>
        <time>2013-06-08T12:58:23Z</time>
      </trkpt>
      <trkpt lat="43.46796" lon="6.20703">
        <ele>147.60000610352</ele>
        <time>2013-06-08T12:58:25Z</time>
      </trkpt>
      <trkpt lat="43.46799" lon="6.20692">
        <ele>147</ele>
        <time>2013-06-08T12:58:26Z</time>
      </trkpt>
      <trkpt lat="43.46801" lon="6.20682">
        <ele>146</ele>
        <time>2013-06-08T12:58:27Z</time>
      </trkpt>
      <trkpt lat="43.46805" lon="6.20673">
        <ele>145.60000610352</ele>
        <time>2013-06-08T12:58:28Z</time>
      </trkpt>
      <trkpt lat="43.46809" lon="6.20664">
        <ele>145.60000610352</ele>
        <time>2013-06-08T12:58:29Z</time>
      </trkpt>
      <trkpt lat="43.4683" lon="6.20628">
        <ele>145.60000610352</ele>
        <time>2013-06-08T12:58:34Z</time>
      </trkpt>
      <trkpt lat="43.46843" lon="6.20605">
        <ele>145.60000610352</ele>
        <time>2013-06-08T12:58:38Z</time>
      </trkpt>
      <trkpt lat="43.46851" lon="6.20592">
        <ele>146.60000610352</ele>
        <time>2013-06-08T12:58:41Z</time>
      </trkpt>
      <trkpt lat="43.46857" lon="6.20585">
        <ele>147.39999389648</ele>
        <time>2013-06-08T12:58:43Z</time>
      </trkpt>
      <trkpt lat="43.46866" lon="6.20574">
        <ele>148</ele>
        <time>2013-06-08T12:58:46Z</time>
      </trkpt>
      <trkpt lat="43.46872" lon="6.20567">
        <ele>148</ele>
        <time>2013-06-08T12:58:48Z</time>
      </trkpt>
      <trkpt lat="43.46877" lon="6.20559">
        <ele>148</ele>
        <time>2013-06-08T12:58:50Z</time>
      </trkpt>
      <trkpt lat="43.46886" lon="6.20543">
        <ele>148.80000305176</ele>
        <time>2013-06-08T12:58:54Z</time>
      </trkpt>
      <trkpt lat="43.46894" lon="6.20531">
        <ele>150</ele>
        <time>2013-06-08T12:58:57Z</time>
      </trkpt>
      <trkpt lat="43.46904" lon="6.20503">
        <ele>150.39999389648</ele>
        <time>2013-06-08T12:59:03Z</time>
      </trkpt>
      <trkpt lat="43.4692" lon="6.20449">
        <ele>154.80000305176</ele>
        <time>2013-06-08T12:59:14Z</time>
      </trkpt>
      <trkpt lat="43.46929" lon="6.20428">
        <ele>154.80000305176</ele>
        <time>2013-06-08T12:59:19Z</time>
      </trkpt>
      <trkpt lat="43.46953" lon="6.20367">
        <ele>154.39999389648</ele>
        <time>2013-06-08T12:59:30Z</time>
      </trkpt>
      <trkpt lat="43.46962" lon="6.20341">
        <ele>152.80000305176</ele>
        <time>2013-06-08T12:59:34Z</time>
      </trkpt>
      <trkpt lat="43.46979" lon="6.20295">
        <ele>152.80000305176</ele>
        <time>2013-06-08T12:59:41Z</time>
      </trkpt>
      <trkpt lat="43.46994" lon="6.20254">
        <ele>152.80000305176</ele>
        <time>2013-06-08T12:59:47Z</time>
      </trkpt>
      <trkpt lat="43.4701" lon="6.20206">
        <ele>152.80000305176</ele>
        <time>2013-06-08T12:59:54Z</time>
      </trkpt>
      <trkpt lat="43.47017" lon="6.20187">
        <ele>152.80000305176</ele>
        <time>2013-06-08T12:59:57Z</time>
      </trkpt>
      <trkpt lat="43.47038" lon="6.20151">
        <ele>152.39999389648</ele>
        <time>2013-06-08T13:00:03Z</time>
      </trkpt>
      <trkpt lat="43.47042" lon="6.20145">
        <ele>152</ele>
        <time>2013-06-08T13:00:04Z</time>
      </trkpt>
      <trkpt lat="43.47051" lon="6.20133">
        <ele>150.80000305176</ele>
        <time>2013-06-08T13:00:06Z</time>
      </trkpt>
      <trkpt lat="43.47065" lon="6.20117">
        <ele>150.80000305176</ele>
        <time>2013-06-08T13:00:09Z</time>
      </trkpt>
      <trkpt lat="43.47076" lon="6.20101">
        <ele>150.80000305176</ele>
        <time>2013-06-08T13:00:12Z</time>
      </trkpt>
      <trkpt lat="43.47086" lon="6.20087">
        <ele>150.80000305176</ele>
        <time>2013-06-08T13:00:15Z</time>
      </trkpt>
      <trkpt lat="43.47093" lon="6.20073">
        <ele>150.80000305176</ele>
        <time>2013-06-08T13:00:18Z</time>
      </trkpt>
      <trkpt lat="43.47092" lon="6.20055">
        <ele>150.80000305176</ele>
        <time>2013-06-08T13:00:21Z</time>
      </trkpt>
      <trkpt lat="43.47089" lon="6.20036">
        <ele>150.80000305176</ele>
        <time>2013-06-08T13:00:24Z</time>
      </trkpt>
      <trkpt lat="43.47082" lon="6.20005">
        <ele>150.80000305176</ele>
        <time>2013-06-08T13:00:29Z</time>
      </trkpt>
      <trkpt lat="43.47077" lon="6.19974">
        <ele>150.80000305176</ele>
        <time>2013-06-08T13:00:34Z</time>
      </trkpt>
      <trkpt lat="43.47073" lon="6.19956">
        <ele>150.80000305176</ele>
        <time>2013-06-08T13:00:37Z</time>
      </trkpt>
      <trkpt lat="43.47065" lon="6.199">
        <ele>151.60000610352</ele>
        <time>2013-06-08T13:00:47Z</time>
      </trkpt>
      <trkpt lat="43.47065" lon="6.19895">
        <ele>152</ele>
        <time>2013-06-08T13:00:48Z</time>
      </trkpt>
      <trkpt lat="43.47063" lon="6.19885">
        <ele>152.80000305176</ele>
        <time>2013-06-08T13:00:50Z</time>
      </trkpt>
      <trkpt lat="43.47063" lon="6.1987">
        <ele>152.80000305176</ele>
        <time>2013-06-08T13:00:53Z</time>
      </trkpt>
      <trkpt lat="43.47063" lon="6.1984">
        <ele>152.80000305176</ele>
        <time>2013-06-08T13:00:58Z</time>
      </trkpt>
      <trkpt lat="43.47062" lon="6.19821">
        <ele>152.80000305176</ele>
        <time>2013-06-08T13:01:01Z</time>
      </trkpt>
      <trkpt lat="43.47061" lon="6.19783">
        <ele>152.80000305176</ele>
        <time>2013-06-08T13:01:07Z</time>
      </trkpt>
      <trkpt lat="43.47059" lon="6.19754">
        <ele>152</ele>
        <time>2013-06-08T13:01:12Z</time>
      </trkpt>
      <trkpt lat="43.47058" lon="6.19748">
        <ele>151.60000610352</ele>
        <time>2013-06-08T13:01:13Z</time>
      </trkpt>
      <trkpt lat="43.47052" lon="6.19727">
        <ele>150.80000305176</ele>
        <time>2013-06-08T13:01:17Z</time>
      </trkpt>
      <trkpt lat="43.47034" lon="6.19707">
        <ele>150.80000305176</ele>
        <time>2013-06-08T13:01:22Z</time>
      </trkpt>
      <trkpt lat="43.47007" lon="6.19692">
        <ele>150.80000305176</ele>
        <time>2013-06-08T13:01:28Z</time>
      </trkpt>
      <trkpt lat="43.46969" lon="6.19669">
        <ele>150.80000305176</ele>
        <time>2013-06-08T13:01:36Z</time>
      </trkpt>
      <trkpt lat="43.46931" lon="6.19645">
        <ele>150.39999389648</ele>
        <time>2013-06-08T13:01:44Z</time>
      </trkpt>
      <trkpt lat="43.46915" lon="6.19635">
        <ele>148.60000610352</ele>
        <time>2013-06-08T13:01:47Z</time>
      </trkpt>
      <trkpt lat="43.46906" lon="6.19626">
        <ele>148.60000610352</ele>
        <time>2013-06-08T13:01:49Z</time>
      </trkpt>
      <trkpt lat="43.46891" lon="6.196">
        <ele>148.19999694824</ele>
        <time>2013-06-08T13:01:53Z</time>
      </trkpt>
      <trkpt lat="43.46886" lon="6.19582">
        <ele>147.39999389648</ele>
        <time>2013-06-08T13:01:55Z</time>
      </trkpt>
      <trkpt lat="43.46884" lon="6.19573">
        <ele>147</ele>
        <time>2013-06-08T13:01:56Z</time>
      </trkpt>
      <trkpt lat="43.46883" lon="6.19565">
        <ele>146.39999389648</ele>
        <time>2013-06-08T13:01:57Z</time>
      </trkpt>
      <trkpt lat="43.46886" lon="6.19558">
        <ele>146</ele>
        <time>2013-06-08T13:01:58Z</time>
      </trkpt>
      <trkpt lat="43.469" lon="6.19551">
        <ele>145</ele>
        <time>2013-06-08T13:02:00Z</time>
      </trkpt>
      <trkpt lat="43.46907" lon="6.1955">
        <ele>144.39999389648</ele>
        <time>2013-06-08T13:02:01Z</time>
      </trkpt>
      <trkpt lat="43.4693" lon="6.19554">
        <ele>143.60000610352</ele>
        <time>2013-06-08T13:02:04Z</time>
      </trkpt>
      <trkpt lat="43.46939" lon="6.19556">
        <ele>143.19999694824</ele>
        <time>2013-06-08T13:02:05Z</time>
      </trkpt>
      <trkpt lat="43.46965" lon="6.19553">
        <ele>142.39999389648</ele>
        <time>2013-06-08T13:02:08Z</time>
      </trkpt>
      <trkpt lat="43.4698" lon="6.19543">
        <ele>141.19999694824</ele>
        <time>2013-06-08T13:02:10Z</time>
      </trkpt>
      <trkpt lat="43.47013" lon="6.1951">
        <ele>139.80000305176</ele>
        <time>2013-06-08T13:02:15Z</time>
      </trkpt>
      <trkpt lat="43.4702" lon="6.19505">
        <ele>139.19999694824</ele>
        <time>2013-06-08T13:02:16Z</time>
      </trkpt>
      <trkpt lat="43.47035" lon="6.19496">
        <ele>138.19999694824</ele>
        <time>2013-06-08T13:02:18Z</time>
      </trkpt>
      <trkpt lat="43.47068" lon="6.19485">
        <ele>135.80000305176</ele>
        <time>2013-06-08T13:02:22Z</time>
      </trkpt>
      <trkpt lat="43.47094" lon="6.19476">
        <ele>134.39999389648</ele>
        <time>2013-06-08T13:02:25Z</time>
      </trkpt>
      <trkpt lat="43.47111" lon="6.19466">
        <ele>133.39999389648</ele>
        <time>2013-06-08T13:02:27Z</time>
      </trkpt>
      <trkpt lat="43.47119" lon="6.1946">
        <ele>133</ele>
        <time>2013-06-08T13:02:28Z</time>
      </trkpt>
      <trkpt lat="43.47127" lon="6.19455">
        <ele>132.39999389648</ele>
        <time>2013-06-08T13:02:29Z</time>
      </trkpt>
      <trkpt lat="43.47143" lon="6.19448">
        <ele>131.39999389648</ele>
        <time>2013-06-08T13:02:31Z</time>
      </trkpt>
      <trkpt lat="43.47175" lon="6.19443">
        <ele>130</ele>
        <time>2013-06-08T13:02:35Z</time>
      </trkpt>
      <trkpt lat="43.47182" lon="6.19444">
        <ele>129.39999389648</ele>
        <time>2013-06-08T13:02:36Z</time>
      </trkpt>
      <trkpt lat="43.47206" lon="6.1945">
        <ele>128</ele>
        <time>2013-06-08T13:02:39Z</time>
      </trkpt>
      <trkpt lat="43.47214" lon="6.1945">
        <ele>127.59999847412</ele>
        <time>2013-06-08T13:02:40Z</time>
      </trkpt>
      <trkpt lat="43.47222" lon="6.19449">
        <ele>127</ele>
        <time>2013-06-08T13:02:41Z</time>
      </trkpt>
      <trkpt lat="43.47242" lon="6.19435">
        <ele>125.80000305176</ele>
        <time>2013-06-08T13:02:44Z</time>
      </trkpt>
      <trkpt lat="43.47265" lon="6.19408">
        <ele>124</ele>
        <time>2013-06-08T13:02:48Z</time>
      </trkpt>
      <trkpt lat="43.47297" lon="6.19361">
        <ele>123.59999847412</ele>
        <time>2013-06-08T13:02:54Z</time>
      </trkpt>
      <trkpt lat="43.47306" lon="6.19344">
        <ele>122.59999847412</ele>
        <time>2013-06-08T13:02:56Z</time>
      </trkpt>
      <trkpt lat="43.47315" lon="6.19327">
        <ele>121.59999847412</ele>
        <time>2013-06-08T13:02:58Z</time>
      </trkpt>
      <trkpt lat="43.47323" lon="6.1931">
        <ele>121.19999694824</ele>
        <time>2013-06-08T13:03:00Z</time>
      </trkpt>
      <trkpt lat="43.4733" lon="6.19292">
        <ele>120.19999694824</ele>
        <time>2013-06-08T13:03:02Z</time>
      </trkpt>
      <trkpt lat="43.47336" lon="6.19276">
        <ele>119.40000152588</ele>
        <time>2013-06-08T13:03:04Z</time>
      </trkpt>
      <trkpt lat="43.47341" lon="6.19262">
        <ele>119.40000152588</ele>
        <time>2013-06-08T13:03:06Z</time>
      </trkpt>
      <trkpt lat="43.47351" lon="6.1923">
        <ele>119.40000152588</ele>
        <time>2013-06-08T13:03:11Z</time>
      </trkpt>
      <trkpt lat="43.47353" lon="6.19223">
        <ele>119.40000152588</ele>
        <time>2013-06-08T13:03:12Z</time>
      </trkpt>
      <trkpt lat="43.47359" lon="6.19195">
        <ele>119.40000152588</ele>
        <time>2013-06-08T13:03:17Z</time>
      </trkpt>
      <trkpt lat="43.4737" lon="6.19154">
        <ele>119.40000152588</ele>
        <time>2013-06-08T13:03:24Z</time>
      </trkpt>
      <trkpt lat="43.4738" lon="6.19112">
        <ele>119.40000152588</ele>
        <time>2013-06-08T13:03:32Z</time>
      </trkpt>
      <trkpt lat="43.47385" lon="6.19088">
        <ele>119.40000152588</ele>
        <time>2013-06-08T13:03:37Z</time>
      </trkpt>
      <trkpt lat="43.47387" lon="6.19073">
        <ele>119.40000152588</ele>
        <time>2013-06-08T13:03:40Z</time>
      </trkpt>
      <trkpt lat="43.47399" lon="6.19017">
        <ele>120.19999694824</ele>
        <time>2013-06-08T13:03:50Z</time>
      </trkpt>
      <trkpt lat="43.474" lon="6.19011">
        <ele>120.59999847412</ele>
        <time>2013-06-08T13:03:51Z</time>
      </trkpt>
      <trkpt lat="43.47404" lon="6.18997">
        <ele>121.40000152588</ele>
        <time>2013-06-08T13:03:53Z</time>
      </trkpt>
      <trkpt lat="43.47413" lon="6.18957">
        <ele>121</ele>
        <time>2013-06-08T13:03:59Z</time>
      </trkpt>
      <trkpt lat="43.47415" lon="6.1895">
        <ele>120.40000152588</ele>
        <time>2013-06-08T13:04:00Z</time>
      </trkpt>
      <trkpt lat="43.47425" lon="6.18905">
        <ele>119.19999694824</ele>
        <time>2013-06-08T13:04:08Z</time>
      </trkpt>
      <trkpt lat="43.47429" lon="6.18872">
        <ele>119.19999694824</ele>
        <time>2013-06-08T13:04:14Z</time>
      </trkpt>
      <trkpt lat="43.47429" lon="6.18846">
        <ele>119.19999694824</ele>
        <time>2013-06-08T13:04:19Z</time>
      </trkpt>
      <trkpt lat="43.47426" lon="6.18816">
        <ele>119.19999694824</ele>
        <time>2013-06-08T13:04:25Z</time>
      </trkpt>
      <trkpt lat="43.47417" lon="6.18784">
        <ele>119.19999694824</ele>
        <time>2013-06-08T13:04:32Z</time>
      </trkpt>
      <trkpt lat="43.47403" lon="6.18747">
        <ele>119.19999694824</ele>
        <time>2013-06-08T13:04:39Z</time>
      </trkpt>
      <trkpt lat="43.47388" lon="6.1871">
        <ele>119.19999694824</ele>
        <time>2013-06-08T13:04:46Z</time>
      </trkpt>
      <trkpt lat="43.47378" lon="6.18682">
        <ele>119.19999694824</ele>
        <time>2013-06-08T13:04:52Z</time>
      </trkpt>
      <trkpt lat="43.47368" lon="6.18655">
        <ele>119.59999847412</ele>
        <time>2013-06-08T13:04:59Z</time>
      </trkpt>
      <trkpt lat="43.47366" lon="6.18652">
        <ele>120</ele>
        <time>2013-06-08T13:05:00Z</time>
      </trkpt>
      <trkpt lat="43.47361" lon="6.18648">
        <ele>121</ele>
        <time>2013-06-08T13:05:02Z</time>
      </trkpt>
      <trkpt lat="43.47356" lon="6.18647">
        <ele>121.40000152588</ele>
        <time>2013-06-08T13:05:04Z</time>
      </trkpt>
      <trkpt lat="43.47335" lon="6.18653">
        <ele>121.40000152588</ele>
        <time>2013-06-08T13:05:11Z</time>
      </trkpt>
      <trkpt lat="43.47326" lon="6.18654">
        <ele>121.40000152588</ele>
        <time>2013-06-08T13:05:14Z</time>
      </trkpt>
      <trkpt lat="43.47324" lon="6.18656">
        <ele>121.40000152588</ele>
        <time>2013-06-08T13:05:15Z</time>
      </trkpt>
      <trkpt lat="43.47322" lon="6.18659">
        <ele>121.40000152588</ele>
        <time>2013-06-08T13:05:17Z</time>
      </trkpt>
      <trkpt lat="43.47326" lon="6.18666">
        <ele>121.40000152588</ele>
        <time>2013-06-08T13:05:20Z</time>
      </trkpt>
      <trkpt lat="43.47329" lon="6.18675">
        <ele>121.40000152588</ele>
        <time>2013-06-08T13:05:25Z</time>
      </trkpt>
      <trkpt lat="43.47327" lon="6.18681">
        <ele>121.40000152588</ele>
        <time>2013-06-08T13:05:29Z</time>
      </trkpt>
      <trkpt lat="43.47322" lon="6.18682">
        <ele>121.40000152588</ele>
        <time>2013-06-08T13:05:31Z</time>
      </trkpt>
      <trkpt lat="43.47305" lon="6.18681">
        <ele>121.40000152588</ele>
        <time>2013-06-08T13:05:37Z</time>
      </trkpt>
      <trkpt lat="43.47289" lon="6.18679">
        <ele>121.40000152588</ele>
        <time>2013-06-08T13:05:42Z</time>
      </trkpt>
      <trkpt lat="43.47282" lon="6.18678">
        <ele>121.40000152588</ele>
        <time>2013-06-08T13:05:44Z</time>
      </trkpt>
      <trkpt lat="43.47264" lon="6.18677">
        <ele>121.40000152588</ele>
        <time>2013-06-08T13:05:50Z</time>
      </trkpt>
      <trkpt lat="43.47258" lon="6.18676">
        <ele>121.80000305176</ele>
        <time>2013-06-08T13:05:52Z</time>
      </trkpt>
      <trkpt lat="43.47249" lon="6.18674">
        <ele>123.19999694824</ele>
        <time>2013-06-08T13:05:55Z</time>
      </trkpt>
      <trkpt lat="43.47227" lon="6.18667">
        <ele>124</ele>
        <time>2013-06-08T13:06:04Z</time>
      </trkpt>
      <trkpt lat="43.47218" lon="6.18666">
        <ele>126</ele>
        <time>2013-06-08T13:06:08Z</time>
      </trkpt>
      <trkpt lat="43.47207" lon="6.18667">
        <ele>126</ele>
        <time>2013-06-08T13:06:13Z</time>
      </trkpt>
      <trkpt lat="43.472" lon="6.1867">
        <ele>126.40000152588</ele>
        <time>2013-06-08T13:06:16Z</time>
      </trkpt>
      <trkpt lat="43.47194" lon="6.18673">
        <ele>128.19999694824</ele>
        <time>2013-06-08T13:06:19Z</time>
      </trkpt>
      <trkpt lat="43.47189" lon="6.18674">
        <ele>128.19999694824</ele>
        <time>2013-06-08T13:06:22Z</time>
      </trkpt>
      <trkpt lat="43.47184" lon="6.18676">
        <ele>128.80000305176</ele>
        <time>2013-06-08T13:06:25Z</time>
      </trkpt>
      <trkpt lat="43.47183" lon="6.18676">
        <ele>129.19999694824</ele>
        <time>2013-06-08T13:06:26Z</time>
      </trkpt>
      <trkpt lat="43.47179" lon="6.18679">
        <ele>130.39999389648</ele>
        <time>2013-06-08T13:06:29Z</time>
      </trkpt>
      <trkpt lat="43.47171" lon="6.18685">
        <ele>130.39999389648</ele>
        <time>2013-06-08T13:06:36Z</time>
      </trkpt>
      <trkpt lat="43.4717" lon="6.18687">
        <ele>130.39999389648</ele>
        <time>2013-06-08T13:06:37Z</time>
      </trkpt>
      <trkpt lat="43.47159" lon="6.18702">
        <ele>132.60000610352</ele>
        <time>2013-06-08T13:06:46Z</time>
      </trkpt>
      <trkpt lat="43.47143" lon="6.18714">
        <ele>135</ele>
        <time>2013-06-08T13:06:55Z</time>
      </trkpt>
      <trkpt lat="43.47127" lon="6.1872">
        <ele>135</ele>
        <time>2013-06-08T13:07:03Z</time>
      </trkpt>
      <trkpt lat="43.47117" lon="6.18724">
        <ele>135</ele>
        <time>2013-06-08T13:07:07Z</time>
      </trkpt>
      <trkpt lat="43.47108" lon="6.1873">
        <ele>135</ele>
        <time>2013-06-08T13:07:10Z</time>
      </trkpt>
      <trkpt lat="43.4709" lon="6.18742">
        <ele>135</ele>
        <time>2013-06-08T13:07:15Z</time>
      </trkpt>
      <trkpt lat="43.47084" lon="6.18747">
        <ele>135</ele>
        <time>2013-06-08T13:07:17Z</time>
      </trkpt>
      <trkpt lat="43.47071" lon="6.18756">
        <ele>134.60000610352</ele>
        <time>2013-06-08T13:07:20Z</time>
      </trkpt>
      <trkpt lat="43.4706" lon="6.18761">
        <ele>133.60000610352</ele>
        <time>2013-06-08T13:07:22Z</time>
      </trkpt>
      <trkpt lat="43.47048" lon="6.18765">
        <ele>132.80000305176</ele>
        <time>2013-06-08T13:07:24Z</time>
      </trkpt>
      <trkpt lat="43.47029" lon="6.18771">
        <ele>132.80000305176</ele>
        <time>2013-06-08T13:07:27Z</time>
      </trkpt>
      <trkpt lat="43.47018" lon="6.18778">
        <ele>132.19999694824</ele>
        <time>2013-06-08T13:07:29Z</time>
      </trkpt>
      <trkpt lat="43.47009" lon="6.18787">
        <ele>131.19999694824</ele>
        <time>2013-06-08T13:07:31Z</time>
      </trkpt>
      <trkpt lat="43.47005" lon="6.18793">
        <ele>130.19999694824</ele>
        <time>2013-06-08T13:07:32Z</time>
      </trkpt>
      <trkpt lat="43.46997" lon="6.18811">
        <ele>130.19999694824</ele>
        <time>2013-06-08T13:07:35Z</time>
      </trkpt>
      <trkpt lat="43.46988" lon="6.18842">
        <ele>130.19999694824</ele>
        <time>2013-06-08T13:07:41Z</time>
      </trkpt>
      <trkpt lat="43.46984" lon="6.18854">
        <ele>130.19999694824</ele>
        <time>2013-06-08T13:07:44Z</time>
      </trkpt>
      <trkpt lat="43.4698" lon="6.18868">
        <ele>131</ele>
        <time>2013-06-08T13:07:47Z</time>
      </trkpt>
      <trkpt lat="43.46976" lon="6.1888">
        <ele>132.19999694824</ele>
        <time>2013-06-08T13:07:50Z</time>
      </trkpt>
      <trkpt lat="43.46964" lon="6.18914">
        <ele>132.19999694824</ele>
        <time>2013-06-08T13:07:58Z</time>
      </trkpt>
      <trkpt lat="43.46954" lon="6.18945">
        <ele>132.19999694824</ele>
        <time>2013-06-08T13:08:05Z</time>
      </trkpt>
      <trkpt lat="43.46944" lon="6.1897">
        <ele>132.19999694824</ele>
        <time>2013-06-08T13:08:12Z</time>
      </trkpt>
      <trkpt lat="43.4694" lon="6.18986">
        <ele>133.60000610352</ele>
        <time>2013-06-08T13:08:16Z</time>
      </trkpt>
      <trkpt lat="43.46939" lon="6.18994">
        <ele>134.60000610352</ele>
        <time>2013-06-08T13:08:18Z</time>
      </trkpt>
      <trkpt lat="43.46934" lon="6.19028">
        <ele>134.60000610352</ele>
        <time>2013-06-08T13:08:25Z</time>
      </trkpt>
      <trkpt lat="43.46927" lon="6.19069">
        <ele>134.60000610352</ele>
        <time>2013-06-08T13:08:33Z</time>
      </trkpt>
      <trkpt lat="43.46915" lon="6.19099">
        <ele>134.60000610352</ele>
        <time>2013-06-08T13:08:38Z</time>
      </trkpt>
      <trkpt lat="43.46904" lon="6.19114">
        <ele>134.60000610352</ele>
        <time>2013-06-08T13:08:41Z</time>
      </trkpt>
      <trkpt lat="43.46894" lon="6.19122">
        <ele>134.60000610352</ele>
        <time>2013-06-08T13:08:43Z</time>
      </trkpt>
      <trkpt lat="43.46889" lon="6.19125">
        <ele>134.60000610352</ele>
        <time>2013-06-08T13:08:44Z</time>
      </trkpt>
      <trkpt lat="43.46872" lon="6.19132">
        <ele>133.19999694824</ele>
        <time>2013-06-08T13:08:47Z</time>
      </trkpt>
      <trkpt lat="43.46861" lon="6.19135">
        <ele>132.39999389648</ele>
        <time>2013-06-08T13:08:49Z</time>
      </trkpt>
      <trkpt lat="43.46845" lon="6.19138">
        <ele>132</ele>
        <time>2013-06-08T13:08:51Z</time>
      </trkpt>
      <trkpt lat="43.46836" lon="6.19138">
        <ele>131.60000610352</ele>
        <time>2013-06-08T13:08:52Z</time>
      </trkpt>
      <trkpt lat="43.46827" lon="6.19138">
        <ele>131.19999694824</ele>
        <time>2013-06-08T13:08:53Z</time>
      </trkpt>
      <trkpt lat="43.46819" lon="6.19138">
        <ele>130.80000305176</ele>
        <time>2013-06-08T13:08:54Z</time>
      </trkpt>
      <trkpt lat="43.46811" lon="6.19136">
        <ele>130.39999389648</ele>
        <time>2013-06-08T13:08:55Z</time>
      </trkpt>
      <trkpt lat="43.46795" lon="6.19131">
        <ele>130</ele>
        <time>2013-06-08T13:08:57Z</time>
      </trkpt>
      <trkpt lat="43.46783" lon="6.19126">
        <ele>129</ele>
        <time>2013-06-08T13:08:59Z</time>
      </trkpt>
      <trkpt lat="43.46775" lon="6.19116">
        <ele>128.19999694824</ele>
        <time>2013-06-08T13:09:01Z</time>
      </trkpt>
      <trkpt lat="43.46768" lon="6.19101">
        <ele>127.19999694824</ele>
        <time>2013-06-08T13:09:04Z</time>
      </trkpt>
      <trkpt lat="43.46764" lon="6.19099">
        <ele>126.59999847412</ele>
        <time>2013-06-08T13:09:05Z</time>
      </trkpt>
      <trkpt lat="43.4676" lon="6.19099">
        <ele>126.19999694824</ele>
        <time>2013-06-08T13:09:06Z</time>
      </trkpt>
      <trkpt lat="43.46749" lon="6.19102">
        <ele>125.59999847412</ele>
        <time>2013-06-08T13:09:08Z</time>
      </trkpt>
      <trkpt lat="43.46732" lon="6.19112">
        <ele>124.19999694824</ele>
        <time>2013-06-08T13:09:11Z</time>
      </trkpt>
      <trkpt lat="43.46721" lon="6.19122">
        <ele>123.19999694824</ele>
        <time>2013-06-08T13:09:13Z</time>
      </trkpt>
      <trkpt lat="43.46711" lon="6.19131">
        <ele>123.19999694824</ele>
        <time>2013-06-08T13:09:15Z</time>
      </trkpt>
      <trkpt lat="43.46698" lon="6.19143">
        <ele>123.19999694824</ele>
        <time>2013-06-08T13:09:18Z</time>
      </trkpt>
      <trkpt lat="43.4669" lon="6.19151">
        <ele>123.19999694824</ele>
        <time>2013-06-08T13:09:20Z</time>
      </trkpt>
      <trkpt lat="43.46683" lon="6.19157">
        <ele>123.19999694824</ele>
        <time>2013-06-08T13:09:22Z</time>
      </trkpt>
      <trkpt lat="43.4667" lon="6.19166">
        <ele>123.19999694824</ele>
        <time>2013-06-08T13:09:26Z</time>
      </trkpt>
      <trkpt lat="43.46654" lon="6.19177">
        <ele>123.19999694824</ele>
        <time>2013-06-08T13:09:32Z</time>
      </trkpt>
      <trkpt lat="43.46645" lon="6.19182">
        <ele>123.19999694824</ele>
        <time>2013-06-08T13:09:35Z</time>
      </trkpt>
      <trkpt lat="43.46622" lon="6.19209">
        <ele>123.19999694824</ele>
        <time>2013-06-08T13:09:43Z</time>
      </trkpt>
      <trkpt lat="43.46609" lon="6.19221">
        <ele>123.59999847412</ele>
        <time>2013-06-08T13:09:48Z</time>
      </trkpt>
      <trkpt lat="43.46606" lon="6.19222">
        <ele>124.19999694824</ele>
        <time>2013-06-08T13:09:49Z</time>
      </trkpt>
      <trkpt lat="43.46595" lon="6.19229">
        <ele>125.40000152588</ele>
        <time>2013-06-08T13:09:52Z</time>
      </trkpt>
      <trkpt lat="43.46579" lon="6.19238">
        <ele>125.40000152588</ele>
        <time>2013-06-08T13:09:56Z</time>
      </trkpt>
      <trkpt lat="43.46561" lon="6.19243">
        <ele>125.40000152588</ele>
        <time>2013-06-08T13:10:01Z</time>
      </trkpt>
      <trkpt lat="43.46557" lon="6.19242">
        <ele>125.40000152588</ele>
        <time>2013-06-08T13:10:02Z</time>
      </trkpt>
      <trkpt lat="43.46535" lon="6.19242">
        <ele>125.40000152588</ele>
        <time>2013-06-08T13:10:08Z</time>
      </trkpt>
      <trkpt lat="43.46515" lon="6.19257">
        <ele>125.40000152588</ele>
        <time>2013-06-08T13:10:13Z</time>
      </trkpt>
      <trkpt lat="43.46508" lon="6.19266">
        <ele>125.40000152588</ele>
        <time>2013-06-08T13:10:15Z</time>
      </trkpt>
      <trkpt lat="43.46501" lon="6.19283">
        <ele>125</ele>
        <time>2013-06-08T13:10:18Z</time>
      </trkpt>
      <trkpt lat="43.46497" lon="6.19294">
        <ele>124.19999694824</ele>
        <time>2013-06-08T13:10:20Z</time>
      </trkpt>
      <trkpt lat="43.46492" lon="6.19304">
        <ele>123.40000152588</ele>
        <time>2013-06-08T13:10:22Z</time>
      </trkpt>
      <trkpt lat="43.46486" lon="6.19311">
        <ele>123.40000152588</ele>
        <time>2013-06-08T13:10:24Z</time>
      </trkpt>
      <trkpt lat="43.46469" lon="6.19313">
        <ele>123.40000152588</ele>
        <time>2013-06-08T13:10:28Z</time>
      </trkpt>
      <trkpt lat="43.46458" lon="6.19319">
        <ele>123.40000152588</ele>
        <time>2013-06-08T13:10:31Z</time>
      </trkpt>
      <trkpt lat="43.46445" lon="6.19327">
        <ele>125.19999694824</ele>
        <time>2013-06-08T13:10:35Z</time>
      </trkpt>
      <trkpt lat="43.46435" lon="6.19334">
        <ele>125.59999847412</ele>
        <time>2013-06-08T13:10:39Z</time>
      </trkpt>
      <trkpt lat="43.46422" lon="6.19338">
        <ele>125.59999847412</ele>
        <time>2013-06-08T13:10:44Z</time>
      </trkpt>
      <trkpt lat="43.46411" lon="6.19343">
        <ele>127.59999847412</ele>
        <time>2013-06-08T13:10:49Z</time>
      </trkpt>
      <trkpt lat="43.46403" lon="6.19351">
        <ele>128.60000610352</ele>
        <time>2013-06-08T13:10:53Z</time>
      </trkpt>
      <trkpt lat="43.46401" lon="6.19359">
        <ele>129.80000305176</ele>
        <time>2013-06-08T13:10:56Z</time>
      </trkpt>
      <trkpt lat="43.46402" lon="6.19372">
        <ele>130.60000610352</ele>
        <time>2013-06-08T13:11:00Z</time>
      </trkpt>
      <trkpt lat="43.46404" lon="6.19379">
        <ele>131.60000610352</ele>
        <time>2013-06-08T13:11:02Z</time>
      </trkpt>
      <trkpt lat="43.46407" lon="6.19393">
        <ele>132</ele>
        <time>2013-06-08T13:11:06Z</time>
      </trkpt>
      <trkpt lat="43.46413" lon="6.19419">
        <ele>132</ele>
        <time>2013-06-08T13:11:12Z</time>
      </trkpt>
      <trkpt lat="43.46417" lon="6.1944">
        <ele>132</ele>
        <time>2013-06-08T13:11:17Z</time>
      </trkpt>
      <trkpt lat="43.4642" lon="6.19467">
        <ele>132</ele>
        <time>2013-06-08T13:11:22Z</time>
      </trkpt>
      <trkpt lat="43.4642" lon="6.19473">
        <ele>132</ele>
        <time>2013-06-08T13:11:23Z</time>
      </trkpt>
      <trkpt lat="43.4642" lon="6.19485">
        <ele>132</ele>
        <time>2013-06-08T13:11:25Z</time>
      </trkpt>
      <trkpt lat="43.4642" lon="6.19492">
        <ele>132</ele>
        <time>2013-06-08T13:11:26Z</time>
      </trkpt>
      <trkpt lat="43.46418" lon="6.19508">
        <ele>132</ele>
        <time>2013-06-08T13:11:29Z</time>
      </trkpt>
      <trkpt lat="43.46416" lon="6.19529">
        <ele>132</ele>
        <time>2013-06-08T13:11:34Z</time>
      </trkpt>
      <trkpt lat="43.46413" lon="6.19544">
        <ele>133.80000305176</ele>
        <time>2013-06-08T13:11:38Z</time>
      </trkpt>
      <trkpt lat="43.46412" lon="6.19552">
        <ele>134.19999694824</ele>
        <time>2013-06-08T13:11:40Z</time>
      </trkpt>
      <trkpt lat="43.46411" lon="6.19562">
        <ele>134.19999694824</ele>
        <time>2013-06-08T13:11:43Z</time>
      </trkpt>
      <trkpt lat="43.46409" lon="6.1958">
        <ele>135.19999694824</ele>
        <time>2013-06-08T13:11:49Z</time>
      </trkpt>
      <trkpt lat="43.46407" lon="6.1959">
        <ele>136.60000610352</ele>
        <time>2013-06-08T13:11:52Z</time>
      </trkpt>
      <trkpt lat="43.46402" lon="6.19608">
        <ele>138.19999694824</ele>
        <time>2013-06-08T13:11:59Z</time>
      </trkpt>
      <trkpt lat="43.464" lon="6.19618">
        <ele>139.19999694824</ele>
        <time>2013-06-08T13:12:02Z</time>
      </trkpt>
      <trkpt lat="43.46396" lon="6.1964">
        <ele>139.19999694824</ele>
        <time>2013-06-08T13:12:09Z</time>
      </trkpt>
      <trkpt lat="43.46392" lon="6.19649">
        <ele>139.80000305176</ele>
        <time>2013-06-08T13:12:13Z</time>
      </trkpt>
      <trkpt lat="43.46391" lon="6.19652">
        <ele>140.60000610352</ele>
        <time>2013-06-08T13:12:15Z</time>
      </trkpt>
      <trkpt lat="43.4639" lon="6.19653">
        <ele>141.19999694824</ele>
        <time>2013-06-08T13:12:16Z</time>
      </trkpt>
      <trkpt lat="43.46389" lon="6.19653">
        <ele>141.60000610352</ele>
        <time>2013-06-08T13:12:17Z</time>
      </trkpt>
      <trkpt lat="43.46389" lon="6.19653">
        <ele>141.60000610352</ele>
        <time>2013-06-08T13:12:21Z</time>
      </trkpt>
      <trkpt lat="43.46389" lon="6.19653">
        <ele>141.60000610352</ele>
        <time>2013-06-08T13:12:36Z</time>
      </trkpt>
      <trkpt lat="43.46389" lon="6.19653">
        <ele>141.60000610352</ele>
        <time>2013-06-08T13:12:58Z</time>
      </trkpt>
      <trkpt lat="43.46389" lon="6.19653">
        <ele>141.60000610352</ele>
        <time>2013-06-08T13:13:46Z</time>
      </trkpt>
      <trkpt lat="43.46389" lon="6.19653">
        <ele>141.60000610352</ele>
        <time>2013-06-08T13:14:01Z</time>
      </trkpt>
      <trkpt lat="43.46389" lon="6.19655">
        <ele>141.60000610352</ele>
        <time>2013-06-08T13:14:07Z</time>
      </trkpt>
      <trkpt lat="43.46388" lon="6.19657">
        <ele>141.60000610352</ele>
        <time>2013-06-08T13:14:08Z</time>
      </trkpt>
      <trkpt lat="43.46389" lon="6.19661">
        <ele>141.60000610352</ele>
        <time>2013-06-08T13:14:11Z</time>
      </trkpt>
      <trkpt lat="43.46389" lon="6.19667">
        <ele>141.60000610352</ele>
        <time>2013-06-08T13:14:14Z</time>
      </trkpt>
      <trkpt lat="43.46388" lon="6.19675">
        <ele>141.60000610352</ele>
        <time>2013-06-08T13:14:17Z</time>
      </trkpt>
      <trkpt lat="43.46389" lon="6.19683">
        <ele>141.60000610352</ele>
        <time>2013-06-08T13:14:20Z</time>
      </trkpt>
      <trkpt lat="43.46395" lon="6.19703">
        <ele>143.80000305176</ele>
        <time>2013-06-08T13:14:28Z</time>
      </trkpt>
      <trkpt lat="43.46398" lon="6.19714">
        <ele>143.80000305176</ele>
        <time>2013-06-08T13:14:32Z</time>
      </trkpt>
      <trkpt lat="43.46411" lon="6.19771">
        <ele>146.19999694824</ele>
        <time>2013-06-08T13:14:47Z</time>
      </trkpt>
      <trkpt lat="43.4643" lon="6.19797">
        <ele>146.19999694824</ele>
        <time>2013-06-08T13:14:53Z</time>
      </trkpt>
      <trkpt lat="43.4644" lon="6.19817">
        <ele>145.60000610352</ele>
        <time>2013-06-08T13:14:57Z</time>
      </trkpt>
      <trkpt lat="43.46442" lon="6.19827">
        <ele>144.39999389648</ele>
        <time>2013-06-08T13:14:59Z</time>
      </trkpt>
      <trkpt lat="43.46445" lon="6.19837">
        <ele>144.80000305176</ele>
        <time>2013-06-08T13:15:01Z</time>
      </trkpt>
      <trkpt lat="43.46447" lon="6.19842">
        <ele>145.19999694824</ele>
        <time>2013-06-08T13:15:02Z</time>
      </trkpt>
      <trkpt lat="43.46453" lon="6.19853">
        <ele>145.60000610352</ele>
        <time>2013-06-08T13:15:05Z</time>
      </trkpt>
      <trkpt lat="43.46455" lon="6.19858">
        <ele>145.60000610352</ele>
        <time>2013-06-08T13:15:06Z</time>
      </trkpt>
      <trkpt lat="43.46458" lon="6.19876">
        <ele>145.60000610352</ele>
        <time>2013-06-08T13:15:09Z</time>
      </trkpt>
      <trkpt lat="43.46465" lon="6.19902">
        <ele>145.60000610352</ele>
        <time>2013-06-08T13:15:15Z</time>
      </trkpt>
      <trkpt lat="43.46481" lon="6.19914">
        <ele>145.60000610352</ele>
        <time>2013-06-08T13:15:19Z</time>
      </trkpt>
      <trkpt lat="43.46486" lon="6.19919">
        <ele>145.60000610352</ele>
        <time>2013-06-08T13:15:20Z</time>
      </trkpt>
      <trkpt lat="43.46495" lon="6.19935">
        <ele>145.60000610352</ele>
        <time>2013-06-08T13:15:23Z</time>
      </trkpt>
      <trkpt lat="43.46507" lon="6.19966">
        <ele>145.60000610352</ele>
        <time>2013-06-08T13:15:29Z</time>
      </trkpt>
      <trkpt lat="43.46516" lon="6.19998">
        <ele>145.60000610352</ele>
        <time>2013-06-08T13:15:35Z</time>
      </trkpt>
      <trkpt lat="43.46526" lon="6.20023">
        <ele>145.60000610352</ele>
        <time>2013-06-08T13:15:40Z</time>
      </trkpt>
      <trkpt lat="43.46538" lon="6.20041">
        <ele>146.80000305176</ele>
        <time>2013-06-08T13:15:45Z</time>
      </trkpt>
      <trkpt lat="43.46544" lon="6.20048">
        <ele>147.60000610352</ele>
        <time>2013-06-08T13:15:47Z</time>
      </trkpt>
      <trkpt lat="43.46564" lon="6.20069">
        <ele>147.60000610352</ele>
        <time>2013-06-08T13:15:54Z</time>
      </trkpt>
      <trkpt lat="43.46582" lon="6.20088">
        <ele>149</ele>
        <time>2013-06-08T13:16:01Z</time>
      </trkpt>
      <trkpt lat="43.46593" lon="6.20094">
        <ele>148.60000610352</ele>
        <time>2013-06-08T13:16:04Z</time>
      </trkpt>
      <trkpt lat="43.46615" lon="6.20099">
        <ele>148.60000610352</ele>
        <time>2013-06-08T13:16:11Z</time>
      </trkpt>
      <trkpt lat="43.46618" lon="6.20101">
        <ele>149</ele>
        <time>2013-06-08T13:16:12Z</time>
      </trkpt>
      <trkpt lat="43.46624" lon="6.20105">
        <ele>149.80000305176</ele>
        <time>2013-06-08T13:16:14Z</time>
      </trkpt>
      <trkpt lat="43.46626" lon="6.20109">
        <ele>149.80000305176</ele>
        <time>2013-06-08T13:16:15Z</time>
      </trkpt>
      <trkpt lat="43.46636" lon="6.20143">
        <ele>149.80000305176</ele>
        <time>2013-06-08T13:16:22Z</time>
      </trkpt>
      <trkpt lat="43.46644" lon="6.20164">
        <ele>149.80000305176</ele>
        <time>2013-06-08T13:16:27Z</time>
      </trkpt>
      <trkpt lat="43.46652" lon="6.20189">
        <ele>149.80000305176</ele>
        <time>2013-06-08T13:16:33Z</time>
      </trkpt>
      <trkpt lat="43.46658" lon="6.20209">
        <ele>150.39999389648</ele>
        <time>2013-06-08T13:16:38Z</time>
      </trkpt>
      <trkpt lat="43.46658" lon="6.2022">
        <ele>151.80000305176</ele>
        <time>2013-06-08T13:16:41Z</time>
      </trkpt>
      <trkpt lat="43.46658" lon="6.20224">
        <ele>152.19999694824</ele>
        <time>2013-06-08T13:16:42Z</time>
      </trkpt>
      <trkpt lat="43.46659" lon="6.20235">
        <ele>152.19999694824</ele>
        <time>2013-06-08T13:16:45Z</time>
      </trkpt>
      <trkpt lat="43.46663" lon="6.20262">
        <ele>152.19999694824</ele>
        <time>2013-06-08T13:16:51Z</time>
      </trkpt>
      <trkpt lat="43.46665" lon="6.20282">
        <ele>152.19999694824</ele>
        <time>2013-06-08T13:16:54Z</time>
      </trkpt>
      <trkpt lat="43.46665" lon="6.20295">
        <ele>152.19999694824</ele>
        <time>2013-06-08T13:16:56Z</time>
      </trkpt>
      <trkpt lat="43.46666" lon="6.20313">
        <ele>152.19999694824</ele>
        <time>2013-06-08T13:16:59Z</time>
      </trkpt>
      <trkpt lat="43.46667" lon="6.20325">
        <ele>152.19999694824</ele>
        <time>2013-06-08T13:17:01Z</time>
      </trkpt>
      <trkpt lat="43.46668" lon="6.20332">
        <ele>152.19999694824</ele>
        <time>2013-06-08T13:17:02Z</time>
      </trkpt>
      <trkpt lat="43.46675" lon="6.2038">
        <ele>152.19999694824</ele>
        <time>2013-06-08T13:17:09Z</time>
      </trkpt>
      <trkpt lat="43.46683" lon="6.2041">
        <ele>152.19999694824</ele>
        <time>2013-06-08T13:17:14Z</time>
      </trkpt>
      <trkpt lat="43.46685" lon="6.20422">
        <ele>152.19999694824</ele>
        <time>2013-06-08T13:17:16Z</time>
      </trkpt>
      <trkpt lat="43.46692" lon="6.20458">
        <ele>152.19999694824</ele>
        <time>2013-06-08T13:17:22Z</time>
      </trkpt>
      <trkpt lat="43.46693" lon="6.20469">
        <ele>152.19999694824</ele>
        <time>2013-06-08T13:17:24Z</time>
      </trkpt>
      <trkpt lat="43.46696" lon="6.20518">
        <ele>152.19999694824</ele>
        <time>2013-06-08T13:17:34Z</time>
      </trkpt>
      <trkpt lat="43.46694" lon="6.20536">
        <ele>152.19999694824</ele>
        <time>2013-06-08T13:17:38Z</time>
      </trkpt>
      <trkpt lat="43.46687" lon="6.2057">
        <ele>152.19999694824</ele>
        <time>2013-06-08T13:17:45Z</time>
      </trkpt>
      <trkpt lat="43.46678" lon="6.20593">
        <ele>152.19999694824</ele>
        <time>2013-06-08T13:17:50Z</time>
      </trkpt>
      <trkpt lat="43.46651" lon="6.20629">
        <ele>152.19999694824</ele>
        <time>2013-06-08T13:18:01Z</time>
      </trkpt>
      <trkpt lat="43.46628" lon="6.20655">
        <ele>153.39999389648</ele>
        <time>2013-06-08T13:18:09Z</time>
      </trkpt>
      <trkpt lat="43.46605" lon="6.20677">
        <ele>154.19999694824</ele>
        <time>2013-06-08T13:18:16Z</time>
      </trkpt>
      <trkpt lat="43.46588" lon="6.20693">
        <ele>154.19999694824</ele>
        <time>2013-06-08T13:18:21Z</time>
      </trkpt>
      <trkpt lat="43.46574" lon="6.20709">
        <ele>154.19999694824</ele>
        <time>2013-06-08T13:18:26Z</time>
      </trkpt>
      <trkpt lat="43.4656" lon="6.20716">
        <ele>154.19999694824</ele>
        <time>2013-06-08T13:18:31Z</time>
      </trkpt>
      <trkpt lat="43.46528" lon="6.20721">
        <ele>156.19999694824</ele>
        <time>2013-06-08T13:18:39Z</time>
      </trkpt>
      <trkpt lat="43.46516" lon="6.2072">
        <ele>156.60000610352</ele>
        <time>2013-06-08T13:18:43Z</time>
      </trkpt>
      <trkpt lat="43.46502" lon="6.20728">
        <ele>156.60000610352</ele>
        <time>2013-06-08T13:18:48Z</time>
      </trkpt>
      <trkpt lat="43.46496" lon="6.20748">
        <ele>156.60000610352</ele>
        <time>2013-06-08T13:18:53Z</time>
      </trkpt>
      <trkpt lat="43.4649" lon="6.20769">
        <ele>158.80000305176</ele>
        <time>2013-06-08T13:18:59Z</time>
      </trkpt>
      <trkpt lat="43.46482" lon="6.20786">
        <ele>158.80000305176</ele>
        <time>2013-06-08T13:19:06Z</time>
      </trkpt>
      <trkpt lat="43.46471" lon="6.20809">
        <ele>161.39999389648</ele>
        <time>2013-06-08T13:19:12Z</time>
      </trkpt>
      <trkpt lat="43.46463" lon="6.2083">
        <ele>161.39999389648</ele>
        <time>2013-06-08T13:19:16Z</time>
      </trkpt>
      <trkpt lat="43.46459" lon="6.20839">
        <ele>160.39999389648</ele>
        <time>2013-06-08T13:19:18Z</time>
      </trkpt>
      <trkpt lat="43.46454" lon="6.20847">
        <ele>159.39999389648</ele>
        <time>2013-06-08T13:19:20Z</time>
      </trkpt>
      <trkpt lat="43.46448" lon="6.20854">
        <ele>159</ele>
        <time>2013-06-08T13:19:22Z</time>
      </trkpt>
      <trkpt lat="43.46426" lon="6.20874">
        <ele>159</ele>
        <time>2013-06-08T13:19:29Z</time>
      </trkpt>
      <trkpt lat="43.46408" lon="6.20884">
        <ele>159</ele>
        <time>2013-06-08T13:19:33Z</time>
      </trkpt>
      <trkpt lat="43.46403" lon="6.20888">
        <ele>159</ele>
        <time>2013-06-08T13:19:34Z</time>
      </trkpt>
      <trkpt lat="43.4639" lon="6.20901">
        <ele>159</ele>
        <time>2013-06-08T13:19:37Z</time>
      </trkpt>
      <trkpt lat="43.46378" lon="6.20909">
        <ele>159</ele>
        <time>2013-06-08T13:19:40Z</time>
      </trkpt>
      <trkpt lat="43.46364" lon="6.20906">
        <ele>159</ele>
        <time>2013-06-08T13:19:44Z</time>
      </trkpt>
      <trkpt lat="43.4635" lon="6.20901">
        <ele>159</ele>
        <time>2013-06-08T13:19:49Z</time>
      </trkpt>
      <trkpt lat="43.46317" lon="6.20892">
        <ele>159</ele>
        <time>2013-06-08T13:19:57Z</time>
      </trkpt>
      <trkpt lat="43.46302" lon="6.20891">
        <ele>159</ele>
        <time>2013-06-08T13:20:00Z</time>
      </trkpt>
      <trkpt lat="43.46287" lon="6.20893">
        <ele>159</ele>
        <time>2013-06-08T13:20:03Z</time>
      </trkpt>
      <trkpt lat="43.46282" lon="6.20892">
        <ele>159</ele>
        <time>2013-06-08T13:20:04Z</time>
      </trkpt>
      <trkpt lat="43.46255" lon="6.20891">
        <ele>159</ele>
        <time>2013-06-08T13:20:10Z</time>
      </trkpt>
      <trkpt lat="43.46227" lon="6.20887">
        <ele>159</ele>
        <time>2013-06-08T13:20:17Z</time>
      </trkpt>
      <trkpt lat="43.4621" lon="6.20883">
        <ele>159</ele>
        <time>2013-06-08T13:20:22Z</time>
      </trkpt>
      <trkpt lat="43.46194" lon="6.20879">
        <ele>159</ele>
        <time>2013-06-08T13:20:27Z</time>
      </trkpt>
      <trkpt lat="43.46184" lon="6.20876">
        <ele>159</ele>
        <time>2013-06-08T13:20:31Z</time>
      </trkpt>
      <trkpt lat="43.46175" lon="6.2087">
        <ele>159</ele>
        <time>2013-06-08T13:20:36Z</time>
      </trkpt>
      <trkpt lat="43.46171" lon="6.20868">
        <ele>159.80000305176</ele>
        <time>2013-06-08T13:20:38Z</time>
      </trkpt>
      <trkpt lat="43.46168" lon="6.20866">
        <ele>161</ele>
        <time>2013-06-08T13:20:40Z</time>
      </trkpt>
      <trkpt lat="43.46164" lon="6.20864">
        <ele>161</ele>
        <time>2013-06-08T13:20:42Z</time>
      </trkpt>
      <trkpt lat="43.46159" lon="6.20862">
        <ele>161</ele>
        <time>2013-06-08T13:20:45Z</time>
      </trkpt>
      <trkpt lat="43.46157" lon="6.2086">
        <ele>161</ele>
        <time>2013-06-08T13:20:47Z</time>
      </trkpt>
      <trkpt lat="43.46155" lon="6.20859">
        <ele>161</ele>
        <time>2013-06-08T13:20:52Z</time>
      </trkpt>
      <trkpt lat="43.46153" lon="6.20852">
        <ele>161</ele>
        <time>2013-06-08T13:20:58Z</time>
      </trkpt>
      <trkpt lat="43.46148" lon="6.20829">
        <ele>161</ele>
        <time>2013-06-08T13:21:11Z</time>
      </trkpt>
      <trkpt lat="43.46145" lon="6.20815">
        <ele>161</ele>
        <time>2013-06-08T13:21:16Z</time>
      </trkpt>
      <trkpt lat="43.46138" lon="6.20788">
        <ele>161</ele>
        <time>2013-06-08T13:21:22Z</time>
      </trkpt>
      <trkpt lat="43.46135" lon="6.20775">
        <ele>161</ele>
        <time>2013-06-08T13:21:24Z</time>
      </trkpt>
      <trkpt lat="43.46126" lon="6.20758">
        <ele>161</ele>
        <time>2013-06-08T13:21:27Z</time>
      </trkpt>
      <trkpt lat="43.46122" lon="6.20752">
        <ele>160.60000610352</ele>
        <time>2013-06-08T13:21:28Z</time>
      </trkpt>
      <trkpt lat="43.46115" lon="6.2074">
        <ele>159.80000305176</ele>
        <time>2013-06-08T13:21:30Z</time>
      </trkpt>
      <trkpt lat="43.46109" lon="6.20727">
        <ele>159</ele>
        <time>2013-06-08T13:21:32Z</time>
      </trkpt>
      <trkpt lat="43.46103" lon="6.20716">
        <ele>159</ele>
        <time>2013-06-08T13:21:34Z</time>
      </trkpt>
      <trkpt lat="43.46094" lon="6.207">
        <ele>159</ele>
        <time>2013-06-08T13:21:37Z</time>
      </trkpt>
      <trkpt lat="43.4608" lon="6.20677">
        <ele>159</ele>
        <time>2013-06-08T13:21:42Z</time>
      </trkpt>
      <trkpt lat="43.46064" lon="6.20656">
        <ele>159</ele>
        <time>2013-06-08T13:21:47Z</time>
      </trkpt>
      <trkpt lat="43.46049" lon="6.20635">
        <ele>159</ele>
        <time>2013-06-08T13:21:52Z</time>
      </trkpt>
      <trkpt lat="43.46032" lon="6.20615">
        <ele>159</ele>
        <time>2013-06-08T13:21:57Z</time>
      </trkpt>
      <trkpt lat="43.46005" lon="6.20597">
        <ele>159</ele>
        <time>2013-06-08T13:22:04Z</time>
      </trkpt>
      <trkpt lat="43.45977" lon="6.20583">
        <ele>159</ele>
        <time>2013-06-08T13:22:11Z</time>
      </trkpt>
      <trkpt lat="43.45953" lon="6.2057">
        <ele>159</ele>
        <time>2013-06-08T13:22:17Z</time>
      </trkpt>
      <trkpt lat="43.4592" lon="6.20561">
        <ele>159</ele>
        <time>2013-06-08T13:22:25Z</time>
      </trkpt>
      <trkpt lat="43.45894" lon="6.20557">
        <ele>159</ele>
        <time>2013-06-08T13:22:31Z</time>
      </trkpt>
      <trkpt lat="43.4586" lon="6.20556">
        <ele>159</ele>
        <time>2013-06-08T13:22:39Z</time>
      </trkpt>
      <trkpt lat="43.45841" lon="6.20556">
        <ele>159</ele>
        <time>2013-06-08T13:22:44Z</time>
      </trkpt>
      <trkpt lat="43.458" lon="6.20571">
        <ele>159</ele>
        <time>2013-06-08T13:22:54Z</time>
      </trkpt>
      <trkpt lat="43.45774" lon="6.20581">
        <ele>159</ele>
        <time>2013-06-08T13:23:01Z</time>
      </trkpt>
      <trkpt lat="43.45756" lon="6.20583">
        <ele>159</ele>
        <time>2013-06-08T13:23:05Z</time>
      </trkpt>
      <trkpt lat="43.45747" lon="6.20585">
        <ele>159</ele>
        <time>2013-06-08T13:23:07Z</time>
      </trkpt>
      <trkpt lat="43.45735" lon="6.20589">
        <ele>159</ele>
        <time>2013-06-08T13:23:10Z</time>
      </trkpt>
      <trkpt lat="43.45719" lon="6.20593">
        <ele>159</ele>
        <time>2013-06-08T13:23:14Z</time>
      </trkpt>
      <trkpt lat="43.45696" lon="6.20593">
        <ele>159</ele>
        <time>2013-06-08T13:23:20Z</time>
      </trkpt>
      <trkpt lat="43.45655" lon="6.206">
        <ele>159</ele>
        <time>2013-06-08T13:23:30Z</time>
      </trkpt>
      <trkpt lat="43.45644" lon="6.20607">
        <ele>159</ele>
        <time>2013-06-08T13:23:33Z</time>
      </trkpt>
      <trkpt lat="43.45641" lon="6.2061">
        <ele>159</ele>
        <time>2013-06-08T13:23:34Z</time>
      </trkpt>
      <trkpt lat="43.45618" lon="6.20642">
        <ele>159</ele>
        <time>2013-06-08T13:23:42Z</time>
      </trkpt>
      <trkpt lat="43.45599" lon="6.2066">
        <ele>159</ele>
        <time>2013-06-08T13:23:48Z</time>
      </trkpt>
      <trkpt lat="43.45578" lon="6.20675">
        <ele>159</ele>
        <time>2013-06-08T13:23:54Z</time>
      </trkpt>
      <trkpt lat="43.4556" lon="6.20684">
        <ele>159</ele>
        <time>2013-06-08T13:23:59Z</time>
      </trkpt>
      <trkpt lat="43.45544" lon="6.20696">
        <ele>159</ele>
        <time>2013-06-08T13:24:04Z</time>
      </trkpt>
      <trkpt lat="43.45533" lon="6.20707">
        <ele>159</ele>
        <time>2013-06-08T13:24:07Z</time>
      </trkpt>
      <trkpt lat="43.45522" lon="6.20719">
        <ele>159</ele>
        <time>2013-06-08T13:24:10Z</time>
      </trkpt>
      <trkpt lat="43.45511" lon="6.20735">
        <ele>159</ele>
        <time>2013-06-08T13:24:14Z</time>
      </trkpt>
      <trkpt lat="43.45487" lon="6.20769">
        <ele>159</ele>
        <time>2013-06-08T13:24:23Z</time>
      </trkpt>
      <trkpt lat="43.45442" lon="6.20797">
        <ele>159</ele>
        <time>2013-06-08T13:24:36Z</time>
      </trkpt>
      <trkpt lat="43.4542" lon="6.20805">
        <ele>159</ele>
        <time>2013-06-08T13:24:42Z</time>
      </trkpt>
      <trkpt lat="43.4541" lon="6.20804">
        <ele>159.80000305176</ele>
        <time>2013-06-08T13:24:45Z</time>
      </trkpt>
      <trkpt lat="43.454" lon="6.20799">
        <ele>161.19999694824</ele>
        <time>2013-06-08T13:24:48Z</time>
      </trkpt>
      <trkpt lat="43.45382" lon="6.20783">
        <ele>161.19999694824</ele>
        <time>2013-06-08T13:24:54Z</time>
      </trkpt>
      <trkpt lat="43.45364" lon="6.20764">
        <ele>161.19999694824</ele>
        <time>2013-06-08T13:25:00Z</time>
      </trkpt>
      <trkpt lat="43.45343" lon="6.20739">
        <ele>161.19999694824</ele>
        <time>2013-06-08T13:25:07Z</time>
      </trkpt>
      <trkpt lat="43.45319" lon="6.20713">
        <ele>161.19999694824</ele>
        <time>2013-06-08T13:25:15Z</time>
      </trkpt>
      <trkpt lat="43.45299" lon="6.20691">
        <ele>161.19999694824</ele>
        <time>2013-06-08T13:25:21Z</time>
      </trkpt>
      <trkpt lat="43.45283" lon="6.20669">
        <ele>161.19999694824</ele>
        <time>2013-06-08T13:25:27Z</time>
      </trkpt>
      <trkpt lat="43.4527" lon="6.20645">
        <ele>161.19999694824</ele>
        <time>2013-06-08T13:25:32Z</time>
      </trkpt>
      <trkpt lat="43.45257" lon="6.20615">
        <ele>161.19999694824</ele>
        <time>2013-06-08T13:25:38Z</time>
      </trkpt>
      <trkpt lat="43.45249" lon="6.20597">
        <ele>161.19999694824</ele>
        <time>2013-06-08T13:25:43Z</time>
      </trkpt>
      <trkpt lat="43.45246" lon="6.20591">
        <ele>162.19999694824</ele>
        <time>2013-06-08T13:25:45Z</time>
      </trkpt>
      <trkpt lat="43.45242" lon="6.20585">
        <ele>163.19999694824</ele>
        <time>2013-06-08T13:25:47Z</time>
      </trkpt>
      <trkpt lat="43.45239" lon="6.20577">
        <ele>163.80000305176</ele>
        <time>2013-06-08T13:25:49Z</time>
      </trkpt>
      <trkpt lat="43.45225" lon="6.20557">
        <ele>163.80000305176</ele>
        <time>2013-06-08T13:25:54Z</time>
      </trkpt>
      <trkpt lat="43.45213" lon="6.20546">
        <ele>163.39999389648</ele>
        <time>2013-06-08T13:25:57Z</time>
      </trkpt>
      <trkpt lat="43.45209" lon="6.20545">
        <ele>163</ele>
        <time>2013-06-08T13:25:58Z</time>
      </trkpt>
      <trkpt lat="43.45203" lon="6.20542">
        <ele>161.60000610352</ele>
        <time>2013-06-08T13:26:00Z</time>
      </trkpt>
      <trkpt lat="43.45193" lon="6.20527">
        <ele>161.60000610352</ele>
        <time>2013-06-08T13:26:04Z</time>
      </trkpt>
      <trkpt lat="43.45178" lon="6.20504">
        <ele>161.60000610352</ele>
        <time>2013-06-08T13:26:10Z</time>
      </trkpt>
      <trkpt lat="43.45165" lon="6.2048">
        <ele>161.60000610352</ele>
        <time>2013-06-08T13:26:16Z</time>
      </trkpt>
      <trkpt lat="43.45153" lon="6.20454">
        <ele>161.60000610352</ele>
        <time>2013-06-08T13:26:22Z</time>
      </trkpt>
      <trkpt lat="43.45137" lon="6.20423">
        <ele>161.60000610352</ele>
        <time>2013-06-08T13:26:29Z</time>
      </trkpt>
      <trkpt lat="43.45128" lon="6.20408">
        <ele>161.60000610352</ele>
        <time>2013-06-08T13:26:32Z</time>
      </trkpt>
      <trkpt lat="43.4512" lon="6.20387">
        <ele>161.60000610352</ele>
        <time>2013-06-08T13:26:36Z</time>
      </trkpt>
      <trkpt lat="43.45116" lon="6.2037">
        <ele>161.60000610352</ele>
        <time>2013-06-08T13:26:39Z</time>
      </trkpt>
      <trkpt lat="43.45118" lon="6.20358">
        <ele>161.60000610352</ele>
        <time>2013-06-08T13:26:41Z</time>
      </trkpt>
      <trkpt lat="43.4512" lon="6.20341">
        <ele>161.60000610352</ele>
        <time>2013-06-08T13:26:44Z</time>
      </trkpt>
      <trkpt lat="43.45129" lon="6.20292">
        <ele>161.60000610352</ele>
        <time>2013-06-08T13:26:53Z</time>
      </trkpt>
      <trkpt lat="43.45142" lon="6.20235">
        <ele>161.60000610352</ele>
        <time>2013-06-08T13:27:04Z</time>
      </trkpt>
      <trkpt lat="43.45145" lon="6.20208">
        <ele>161.60000610352</ele>
        <time>2013-06-08T13:27:09Z</time>
      </trkpt>
      <trkpt lat="43.45147" lon="6.20177">
        <ele>161.60000610352</ele>
        <time>2013-06-08T13:27:15Z</time>
      </trkpt>
      <trkpt lat="43.45147" lon="6.20125">
        <ele>161.60000610352</ele>
        <time>2013-06-08T13:27:24Z</time>
      </trkpt>
      <trkpt lat="43.4515" lon="6.20114">
        <ele>161.60000610352</ele>
        <time>2013-06-08T13:27:26Z</time>
      </trkpt>
      <trkpt lat="43.45154" lon="6.20079">
        <ele>161.60000610352</ele>
        <time>2013-06-08T13:27:32Z</time>
      </trkpt>
      <trkpt lat="43.45155" lon="6.20046">
        <ele>161.60000610352</ele>
        <time>2013-06-08T13:27:38Z</time>
      </trkpt>
      <trkpt lat="43.45155" lon="6.2004">
        <ele>161.60000610352</ele>
        <time>2013-06-08T13:27:39Z</time>
      </trkpt>
      <trkpt lat="43.45154" lon="6.19984">
        <ele>161.60000610352</ele>
        <time>2013-06-08T13:27:50Z</time>
      </trkpt>
      <trkpt lat="43.45152" lon="6.19958">
        <ele>161.60000610352</ele>
        <time>2013-06-08T13:27:56Z</time>
      </trkpt>
      <trkpt lat="43.4515" lon="6.19936">
        <ele>161.60000610352</ele>
        <time>2013-06-08T13:28:00Z</time>
      </trkpt>
      <trkpt lat="43.45145" lon="6.19918">
        <ele>161.60000610352</ele>
        <time>2013-06-08T13:28:03Z</time>
      </trkpt>
      <trkpt lat="43.45143" lon="6.19886">
        <ele>161.60000610352</ele>
        <time>2013-06-08T13:28:09Z</time>
      </trkpt>
      <trkpt lat="43.45141" lon="6.19845">
        <ele>161.60000610352</ele>
        <time>2013-06-08T13:28:17Z</time>
      </trkpt>
      <trkpt lat="43.45137" lon="6.1981">
        <ele>161.60000610352</ele>
        <time>2013-06-08T13:28:24Z</time>
      </trkpt>
      <trkpt lat="43.45116" lon="6.19748">
        <ele>161.60000610352</ele>
        <time>2013-06-08T13:28:36Z</time>
      </trkpt>
      <trkpt lat="43.45097" lon="6.19721">
        <ele>161.60000610352</ele>
        <time>2013-06-08T13:28:43Z</time>
      </trkpt>
      <trkpt lat="43.45075" lon="6.19703">
        <ele>161.60000610352</ele>
        <time>2013-06-08T13:28:49Z</time>
      </trkpt>
      <trkpt lat="43.45063" lon="6.19697">
        <ele>161.60000610352</ele>
        <time>2013-06-08T13:28:52Z</time>
      </trkpt>
      <trkpt lat="43.45033" lon="6.19684">
        <ele>161.60000610352</ele>
        <time>2013-06-08T13:28:59Z</time>
      </trkpt>
      <trkpt lat="43.45025" lon="6.19679">
        <ele>161.60000610352</ele>
        <time>2013-06-08T13:29:01Z</time>
      </trkpt>
      <trkpt lat="43.45018" lon="6.19672">
        <ele>161.60000610352</ele>
        <time>2013-06-08T13:29:03Z</time>
      </trkpt>
      <trkpt lat="43.45" lon="6.19654">
        <ele>161.60000610352</ele>
        <time>2013-06-08T13:29:08Z</time>
      </trkpt>
      <trkpt lat="43.44986" lon="6.19642">
        <ele>161.60000610352</ele>
        <time>2013-06-08T13:29:12Z</time>
      </trkpt>
      <trkpt lat="43.44967" lon="6.19622">
        <ele>161.60000610352</ele>
        <time>2013-06-08T13:29:19Z</time>
      </trkpt>
      <trkpt lat="43.44946" lon="6.19605">
        <ele>161.60000610352</ele>
        <time>2013-06-08T13:29:26Z</time>
      </trkpt>
      <trkpt lat="43.4493" lon="6.19589">
        <ele>161.60000610352</ele>
        <time>2013-06-08T13:29:32Z</time>
      </trkpt>
      <trkpt lat="43.44914" lon="6.19566">
        <ele>161.60000610352</ele>
        <time>2013-06-08T13:29:39Z</time>
      </trkpt>
      <trkpt lat="43.44894" lon="6.19521">
        <ele>161.60000610352</ele>
        <time>2013-06-08T13:29:49Z</time>
      </trkpt>
      <trkpt lat="43.4488" lon="6.19493">
        <ele>161.60000610352</ele>
        <time>2013-06-08T13:29:55Z</time>
      </trkpt>
      <trkpt lat="43.44875" lon="6.19479">
        <ele>161.60000610352</ele>
        <time>2013-06-08T13:29:58Z</time>
      </trkpt>
      <trkpt lat="43.44867" lon="6.19459">
        <ele>161.60000610352</ele>
        <time>2013-06-08T13:30:02Z</time>
      </trkpt>
      <trkpt lat="43.44857" lon="6.19437">
        <ele>161.19999694824</ele>
        <time>2013-06-08T13:30:07Z</time>
      </trkpt>
      <trkpt lat="43.44854" lon="6.19419">
        <ele>159.60000610352</ele>
        <time>2013-06-08T13:30:12Z</time>
      </trkpt>
      <trkpt lat="43.44853" lon="6.19415">
        <ele>159.60000610352</ele>
        <time>2013-06-08T13:30:13Z</time>
      </trkpt>
      <trkpt lat="43.4485" lon="6.19405">
        <ele>159.60000610352</ele>
        <time>2013-06-08T13:30:16Z</time>
      </trkpt>
      <trkpt lat="43.44845" lon="6.19391">
        <ele>161</ele>
        <time>2013-06-08T13:30:21Z</time>
      </trkpt>
      <trkpt lat="43.44825" lon="6.19364">
        <ele>161.80000305176</ele>
        <time>2013-06-08T13:30:32Z</time>
      </trkpt>
      <trkpt lat="43.44821" lon="6.1936">
        <ele>161.80000305176</ele>
        <time>2013-06-08T13:30:35Z</time>
      </trkpt>
      <trkpt lat="43.44815" lon="6.19359">
        <ele>161.80000305176</ele>
        <time>2013-06-08T13:30:38Z</time>
      </trkpt>
      <trkpt lat="43.44801" lon="6.1936">
        <ele>161.80000305176</ele>
        <time>2013-06-08T13:30:42Z</time>
      </trkpt>
      <trkpt lat="43.44777" lon="6.19366">
        <ele>161.80000305176</ele>
        <time>2013-06-08T13:30:49Z</time>
      </trkpt>
      <trkpt lat="43.44752" lon="6.19369">
        <ele>161.80000305176</ele>
        <time>2013-06-08T13:30:56Z</time>
      </trkpt>
      <trkpt lat="43.44736" lon="6.19372">
        <ele>161.80000305176</ele>
        <time>2013-06-08T13:31:02Z</time>
      </trkpt>
      <trkpt lat="43.44726" lon="6.19381">
        <ele>161.80000305176</ele>
        <time>2013-06-08T13:31:07Z</time>
      </trkpt>
      <trkpt lat="43.44722" lon="6.19388">
        <ele>162.60000610352</ele>
        <time>2013-06-08T13:31:10Z</time>
      </trkpt>
      <trkpt lat="43.44719" lon="6.19394">
        <ele>163.60000610352</ele>
        <time>2013-06-08T13:31:12Z</time>
      </trkpt>
      <trkpt lat="43.44715" lon="6.19416">
        <ele>165.19999694824</ele>
        <time>2013-06-08T13:31:19Z</time>
      </trkpt>
      <trkpt lat="43.44711" lon="6.19441">
        <ele>166</ele>
        <time>2013-06-08T13:31:26Z</time>
      </trkpt>
      <trkpt lat="43.44703" lon="6.19468">
        <ele>166</ele>
        <time>2013-06-08T13:31:33Z</time>
      </trkpt>
      <trkpt lat="43.44695" lon="6.19481">
        <ele>166</ele>
        <time>2013-06-08T13:31:37Z</time>
      </trkpt>
      <trkpt lat="43.44677" lon="6.195">
        <ele>166</ele>
        <time>2013-06-08T13:31:44Z</time>
      </trkpt>
      <trkpt lat="43.44648" lon="6.19525">
        <ele>166</ele>
        <time>2013-06-08T13:31:54Z</time>
      </trkpt>
      <trkpt lat="43.44634" lon="6.1954">
        <ele>166</ele>
        <time>2013-06-08T13:31:59Z</time>
      </trkpt>
      <trkpt lat="43.446" lon="6.19584">
        <ele>166</ele>
        <time>2013-06-08T13:32:12Z</time>
      </trkpt>
      <trkpt lat="43.4458" lon="6.19605">
        <ele>166</ele>
        <time>2013-06-08T13:32:19Z</time>
      </trkpt>
      <trkpt lat="43.4456" lon="6.19621">
        <ele>166</ele>
        <time>2013-06-08T13:32:25Z</time>
      </trkpt>
      <trkpt lat="43.4454" lon="6.19623">
        <ele>166</ele>
        <time>2013-06-08T13:32:30Z</time>
      </trkpt>
      <trkpt lat="43.44521" lon="6.19615">
        <ele>166</ele>
        <time>2013-06-08T13:32:36Z</time>
      </trkpt>
      <trkpt lat="43.44513" lon="6.19607">
        <ele>166</ele>
        <time>2013-06-08T13:32:39Z</time>
      </trkpt>
      <trkpt lat="43.44506" lon="6.19593">
        <ele>166.80000305176</ele>
        <time>2013-06-08T13:32:44Z</time>
      </trkpt>
      <trkpt lat="43.44505" lon="6.19586">
        <ele>168</ele>
        <time>2013-06-08T13:32:47Z</time>
      </trkpt>
      <trkpt lat="43.44506" lon="6.19583">
        <ele>168</ele>
        <time>2013-06-08T13:32:48Z</time>
      </trkpt>
      <trkpt lat="43.44514" lon="6.19572">
        <ele>168</ele>
        <time>2013-06-08T13:32:54Z</time>
      </trkpt>
      <trkpt lat="43.44522" lon="6.19565">
        <ele>168</ele>
        <time>2013-06-08T13:32:59Z</time>
      </trkpt>
      <trkpt lat="43.44531" lon="6.19549">
        <ele>168.39999389648</ele>
        <time>2013-06-08T13:33:06Z</time>
      </trkpt>
      <trkpt lat="43.44532" lon="6.19543">
        <ele>169.39999389648</ele>
        <time>2013-06-08T13:33:08Z</time>
      </trkpt>
      <trkpt lat="43.44532" lon="6.1954">
        <ele>169.80000305176</ele>
        <time>2013-06-08T13:33:09Z</time>
      </trkpt>
      <trkpt lat="43.44528" lon="6.19529">
        <ele>170.60000610352</ele>
        <time>2013-06-08T13:33:13Z</time>
      </trkpt>
      <trkpt lat="43.44522" lon="6.19525">
        <ele>171.80000305176</ele>
        <time>2013-06-08T13:33:16Z</time>
      </trkpt>
      <trkpt lat="43.44515" lon="6.19523">
        <ele>172.19999694824</ele>
        <time>2013-06-08T13:33:20Z</time>
      </trkpt>
      <trkpt lat="43.4448" lon="6.19529">
        <ele>174.19999694824</ele>
        <time>2013-06-08T13:33:36Z</time>
      </trkpt>
      <trkpt lat="43.44466" lon="6.19528">
        <ele>174.19999694824</ele>
        <time>2013-06-08T13:33:42Z</time>
      </trkpt>
      <trkpt lat="43.44453" lon="6.19519">
        <ele>176.39999389648</ele>
        <time>2013-06-08T13:33:49Z</time>
      </trkpt>
      <trkpt lat="43.44444" lon="6.19503">
        <ele>176.39999389648</ele>
        <time>2013-06-08T13:33:56Z</time>
      </trkpt>
      <trkpt lat="43.44438" lon="6.1948">
        <ele>176.39999389648</ele>
        <time>2013-06-08T13:34:04Z</time>
      </trkpt>
      <trkpt lat="43.44435" lon="6.19462">
        <ele>178.80000305176</ele>
        <time>2013-06-08T13:34:10Z</time>
      </trkpt>
      <trkpt lat="43.44418" lon="6.1938">
        <ele>178.80000305176</ele>
        <time>2013-06-08T13:34:38Z</time>
      </trkpt>
      <trkpt lat="43.4441" lon="6.19344">
        <ele>180.60000610352</ele>
        <time>2013-06-08T13:34:50Z</time>
      </trkpt>
      <trkpt lat="43.44405" lon="6.19319">
        <ele>181</ele>
        <time>2013-06-08T13:34:58Z</time>
      </trkpt>
      <trkpt lat="43.44403" lon="6.19298">
        <ele>181</ele>
        <time>2013-06-08T13:35:05Z</time>
      </trkpt>
      <trkpt lat="43.44406" lon="6.19286">
        <ele>181</ele>
        <time>2013-06-08T13:35:09Z</time>
      </trkpt>
      <trkpt lat="43.4441" lon="6.19278">
        <ele>181.39999389648</ele>
        <time>2013-06-08T13:35:12Z</time>
      </trkpt>
      <trkpt lat="43.44432" lon="6.19262">
        <ele>183</ele>
        <time>2013-06-08T13:35:20Z</time>
      </trkpt>
      <trkpt lat="43.44442" lon="6.19257">
        <ele>183</ele>
        <time>2013-06-08T13:35:23Z</time>
      </trkpt>
      <trkpt lat="43.44455" lon="6.19248">
        <ele>183</ele>
        <time>2013-06-08T13:35:27Z</time>
      </trkpt>
      <trkpt lat="43.44476" lon="6.19226">
        <ele>182.19999694824</ele>
        <time>2013-06-08T13:35:34Z</time>
      </trkpt>
      <trkpt lat="43.44482" lon="6.19214">
        <ele>181</ele>
        <time>2013-06-08T13:35:37Z</time>
      </trkpt>
      <trkpt lat="43.44498" lon="6.19183">
        <ele>181</ele>
        <time>2013-06-08T13:35:44Z</time>
      </trkpt>
      <trkpt lat="43.44511" lon="6.19153">
        <ele>181</ele>
        <time>2013-06-08T13:35:50Z</time>
      </trkpt>
      <trkpt lat="43.44522" lon="6.19129">
        <ele>179</ele>
        <time>2013-06-08T13:35:54Z</time>
      </trkpt>
      <trkpt lat="43.44532" lon="6.19105">
        <ele>179</ele>
        <time>2013-06-08T13:35:58Z</time>
      </trkpt>
      <trkpt lat="43.44539" lon="6.19084">
        <ele>179</ele>
        <time>2013-06-08T13:36:01Z</time>
      </trkpt>
      <trkpt lat="43.44542" lon="6.19071">
        <ele>179</ele>
        <time>2013-06-08T13:36:03Z</time>
      </trkpt>
      <trkpt lat="43.44544" lon="6.19051">
        <ele>179</ele>
        <time>2013-06-08T13:36:06Z</time>
      </trkpt>
      <trkpt lat="43.44543" lon="6.1901">
        <ele>177.19999694824</ele>
        <time>2013-06-08T13:36:12Z</time>
      </trkpt>
      <trkpt lat="43.44541" lon="6.18978">
        <ele>176.80000305176</ele>
        <time>2013-06-08T13:36:17Z</time>
      </trkpt>
      <trkpt lat="43.4454" lon="6.18925">
        <ele>176.80000305176</ele>
        <time>2013-06-08T13:36:25Z</time>
      </trkpt>
      <trkpt lat="43.44535" lon="6.18852">
        <ele>176.80000305176</ele>
        <time>2013-06-08T13:36:36Z</time>
      </trkpt>
      <trkpt lat="43.44529" lon="6.18826">
        <ele>176.80000305176</ele>
        <time>2013-06-08T13:36:40Z</time>
      </trkpt>
      <trkpt lat="43.44522" lon="6.18807">
        <ele>176.19999694824</ele>
        <time>2013-06-08T13:36:43Z</time>
      </trkpt>
      <trkpt lat="43.44519" lon="6.18802">
        <ele>175.80000305176</ele>
        <time>2013-06-08T13:36:44Z</time>
      </trkpt>
      <trkpt lat="43.44509" lon="6.18789">
        <ele>174.19999694824</ele>
        <time>2013-06-08T13:36:47Z</time>
      </trkpt>
      <trkpt lat="43.44498" lon="6.18771">
        <ele>174.19999694824</ele>
        <time>2013-06-08T13:36:51Z</time>
      </trkpt>
      <trkpt lat="43.44481" lon="6.18745">
        <ele>174.19999694824</ele>
        <time>2013-06-08T13:36:57Z</time>
      </trkpt>
      <trkpt lat="43.4447" lon="6.18728">
        <ele>175</ele>
        <time>2013-06-08T13:37:01Z</time>
      </trkpt>
      <trkpt lat="43.44466" lon="6.18723">
        <ele>175.39999389648</ele>
        <time>2013-06-08T13:37:02Z</time>
      </trkpt>
      <trkpt lat="43.44453" lon="6.18709">
        <ele>176.19999694824</ele>
        <time>2013-06-08T13:37:06Z</time>
      </trkpt>
      <trkpt lat="43.44405" lon="6.18681">
        <ele>176.19999694824</ele>
        <time>2013-06-08T13:37:18Z</time>
      </trkpt>
      <trkpt lat="43.44391" lon="6.18666">
        <ele>176.19999694824</ele>
        <time>2013-06-08T13:37:22Z</time>
      </trkpt>
      <trkpt lat="43.44384" lon="6.1865">
        <ele>176.19999694824</ele>
        <time>2013-06-08T13:37:25Z</time>
      </trkpt>
      <trkpt lat="43.44383" lon="6.18634">
        <ele>176.60000610352</ele>
        <time>2013-06-08T13:37:28Z</time>
      </trkpt>
      <trkpt lat="43.44382" lon="6.18628">
        <ele>177</ele>
        <time>2013-06-08T13:37:29Z</time>
      </trkpt>
      <trkpt lat="43.44382" lon="6.18616">
        <ele>178.19999694824</ele>
        <time>2013-06-08T13:37:31Z</time>
      </trkpt>
      <trkpt lat="43.44382" lon="6.18596">
        <ele>178.19999694824</ele>
        <time>2013-06-08T13:37:34Z</time>
      </trkpt>
      <trkpt lat="43.44382" lon="6.1855">
        <ele>178.19999694824</ele>
        <time>2013-06-08T13:37:40Z</time>
      </trkpt>
      <trkpt lat="43.44382" lon="6.18542">
        <ele>177.80000305176</ele>
        <time>2013-06-08T13:37:41Z</time>
      </trkpt>
      <trkpt lat="43.4438" lon="6.18515">
        <ele>176.19999694824</ele>
        <time>2013-06-08T13:37:44Z</time>
      </trkpt>
      <trkpt lat="43.44378" lon="6.18496">
        <ele>175.80000305176</ele>
        <time>2013-06-08T13:37:46Z</time>
      </trkpt>
      <trkpt lat="43.44371" lon="6.18458">
        <ele>175.80000305176</ele>
        <time>2013-06-08T13:37:50Z</time>
      </trkpt>
      <trkpt lat="43.44361" lon="6.18419">
        <ele>174.60000610352</ele>
        <time>2013-06-08T13:37:54Z</time>
      </trkpt>
      <trkpt lat="43.44357" lon="6.1841">
        <ele>174</ele>
        <time>2013-06-08T13:37:55Z</time>
      </trkpt>
      <trkpt lat="43.44343" lon="6.18382">
        <ele>171.60000610352</ele>
        <time>2013-06-08T13:37:58Z</time>
      </trkpt>
      <trkpt lat="43.44333" lon="6.18363">
        <ele>170.80000305176</ele>
        <time>2013-06-08T13:38:00Z</time>
      </trkpt>
      <trkpt lat="43.44323" lon="6.1834">
        <ele>169.39999389648</ele>
        <time>2013-06-08T13:38:02Z</time>
      </trkpt>
      <trkpt lat="43.44316" lon="6.18316">
        <ele>168</ele>
        <time>2013-06-08T13:38:04Z</time>
      </trkpt>
      <trkpt lat="43.44312" lon="6.18305">
        <ele>167.60000610352</ele>
        <time>2013-06-08T13:38:05Z</time>
      </trkpt>
      <trkpt lat="43.44306" lon="6.18283">
        <ele>166.80000305176</ele>
        <time>2013-06-08T13:38:07Z</time>
      </trkpt>
      <trkpt lat="43.44303" lon="6.18272">
        <ele>166.39999389648</ele>
        <time>2013-06-08T13:38:08Z</time>
      </trkpt>
      <trkpt lat="43.443" lon="6.18261">
        <ele>166</ele>
        <time>2013-06-08T13:38:09Z</time>
      </trkpt>
      <trkpt lat="43.4429" lon="6.18225">
        <ele>166</ele>
        <time>2013-06-08T13:38:13Z</time>
      </trkpt>
      <trkpt lat="43.4428" lon="6.18185">
        <ele>166</ele>
        <time>2013-06-08T13:38:18Z</time>
      </trkpt>
      <trkpt lat="43.44274" lon="6.18163">
        <ele>166</ele>
        <time>2013-06-08T13:38:21Z</time>
      </trkpt>
      <trkpt lat="43.44269" lon="6.18142">
        <ele>166</ele>
        <time>2013-06-08T13:38:24Z</time>
      </trkpt>
      <trkpt lat="43.44265" lon="6.18128">
        <ele>166</ele>
        <time>2013-06-08T13:38:26Z</time>
      </trkpt>
      <trkpt lat="43.44259" lon="6.18096">
        <ele>166</ele>
        <time>2013-06-08T13:38:31Z</time>
      </trkpt>
      <trkpt lat="43.44258" lon="6.18089">
        <ele>166</ele>
        <time>2013-06-08T13:38:32Z</time>
      </trkpt>
      <trkpt lat="43.4425" lon="6.18062">
        <ele>166</ele>
        <time>2013-06-08T13:38:36Z</time>
      </trkpt>
      <trkpt lat="43.44242" lon="6.18031">
        <ele>166</ele>
        <time>2013-06-08T13:38:41Z</time>
      </trkpt>
      <trkpt lat="43.44222" lon="6.17954">
        <ele>166</ele>
        <time>2013-06-08T13:38:53Z</time>
      </trkpt>
      <trkpt lat="43.44214" lon="6.17921">
        <ele>166</ele>
        <time>2013-06-08T13:38:58Z</time>
      </trkpt>
      <trkpt lat="43.44197" lon="6.17848">
        <ele>166</ele>
        <time>2013-06-08T13:39:09Z</time>
      </trkpt>
      <trkpt lat="43.44201" lon="6.17801">
        <ele>166</ele>
        <time>2013-06-08T13:39:16Z</time>
      </trkpt>
      <trkpt lat="43.44221" lon="6.17724">
        <ele>166</ele>
        <time>2013-06-08T13:39:28Z</time>
      </trkpt>
      <trkpt lat="43.44229" lon="6.17686">
        <ele>166</ele>
        <time>2013-06-08T13:39:34Z</time>
      </trkpt>
      <trkpt lat="43.44236" lon="6.17634">
        <ele>166.80000305176</ele>
        <time>2013-06-08T13:39:42Z</time>
      </trkpt>
      <trkpt lat="43.44238" lon="6.17622">
        <ele>167.60000610352</ele>
        <time>2013-06-08T13:39:44Z</time>
      </trkpt>
      <trkpt lat="43.4425" lon="6.17587">
        <ele>168</ele>
        <time>2013-06-08T13:39:50Z</time>
      </trkpt>
      <trkpt lat="43.44252" lon="6.17581">
        <ele>168</ele>
        <time>2013-06-08T13:39:51Z</time>
      </trkpt>
      <trkpt lat="43.44257" lon="6.17546">
        <ele>168</ele>
        <time>2013-06-08T13:39:57Z</time>
      </trkpt>
      <trkpt lat="43.44254" lon="6.17523">
        <ele>168</ele>
        <time>2013-06-08T13:40:01Z</time>
      </trkpt>
      <trkpt lat="43.44245" lon="6.17481">
        <ele>168</ele>
        <time>2013-06-08T13:40:08Z</time>
      </trkpt>
      <trkpt lat="43.44236" lon="6.17446">
        <ele>168.80000305176</ele>
        <time>2013-06-08T13:40:14Z</time>
      </trkpt>
      <trkpt lat="43.44219" lon="6.174">
        <ele>170</ele>
        <time>2013-06-08T13:40:22Z</time>
      </trkpt>
      <trkpt lat="43.44195" lon="6.17353">
        <ele>170</ele>
        <time>2013-06-08T13:40:31Z</time>
      </trkpt>
      <trkpt lat="43.4417" lon="6.17318">
        <ele>170</ele>
        <time>2013-06-08T13:40:38Z</time>
      </trkpt>
      <trkpt lat="43.44156" lon="6.17306">
        <ele>170</ele>
        <time>2013-06-08T13:40:41Z</time>
      </trkpt>
      <trkpt lat="43.44146" lon="6.173">
        <ele>170</ele>
        <time>2013-06-08T13:40:43Z</time>
      </trkpt>
      <trkpt lat="43.44112" lon="6.1728">
        <ele>170</ele>
        <time>2013-06-08T13:40:50Z</time>
      </trkpt>
      <trkpt lat="43.44067" lon="6.17255">
        <ele>170</ele>
        <time>2013-06-08T13:40:59Z</time>
      </trkpt>
      <trkpt lat="43.44038" lon="6.1724">
        <ele>170</ele>
        <time>2013-06-08T13:41:05Z</time>
      </trkpt>
      <trkpt lat="43.44004" lon="6.17223">
        <ele>170</ele>
        <time>2013-06-08T13:41:13Z</time>
      </trkpt>
      <trkpt lat="43.43981" lon="6.1721">
        <ele>170</ele>
        <time>2013-06-08T13:41:19Z</time>
      </trkpt>
      <trkpt lat="43.43973" lon="6.17207">
        <ele>170</ele>
        <time>2013-06-08T13:41:21Z</time>
      </trkpt>
      <trkpt lat="43.43957" lon="6.17198">
        <ele>170</ele>
        <time>2013-06-08T13:41:25Z</time>
      </trkpt>
      <trkpt lat="43.43945" lon="6.1719">
        <ele>170</ele>
        <time>2013-06-08T13:41:28Z</time>
      </trkpt>
      <trkpt lat="43.43908" lon="6.17156">
        <ele>170</ele>
        <time>2013-06-08T13:41:38Z</time>
      </trkpt>
      <trkpt lat="43.4388" lon="6.17129">
        <ele>170</ele>
        <time>2013-06-08T13:41:45Z</time>
      </trkpt>
      <trkpt lat="43.43839" lon="6.17084">
        <ele>170</ele>
        <time>2013-06-08T13:41:57Z</time>
      </trkpt>
      <trkpt lat="43.43836" lon="6.1708">
        <ele>170</ele>
        <time>2013-06-08T13:41:58Z</time>
      </trkpt>
      <trkpt lat="43.43818" lon="6.17051">
        <ele>170</ele>
        <time>2013-06-08T13:42:04Z</time>
      </trkpt>
      <trkpt lat="43.43804" lon="6.17028">
        <ele>171.19999694824</ele>
        <time>2013-06-08T13:42:09Z</time>
      </trkpt>
      <trkpt lat="43.43798" lon="6.17018">
        <ele>172</ele>
        <time>2013-06-08T13:42:11Z</time>
      </trkpt>
      <trkpt lat="43.43773" lon="6.16983">
        <ele>172</ele>
        <time>2013-06-08T13:42:18Z</time>
      </trkpt>
      <trkpt lat="43.43762" lon="6.16964">
        <ele>172</ele>
        <time>2013-06-08T13:42:22Z</time>
      </trkpt>
      <trkpt lat="43.4375" lon="6.16942">
        <ele>172</ele>
        <time>2013-06-08T13:42:27Z</time>
      </trkpt>
      <trkpt lat="43.4374" lon="6.16917">
        <ele>172</ele>
        <time>2013-06-08T13:42:33Z</time>
      </trkpt>
      <trkpt lat="43.43735" lon="6.16905">
        <ele>172</ele>
        <time>2013-06-08T13:42:37Z</time>
      </trkpt>
      <trkpt lat="43.4373" lon="6.16891">
        <ele>172</ele>
        <time>2013-06-08T13:42:40Z</time>
      </trkpt>
      <trkpt lat="43.43722" lon="6.1687">
        <ele>172</ele>
        <time>2013-06-08T13:42:45Z</time>
      </trkpt>
      <trkpt lat="43.43704" lon="6.16833">
        <ele>172</ele>
        <time>2013-06-08T13:42:52Z</time>
      </trkpt>
      <trkpt lat="43.43693" lon="6.16804">
        <ele>172</ele>
        <time>2013-06-08T13:42:57Z</time>
      </trkpt>
      <trkpt lat="43.43692" lon="6.16798">
        <ele>172</ele>
        <time>2013-06-08T13:42:58Z</time>
      </trkpt>
      <trkpt lat="43.43685" lon="6.16774">
        <ele>172</ele>
        <time>2013-06-08T13:43:02Z</time>
      </trkpt>
      <trkpt lat="43.43682" lon="6.16759">
        <ele>172</ele>
        <time>2013-06-08T13:43:04Z</time>
      </trkpt>
      <trkpt lat="43.43668" lon="6.16716">
        <ele>172</ele>
        <time>2013-06-08T13:43:11Z</time>
      </trkpt>
      <trkpt lat="43.43654" lon="6.16672">
        <ele>172</ele>
        <time>2013-06-08T13:43:18Z</time>
      </trkpt>
      <trkpt lat="43.43644" lon="6.16628">
        <ele>172</ele>
        <time>2013-06-08T13:43:25Z</time>
      </trkpt>
      <trkpt lat="43.4364" lon="6.16596">
        <ele>174</ele>
        <time>2013-06-08T13:43:31Z</time>
      </trkpt>
      <trkpt lat="43.43638" lon="6.16559">
        <ele>174</ele>
        <time>2013-06-08T13:43:38Z</time>
      </trkpt>
      <trkpt lat="43.43639" lon="6.16517">
        <ele>174</ele>
        <time>2013-06-08T13:43:46Z</time>
      </trkpt>
      <trkpt lat="43.43642" lon="6.16495">
        <ele>174</ele>
        <time>2013-06-08T13:43:51Z</time>
      </trkpt>
      <trkpt lat="43.43645" lon="6.16458">
        <ele>174</ele>
        <time>2013-06-08T13:43:59Z</time>
      </trkpt>
      <trkpt lat="43.43646" lon="6.16419">
        <ele>176.19999694824</ele>
        <time>2013-06-08T13:44:07Z</time>
      </trkpt>
      <trkpt lat="43.43645" lon="6.1638">
        <ele>176.19999694824</ele>
        <time>2013-06-08T13:44:15Z</time>
      </trkpt>
      <trkpt lat="43.43647" lon="6.16342">
        <ele>176.19999694824</ele>
        <time>2013-06-08T13:44:23Z</time>
      </trkpt>
      <trkpt lat="43.43667" lon="6.16225">
        <ele>176.19999694824</ele>
        <time>2013-06-08T13:44:47Z</time>
      </trkpt>
      <trkpt lat="43.43673" lon="6.16181">
        <ele>176.19999694824</ele>
        <time>2013-06-08T13:44:56Z</time>
      </trkpt>
      <trkpt lat="43.43674" lon="6.16146">
        <ele>176.19999694824</ele>
        <time>2013-06-08T13:45:03Z</time>
      </trkpt>
      <trkpt lat="43.43678" lon="6.16115">
        <ele>176.60000610352</ele>
        <time>2013-06-08T13:45:10Z</time>
      </trkpt>
      <trkpt lat="43.43678" lon="6.16105">
        <ele>177.39999389648</ele>
        <time>2013-06-08T13:45:12Z</time>
      </trkpt>
      <trkpt lat="43.43679" lon="6.16079">
        <ele>178.19999694824</ele>
        <time>2013-06-08T13:45:17Z</time>
      </trkpt>
      <trkpt lat="43.43682" lon="6.15966">
        <ele>178.19999694824</ele>
        <time>2013-06-08T13:45:38Z</time>
      </trkpt>
      <trkpt lat="43.43682" lon="6.15927">
        <ele>178.19999694824</ele>
        <time>2013-06-08T13:45:45Z</time>
      </trkpt>
      <trkpt lat="43.43687" lon="6.15857">
        <ele>178.19999694824</ele>
        <time>2013-06-08T13:45:58Z</time>
      </trkpt>
      <trkpt lat="43.43697" lon="6.15816">
        <ele>178.19999694824</ele>
        <time>2013-06-08T13:46:06Z</time>
      </trkpt>
      <trkpt lat="43.43713" lon="6.15771">
        <ele>178.19999694824</ele>
        <time>2013-06-08T13:46:15Z</time>
      </trkpt>
      <trkpt lat="43.43743" lon="6.157">
        <ele>178.19999694824</ele>
        <time>2013-06-08T13:46:29Z</time>
      </trkpt>
      <trkpt lat="43.43758" lon="6.15665">
        <ele>178.19999694824</ele>
        <time>2013-06-08T13:46:36Z</time>
      </trkpt>
      <trkpt lat="43.43773" lon="6.15625">
        <ele>178.19999694824</ele>
        <time>2013-06-08T13:46:44Z</time>
      </trkpt>
      <trkpt lat="43.43786" lon="6.15589">
        <ele>178.19999694824</ele>
        <time>2013-06-08T13:46:51Z</time>
      </trkpt>
      <trkpt lat="43.43797" lon="6.15538">
        <ele>178.19999694824</ele>
        <time>2013-06-08T13:47:00Z</time>
      </trkpt>
      <trkpt lat="43.43798" lon="6.15509">
        <ele>178.19999694824</ele>
        <time>2013-06-08T13:47:05Z</time>
      </trkpt>
      <trkpt lat="43.43794" lon="6.15485">
        <ele>178.19999694824</ele>
        <time>2013-06-08T13:47:09Z</time>
      </trkpt>
      <trkpt lat="43.4379" lon="6.15467">
        <ele>178.19999694824</ele>
        <time>2013-06-08T13:47:12Z</time>
      </trkpt>
      <trkpt lat="43.43779" lon="6.15429">
        <ele>178.19999694824</ele>
        <time>2013-06-08T13:47:19Z</time>
      </trkpt>
      <trkpt lat="43.43766" lon="6.15387">
        <ele>178.19999694824</ele>
        <time>2013-06-08T13:47:27Z</time>
      </trkpt>
      <trkpt lat="43.43758" lon="6.15361">
        <ele>178.19999694824</ele>
        <time>2013-06-08T13:47:32Z</time>
      </trkpt>
      <trkpt lat="43.43743" lon="6.15327">
        <ele>178.19999694824</ele>
        <time>2013-06-08T13:47:39Z</time>
      </trkpt>
      <trkpt lat="43.43707" lon="6.15272">
        <ele>178.19999694824</ele>
        <time>2013-06-08T13:47:52Z</time>
      </trkpt>
      <trkpt lat="43.43677" lon="6.15225">
        <ele>178.19999694824</ele>
        <time>2013-06-08T13:48:03Z</time>
      </trkpt>
      <trkpt lat="43.43661" lon="6.15202">
        <ele>178.19999694824</ele>
        <time>2013-06-08T13:48:09Z</time>
      </trkpt>
      <trkpt lat="43.43614" lon="6.15141">
        <ele>178.19999694824</ele>
        <time>2013-06-08T13:48:24Z</time>
      </trkpt>
      <trkpt lat="43.4359" lon="6.15117">
        <ele>178.19999694824</ele>
        <time>2013-06-08T13:48:31Z</time>
      </trkpt>
      <trkpt lat="43.43558" lon="6.15091">
        <ele>178.19999694824</ele>
        <time>2013-06-08T13:48:39Z</time>
      </trkpt>
      <trkpt lat="43.43526" lon="6.15067">
        <ele>178.19999694824</ele>
        <time>2013-06-08T13:48:47Z</time>
      </trkpt>
      <trkpt lat="43.43498" lon="6.15047">
        <ele>178.19999694824</ele>
        <time>2013-06-08T13:48:54Z</time>
      </trkpt>
      <trkpt lat="43.43477" lon="6.15029">
        <ele>178.19999694824</ele>
        <time>2013-06-08T13:49:00Z</time>
      </trkpt>
      <trkpt lat="43.43475" lon="6.15026">
        <ele>178.19999694824</ele>
        <time>2013-06-08T13:49:01Z</time>
      </trkpt>
      <trkpt lat="43.43456" lon="6.15007">
        <ele>178.19999694824</ele>
        <time>2013-06-08T13:49:07Z</time>
      </trkpt>
      <trkpt lat="43.43435" lon="6.14978">
        <ele>178.19999694824</ele>
        <time>2013-06-08T13:49:14Z</time>
      </trkpt>
      <trkpt lat="43.43415" lon="6.14938">
        <ele>178.19999694824</ele>
        <time>2013-06-08T13:49:22Z</time>
      </trkpt>
      <trkpt lat="43.4339" lon="6.14892">
        <ele>178.19999694824</ele>
        <time>2013-06-08T13:49:31Z</time>
      </trkpt>
      <trkpt lat="43.43372" lon="6.14857">
        <ele>178.19999694824</ele>
        <time>2013-06-08T13:49:38Z</time>
      </trkpt>
      <trkpt lat="43.43354" lon="6.14816">
        <ele>178.19999694824</ele>
        <time>2013-06-08T13:49:46Z</time>
      </trkpt>
      <trkpt lat="43.43351" lon="6.14806">
        <ele>178.19999694824</ele>
        <time>2013-06-08T13:49:48Z</time>
      </trkpt>
      <trkpt lat="43.43348" lon="6.14784">
        <ele>178.19999694824</ele>
        <time>2013-06-08T13:49:52Z</time>
      </trkpt>
      <trkpt lat="43.43348" lon="6.1474">
        <ele>178.19999694824</ele>
        <time>2013-06-08T13:49:59Z</time>
      </trkpt>
      <trkpt lat="43.4335" lon="6.1469">
        <ele>178.19999694824</ele>
        <time>2013-06-08T13:50:07Z</time>
      </trkpt>
      <trkpt lat="43.43348" lon="6.14671">
        <ele>178.19999694824</ele>
        <time>2013-06-08T13:50:10Z</time>
      </trkpt>
      <trkpt lat="43.43344" lon="6.14653">
        <ele>178.19999694824</ele>
        <time>2013-06-08T13:50:13Z</time>
      </trkpt>
      <trkpt lat="43.43341" lon="6.14642">
        <ele>178.19999694824</ele>
        <time>2013-06-08T13:50:15Z</time>
      </trkpt>
      <trkpt lat="43.43314" lon="6.14592">
        <ele>178.19999694824</ele>
        <time>2013-06-08T13:50:26Z</time>
      </trkpt>
      <trkpt lat="43.43295" lon="6.14565">
        <ele>178.19999694824</ele>
        <time>2013-06-08T13:50:33Z</time>
      </trkpt>
      <trkpt lat="43.43274" lon="6.14533">
        <ele>178.19999694824</ele>
        <time>2013-06-08T13:50:41Z</time>
      </trkpt>
      <trkpt lat="43.43237" lon="6.14479">
        <ele>178.19999694824</ele>
        <time>2013-06-08T13:50:54Z</time>
      </trkpt>
      <trkpt lat="43.4322" lon="6.14453">
        <ele>178.19999694824</ele>
        <time>2013-06-08T13:51:00Z</time>
      </trkpt>
      <trkpt lat="43.43205" lon="6.1442">
        <ele>178.19999694824</ele>
        <time>2013-06-08T13:51:07Z</time>
      </trkpt>
      <trkpt lat="43.43202" lon="6.14384">
        <ele>178.19999694824</ele>
        <time>2013-06-08T13:51:14Z</time>
      </trkpt>
      <trkpt lat="43.43205" lon="6.14345">
        <ele>178.19999694824</ele>
        <time>2013-06-08T13:51:21Z</time>
      </trkpt>
      <trkpt lat="43.43211" lon="6.14307">
        <ele>178.19999694824</ele>
        <time>2013-06-08T13:51:28Z</time>
      </trkpt>
      <trkpt lat="43.43216" lon="6.14271">
        <ele>178.19999694824</ele>
        <time>2013-06-08T13:51:35Z</time>
      </trkpt>
      <trkpt lat="43.43218" lon="6.14255">
        <ele>178.19999694824</ele>
        <time>2013-06-08T13:51:39Z</time>
      </trkpt>
      <trkpt lat="43.43222" lon="6.14239">
        <ele>178.19999694824</ele>
        <time>2013-06-08T13:51:43Z</time>
      </trkpt>
      <trkpt lat="43.4323" lon="6.14219">
        <ele>178.19999694824</ele>
        <time>2013-06-08T13:51:49Z</time>
      </trkpt>
      <trkpt lat="43.43232" lon="6.14217">
        <ele>178.19999694824</ele>
        <time>2013-06-08T13:51:50Z</time>
      </trkpt>
      <trkpt lat="43.43237" lon="6.1421">
        <ele>178.19999694824</ele>
        <time>2013-06-08T13:51:56Z</time>
      </trkpt>
      <trkpt lat="43.43237" lon="6.1421">
        <ele>178.19999694824</ele>
        <time>2013-06-08T13:52:22Z</time>
      </trkpt>
      <trkpt lat="43.43237" lon="6.1421">
        <ele>178.19999694824</ele>
        <time>2013-06-08T13:53:20Z</time>
      </trkpt>
      <trkpt lat="43.43237" lon="6.1421">
        <ele>178.19999694824</ele>
        <time>2013-06-08T13:53:32Z</time>
      </trkpt>
      <trkpt lat="43.43237" lon="6.14209">
        <ele>178.19999694824</ele>
        <time>2013-06-08T13:53:43Z</time>
      </trkpt>
      <trkpt lat="43.43238" lon="6.14206">
        <ele>178.19999694824</ele>
        <time>2013-06-08T13:53:45Z</time>
      </trkpt>
      <trkpt lat="43.4324" lon="6.14199">
        <ele>178.19999694824</ele>
        <time>2013-06-08T13:53:48Z</time>
      </trkpt>
      <trkpt lat="43.43245" lon="6.14184">
        <ele>178.19999694824</ele>
        <time>2013-06-08T13:53:53Z</time>
      </trkpt>
      <trkpt lat="43.43256" lon="6.14156">
        <ele>178.19999694824</ele>
        <time>2013-06-08T13:54:00Z</time>
      </trkpt>
      <trkpt lat="43.43264" lon="6.14128">
        <ele>178.19999694824</ele>
        <time>2013-06-08T13:54:06Z</time>
      </trkpt>
      <trkpt lat="43.43272" lon="6.14092">
        <ele>178.19999694824</ele>
        <time>2013-06-08T13:54:13Z</time>
      </trkpt>
      <trkpt lat="43.43275" lon="6.14062">
        <ele>178.19999694824</ele>
        <time>2013-06-08T13:54:18Z</time>
      </trkpt>
      <trkpt lat="43.43276" lon="6.1405">
        <ele>178.19999694824</ele>
        <time>2013-06-08T13:54:20Z</time>
      </trkpt>
      <trkpt lat="43.43276" lon="6.1402">
        <ele>178.19999694824</ele>
        <time>2013-06-08T13:54:25Z</time>
      </trkpt>
      <trkpt lat="43.43269" lon="6.13979">
        <ele>178.19999694824</ele>
        <time>2013-06-08T13:54:32Z</time>
      </trkpt>
      <trkpt lat="43.43254" lon="6.13932">
        <ele>178.19999694824</ele>
        <time>2013-06-08T13:54:41Z</time>
      </trkpt>
      <trkpt lat="43.43247" lon="6.13917">
        <ele>179</ele>
        <time>2013-06-08T13:54:44Z</time>
      </trkpt>
      <trkpt lat="43.43216" lon="6.13861">
        <ele>180.19999694824</ele>
        <time>2013-06-08T13:54:56Z</time>
      </trkpt>
      <trkpt lat="43.43173" lon="6.13784">
        <ele>180.19999694824</ele>
        <time>2013-06-08T13:55:13Z</time>
      </trkpt>
      <trkpt lat="43.4312" lon="6.13688">
        <ele>180.19999694824</ele>
        <time>2013-06-08T13:55:35Z</time>
      </trkpt>
      <trkpt lat="43.43103" lon="6.1365">
        <ele>180.19999694824</ele>
        <time>2013-06-08T13:55:43Z</time>
      </trkpt>
      <trkpt lat="43.43087" lon="6.13601">
        <ele>180.19999694824</ele>
        <time>2013-06-08T13:55:53Z</time>
      </trkpt>
      <trkpt lat="43.43078" lon="6.13558">
        <ele>180.19999694824</ele>
        <time>2013-06-08T13:56:01Z</time>
      </trkpt>
      <trkpt lat="43.43076" lon="6.13516">
        <ele>180.19999694824</ele>
        <time>2013-06-08T13:56:08Z</time>
      </trkpt>
      <trkpt lat="43.43084" lon="6.13482">
        <ele>180.19999694824</ele>
        <time>2013-06-08T13:56:14Z</time>
      </trkpt>
      <trkpt lat="43.43105" lon="6.13424">
        <ele>182.39999389648</ele>
        <time>2013-06-08T13:56:25Z</time>
      </trkpt>
      <trkpt lat="43.43119" lon="6.13368">
        <ele>182.39999389648</ele>
        <time>2013-06-08T13:56:35Z</time>
      </trkpt>
      <trkpt lat="43.43122" lon="6.13349">
        <ele>182.39999389648</ele>
        <time>2013-06-08T13:56:38Z</time>
      </trkpt>
      <trkpt lat="43.43128" lon="6.13304">
        <ele>182.39999389648</ele>
        <time>2013-06-08T13:56:45Z</time>
      </trkpt>
      <trkpt lat="43.43127" lon="6.13265">
        <ele>181.60000610352</ele>
        <time>2013-06-08T13:56:51Z</time>
      </trkpt>
      <trkpt lat="43.43119" lon="6.1321">
        <ele>180.39999389648</ele>
        <time>2013-06-08T13:57:00Z</time>
      </trkpt>
      <trkpt lat="43.43108" lon="6.13163">
        <ele>180.39999389648</ele>
        <time>2013-06-08T13:57:08Z</time>
      </trkpt>
      <trkpt lat="43.4307" lon="6.13012">
        <ele>180.39999389648</ele>
        <time>2013-06-08T13:57:34Z</time>
      </trkpt>
      <trkpt lat="43.43035" lon="6.12876">
        <ele>180.80000305176</ele>
        <time>2013-06-08T13:57:57Z</time>
      </trkpt>
      <trkpt lat="43.43022" lon="6.12822">
        <ele>182.60000610352</ele>
        <time>2013-06-08T13:58:06Z</time>
      </trkpt>
      <trkpt lat="43.43018" lon="6.12772">
        <ele>182.60000610352</ele>
        <time>2013-06-08T13:58:14Z</time>
      </trkpt>
      <trkpt lat="43.43019" lon="6.12716">
        <ele>182.60000610352</ele>
        <time>2013-06-08T13:58:23Z</time>
      </trkpt>
      <trkpt lat="43.43021" lon="6.12675">
        <ele>182.60000610352</ele>
        <time>2013-06-08T13:58:30Z</time>
      </trkpt>
      <trkpt lat="43.43023" lon="6.12623">
        <ele>182.60000610352</ele>
        <time>2013-06-08T13:58:39Z</time>
      </trkpt>
      <trkpt lat="43.43024" lon="6.12592">
        <ele>182.60000610352</ele>
        <time>2013-06-08T13:58:45Z</time>
      </trkpt>
      <trkpt lat="43.43019" lon="6.12553">
        <ele>182.60000610352</ele>
        <time>2013-06-08T13:58:53Z</time>
      </trkpt>
      <trkpt lat="43.43013" lon="6.12524">
        <ele>182.60000610352</ele>
        <time>2013-06-08T13:58:59Z</time>
      </trkpt>
      <trkpt lat="43.43007" lon="6.12489">
        <ele>182.60000610352</ele>
        <time>2013-06-08T13:59:07Z</time>
      </trkpt>
      <trkpt lat="43.42999" lon="6.12438">
        <ele>184.60000610352</ele>
        <time>2013-06-08T13:59:19Z</time>
      </trkpt>
      <trkpt lat="43.42993" lon="6.1242">
        <ele>184.60000610352</ele>
        <time>2013-06-08T13:59:24Z</time>
      </trkpt>
      <trkpt lat="43.42984" lon="6.12391">
        <ele>184.60000610352</ele>
        <time>2013-06-08T13:59:32Z</time>
      </trkpt>
      <trkpt lat="43.42979" lon="6.12365">
        <ele>186.80000305176</ele>
        <time>2013-06-08T13:59:38Z</time>
      </trkpt>
      <trkpt lat="43.42978" lon="6.12355">
        <ele>186.80000305176</ele>
        <time>2013-06-08T13:59:40Z</time>
      </trkpt>
      <trkpt lat="43.42968" lon="6.12328">
        <ele>186.80000305176</ele>
        <time>2013-06-08T13:59:47Z</time>
      </trkpt>
      <trkpt lat="43.42955" lon="6.1232">
        <ele>186.80000305176</ele>
        <time>2013-06-08T13:59:51Z</time>
      </trkpt>
      <trkpt lat="43.42932" lon="6.12319">
        <ele>186.80000305176</ele>
        <time>2013-06-08T13:59:57Z</time>
      </trkpt>
      <trkpt lat="43.42913" lon="6.12321">
        <ele>186.80000305176</ele>
        <time>2013-06-08T14:00:01Z</time>
      </trkpt>
      <trkpt lat="43.42903" lon="6.12323">
        <ele>186.80000305176</ele>
        <time>2013-06-08T14:00:03Z</time>
      </trkpt>
      <trkpt lat="43.42883" lon="6.1233">
        <ele>186.80000305176</ele>
        <time>2013-06-08T14:00:08Z</time>
      </trkpt>
      <trkpt lat="43.42864" lon="6.12345">
        <ele>186.39999389648</ele>
        <time>2013-06-08T14:00:14Z</time>
      </trkpt>
      <trkpt lat="43.42859" lon="6.12353">
        <ele>185.60000610352</ele>
        <time>2013-06-08T14:00:16Z</time>
      </trkpt>
      <trkpt lat="43.4282" lon="6.1241">
        <ele>184.80000305176</ele>
        <time>2013-06-08T14:00:31Z</time>
      </trkpt>
      <trkpt lat="43.42802" lon="6.12437">
        <ele>184.80000305176</ele>
        <time>2013-06-08T14:00:38Z</time>
      </trkpt>
      <trkpt lat="43.42786" lon="6.12454">
        <ele>184.80000305176</ele>
        <time>2013-06-08T14:00:43Z</time>
      </trkpt>
      <trkpt lat="43.42764" lon="6.12468">
        <ele>184.80000305176</ele>
        <time>2013-06-08T14:00:50Z</time>
      </trkpt>
      <trkpt lat="43.4276" lon="6.1247">
        <ele>184.80000305176</ele>
        <time>2013-06-08T14:00:51Z</time>
      </trkpt>
      <trkpt lat="43.42745" lon="6.12475">
        <ele>184.80000305176</ele>
        <time>2013-06-08T14:00:55Z</time>
      </trkpt>
      <trkpt lat="43.42723" lon="6.12477">
        <ele>184.80000305176</ele>
        <time>2013-06-08T14:01:01Z</time>
      </trkpt>
      <trkpt lat="43.42701" lon="6.12477">
        <ele>184.80000305176</ele>
        <time>2013-06-08T14:01:08Z</time>
      </trkpt>
      <trkpt lat="43.42683" lon="6.12478">
        <ele>184.80000305176</ele>
        <time>2013-06-08T14:01:14Z</time>
      </trkpt>
      <trkpt lat="43.42665" lon="6.12475">
        <ele>184.80000305176</ele>
        <time>2013-06-08T14:01:20Z</time>
      </trkpt>
      <trkpt lat="43.42646" lon="6.12465">
        <ele>184.80000305176</ele>
        <time>2013-06-08T14:01:26Z</time>
      </trkpt>
      <trkpt lat="43.42625" lon="6.12445">
        <ele>184.80000305176</ele>
        <time>2013-06-08T14:01:33Z</time>
      </trkpt>
      <trkpt lat="43.42613" lon="6.12426">
        <ele>184.80000305176</ele>
        <time>2013-06-08T14:01:38Z</time>
      </trkpt>
      <trkpt lat="43.42591" lon="6.1239">
        <ele>184.80000305176</ele>
        <time>2013-06-08T14:01:46Z</time>
      </trkpt>
      <trkpt lat="43.42582" lon="6.12378">
        <ele>184.80000305176</ele>
        <time>2013-06-08T14:01:49Z</time>
      </trkpt>
      <trkpt lat="43.42571" lon="6.12354">
        <ele>184.80000305176</ele>
        <time>2013-06-08T14:01:54Z</time>
      </trkpt>
      <trkpt lat="43.42558" lon="6.12328">
        <ele>184.80000305176</ele>
        <time>2013-06-08T14:02:00Z</time>
      </trkpt>
      <trkpt lat="43.42542" lon="6.12292">
        <ele>184.80000305176</ele>
        <time>2013-06-08T14:02:07Z</time>
      </trkpt>
      <trkpt lat="43.42515" lon="6.1223">
        <ele>184.80000305176</ele>
        <time>2013-06-08T14:02:21Z</time>
      </trkpt>
      <trkpt lat="43.42506" lon="6.12207">
        <ele>184.80000305176</ele>
        <time>2013-06-08T14:02:26Z</time>
      </trkpt>
      <trkpt lat="43.4249" lon="6.12174">
        <ele>184.80000305176</ele>
        <time>2013-06-08T14:02:33Z</time>
      </trkpt>
      <trkpt lat="43.42466" lon="6.12141">
        <ele>184.80000305176</ele>
        <time>2013-06-08T14:02:41Z</time>
      </trkpt>
      <trkpt lat="43.42439" lon="6.12109">
        <ele>184.80000305176</ele>
        <time>2013-06-08T14:02:49Z</time>
      </trkpt>
      <trkpt lat="43.42421" lon="6.12079">
        <ele>184.80000305176</ele>
        <time>2013-06-08T14:02:56Z</time>
      </trkpt>
      <trkpt lat="43.42404" lon="6.12045">
        <ele>184.80000305176</ele>
        <time>2013-06-08T14:03:04Z</time>
      </trkpt>
      <trkpt lat="43.42392" lon="6.12012">
        <ele>184.80000305176</ele>
        <time>2013-06-08T14:03:11Z</time>
      </trkpt>
      <trkpt lat="43.42382" lon="6.11974">
        <ele>184.80000305176</ele>
        <time>2013-06-08T14:03:19Z</time>
      </trkpt>
      <trkpt lat="43.42367" lon="6.11913">
        <ele>187</ele>
        <time>2013-06-08T14:03:32Z</time>
      </trkpt>
      <trkpt lat="43.42361" lon="6.11887">
        <ele>187</ele>
        <time>2013-06-08T14:03:38Z</time>
      </trkpt>
      <trkpt lat="43.42351" lon="6.11848">
        <ele>187</ele>
        <time>2013-06-08T14:03:47Z</time>
      </trkpt>
      <trkpt lat="43.4234" lon="6.11815">
        <ele>187</ele>
        <time>2013-06-08T14:03:55Z</time>
      </trkpt>
      <trkpt lat="43.42338" lon="6.1181">
        <ele>187.39999389648</ele>
        <time>2013-06-08T14:03:56Z</time>
      </trkpt>
      <trkpt lat="43.42331" lon="6.11798">
        <ele>188.60000610352</ele>
        <time>2013-06-08T14:03:59Z</time>
      </trkpt>
      <trkpt lat="43.42309" lon="6.11766">
        <ele>189</ele>
        <time>2013-06-08T14:04:07Z</time>
      </trkpt>
      <trkpt lat="43.42289" lon="6.11742">
        <ele>189</ele>
        <time>2013-06-08T14:04:13Z</time>
      </trkpt>
      <trkpt lat="43.42261" lon="6.11706">
        <ele>189</ele>
        <time>2013-06-08T14:04:22Z</time>
      </trkpt>
      <trkpt lat="43.4224" lon="6.11676">
        <ele>189</ele>
        <time>2013-06-08T14:04:29Z</time>
      </trkpt>
      <trkpt lat="43.42217" lon="6.1164">
        <ele>189</ele>
        <time>2013-06-08T14:04:38Z</time>
      </trkpt>
      <trkpt lat="43.422" lon="6.11613">
        <ele>189</ele>
        <time>2013-06-08T14:04:46Z</time>
      </trkpt>
      <trkpt lat="43.42188" lon="6.11592">
        <ele>189</ele>
        <time>2013-06-08T14:04:53Z</time>
      </trkpt>
      <trkpt lat="43.42145" lon="6.11517">
        <ele>188.60000610352</ele>
        <time>2013-06-08T14:05:12Z</time>
      </trkpt>
      <trkpt lat="43.42122" lon="6.11477">
        <ele>187</ele>
        <time>2013-06-08T14:05:21Z</time>
      </trkpt>
      <trkpt lat="43.42095" lon="6.11431">
        <ele>187</ele>
        <time>2013-06-08T14:05:30Z</time>
      </trkpt>
      <trkpt lat="43.42071" lon="6.1139">
        <ele>187</ele>
        <time>2013-06-08T14:05:38Z</time>
      </trkpt>
      <trkpt lat="43.42067" lon="6.11386">
        <ele>187</ele>
        <time>2013-06-08T14:05:39Z</time>
      </trkpt>
      <trkpt lat="43.42054" lon="6.11361">
        <ele>187</ele>
        <time>2013-06-08T14:05:44Z</time>
      </trkpt>
      <trkpt lat="43.42036" lon="6.11327">
        <ele>187</ele>
        <time>2013-06-08T14:05:51Z</time>
      </trkpt>
      <trkpt lat="43.42015" lon="6.11293">
        <ele>187</ele>
        <time>2013-06-08T14:05:59Z</time>
      </trkpt>
      <trkpt lat="43.4199" lon="6.11259">
        <ele>187</ele>
        <time>2013-06-08T14:06:07Z</time>
      </trkpt>
      <trkpt lat="43.4196" lon="6.11217">
        <ele>187</ele>
        <time>2013-06-08T14:06:17Z</time>
      </trkpt>
      <trkpt lat="43.41943" lon="6.11186">
        <ele>187</ele>
        <time>2013-06-08T14:06:24Z</time>
      </trkpt>
      <trkpt lat="43.41928" lon="6.11149">
        <ele>187</ele>
        <time>2013-06-08T14:06:31Z</time>
      </trkpt>
      <trkpt lat="43.41919" lon="6.11107">
        <ele>187</ele>
        <time>2013-06-08T14:06:38Z</time>
      </trkpt>
      <trkpt lat="43.41919" lon="6.11094">
        <ele>187</ele>
        <time>2013-06-08T14:06:40Z</time>
      </trkpt>
      <trkpt lat="43.41921" lon="6.11064">
        <ele>187</ele>
        <time>2013-06-08T14:06:45Z</time>
      </trkpt>
      <trkpt lat="43.41926" lon="6.10995">
        <ele>187</ele>
        <time>2013-06-08T14:06:57Z</time>
      </trkpt>
      <trkpt lat="43.41924" lon="6.10979">
        <ele>187</ele>
        <time>2013-06-08T14:07:00Z</time>
      </trkpt>
      <trkpt lat="43.41915" lon="6.10941">
        <ele>187</ele>
        <time>2013-06-08T14:07:07Z</time>
      </trkpt>
      <trkpt lat="43.41906" lon="6.10898">
        <ele>187</ele>
        <time>2013-06-08T14:07:14Z</time>
      </trkpt>
      <trkpt lat="43.41905" lon="6.10885">
        <ele>187</ele>
        <time>2013-06-08T14:07:16Z</time>
      </trkpt>
      <trkpt lat="43.41905" lon="6.10852">
        <ele>187</ele>
        <time>2013-06-08T14:07:21Z</time>
      </trkpt>
      <trkpt lat="43.41911" lon="6.10801">
        <ele>187</ele>
        <time>2013-06-08T14:07:29Z</time>
      </trkpt>
      <trkpt lat="43.41916" lon="6.10756">
        <ele>187</ele>
        <time>2013-06-08T14:07:36Z</time>
      </trkpt>
      <trkpt lat="43.41924" lon="6.10723">
        <ele>187</ele>
        <time>2013-06-08T14:07:42Z</time>
      </trkpt>
      <trkpt lat="43.41936" lon="6.10691">
        <ele>187</ele>
        <time>2013-06-08T14:07:48Z</time>
      </trkpt>
      <trkpt lat="43.41949" lon="6.10649">
        <ele>187.80000305176</ele>
        <time>2013-06-08T14:07:55Z</time>
      </trkpt>
      <trkpt lat="43.41955" lon="6.10632">
        <ele>189</ele>
        <time>2013-06-08T14:07:58Z</time>
      </trkpt>
      <trkpt lat="43.4197" lon="6.10586">
        <ele>189</ele>
        <time>2013-06-08T14:08:06Z</time>
      </trkpt>
      <trkpt lat="43.41984" lon="6.10537">
        <ele>189</ele>
        <time>2013-06-08T14:08:15Z</time>
      </trkpt>
      <trkpt lat="43.41989" lon="6.10501">
        <ele>189</ele>
        <time>2013-06-08T14:08:23Z</time>
      </trkpt>
      <trkpt lat="43.4199" lon="6.10469">
        <ele>189</ele>
        <time>2013-06-08T14:08:29Z</time>
      </trkpt>
      <trkpt lat="43.4199" lon="6.10463">
        <ele>189</ele>
        <time>2013-06-08T14:08:30Z</time>
      </trkpt>
      <trkpt lat="43.41993" lon="6.10428">
        <ele>189</ele>
        <time>2013-06-08T14:08:36Z</time>
      </trkpt>
      <trkpt lat="43.41994" lon="6.1041">
        <ele>189.39999389648</ele>
        <time>2013-06-08T14:08:39Z</time>
      </trkpt>
      <trkpt lat="43.41995" lon="6.10404">
        <ele>189.80000305176</ele>
        <time>2013-06-08T14:08:40Z</time>
      </trkpt>
      <trkpt lat="43.41998" lon="6.10386">
        <ele>191</ele>
        <time>2013-06-08T14:08:43Z</time>
      </trkpt>
      <trkpt lat="43.42004" lon="6.10343">
        <ele>191</ele>
        <time>2013-06-08T14:08:50Z</time>
      </trkpt>
      <trkpt lat="43.42012" lon="6.10285">
        <ele>191</ele>
        <time>2013-06-08T14:09:00Z</time>
      </trkpt>
      <trkpt lat="43.42019" lon="6.10249">
        <ele>191</ele>
        <time>2013-06-08T14:09:07Z</time>
      </trkpt>
      <trkpt lat="43.42024" lon="6.10209">
        <ele>191</ele>
        <time>2013-06-08T14:09:15Z</time>
      </trkpt>
      <trkpt lat="43.42025" lon="6.10188">
        <ele>192.19999694824</ele>
        <time>2013-06-08T14:09:19Z</time>
      </trkpt>
      <trkpt lat="43.42028" lon="6.10166">
        <ele>193</ele>
        <time>2013-06-08T14:09:23Z</time>
      </trkpt>
      <trkpt lat="43.42035" lon="6.10122">
        <ele>193</ele>
        <time>2013-06-08T14:09:31Z</time>
      </trkpt>
      <trkpt lat="43.42042" lon="6.10072">
        <ele>193</ele>
        <time>2013-06-08T14:09:40Z</time>
      </trkpt>
      <trkpt lat="43.42048" lon="6.10034">
        <ele>193</ele>
        <time>2013-06-08T14:09:47Z</time>
      </trkpt>
      <trkpt lat="43.42064" lon="6.09952">
        <ele>193</ele>
        <time>2013-06-08T14:10:02Z</time>
      </trkpt>
      <trkpt lat="43.42073" lon="6.09926">
        <ele>193</ele>
        <time>2013-06-08T14:10:07Z</time>
      </trkpt>
      <trkpt lat="43.42088" lon="6.09887">
        <ele>193</ele>
        <time>2013-06-08T14:10:14Z</time>
      </trkpt>
      <trkpt lat="43.42094" lon="6.09865">
        <ele>193</ele>
        <time>2013-06-08T14:10:18Z</time>
      </trkpt>
      <trkpt lat="43.42094" lon="6.09859">
        <ele>193</ele>
        <time>2013-06-08T14:10:19Z</time>
      </trkpt>
      <trkpt lat="43.42095" lon="6.09819">
        <ele>193</ele>
        <time>2013-06-08T14:10:26Z</time>
      </trkpt>
      <trkpt lat="43.42094" lon="6.09807">
        <ele>193</ele>
        <time>2013-06-08T14:10:28Z</time>
      </trkpt>
      <trkpt lat="43.42092" lon="6.09785">
        <ele>193</ele>
        <time>2013-06-08T14:10:31Z</time>
      </trkpt>
      <trkpt lat="43.42089" lon="6.09765">
        <ele>193</ele>
        <time>2013-06-08T14:10:34Z</time>
      </trkpt>
      <trkpt lat="43.42079" lon="6.09736">
        <ele>193</ele>
        <time>2013-06-08T14:10:39Z</time>
      </trkpt>
      <trkpt lat="43.42059" lon="6.09705">
        <ele>193</ele>
        <time>2013-06-08T14:10:46Z</time>
      </trkpt>
      <trkpt lat="43.42056" lon="6.09701">
        <ele>193</ele>
        <time>2013-06-08T14:10:47Z</time>
      </trkpt>
      <trkpt lat="43.42039" lon="6.09684">
        <ele>193</ele>
        <time>2013-06-08T14:10:52Z</time>
      </trkpt>
      <trkpt lat="43.4201" lon="6.09668">
        <ele>193</ele>
        <time>2013-06-08T14:10:59Z</time>
      </trkpt>
      <trkpt lat="43.41996" lon="6.09664">
        <ele>193</ele>
        <time>2013-06-08T14:11:02Z</time>
      </trkpt>
      <trkpt lat="43.41981" lon="6.09661">
        <ele>193</ele>
        <time>2013-06-08T14:11:05Z</time>
      </trkpt>
      <trkpt lat="43.41936" lon="6.09657">
        <ele>193</ele>
        <time>2013-06-08T14:11:15Z</time>
      </trkpt>
      <trkpt lat="43.41905" lon="6.09654">
        <ele>193</ele>
        <time>2013-06-08T14:11:23Z</time>
      </trkpt>
      <trkpt lat="43.41879" lon="6.09651">
        <ele>193</ele>
        <time>2013-06-08T14:11:30Z</time>
      </trkpt>
      <trkpt lat="43.41848" lon="6.09647">
        <ele>193</ele>
        <time>2013-06-08T14:11:38Z</time>
      </trkpt>
      <trkpt lat="43.41828" lon="6.09639">
        <ele>193</ele>
        <time>2013-06-08T14:11:43Z</time>
      </trkpt>
      <trkpt lat="43.41824" lon="6.09636">
        <ele>193</ele>
        <time>2013-06-08T14:11:44Z</time>
      </trkpt>
      <trkpt lat="43.41804" lon="6.09606">
        <ele>193</ele>
        <time>2013-06-08T14:11:51Z</time>
      </trkpt>
      <trkpt lat="43.41796" lon="6.09587">
        <ele>193</ele>
        <time>2013-06-08T14:11:55Z</time>
      </trkpt>
      <trkpt lat="43.41767" lon="6.09523">
        <ele>193</ele>
        <time>2013-06-08T14:12:07Z</time>
      </trkpt>
      <trkpt lat="43.4174" lon="6.09414">
        <ele>193</ele>
        <time>2013-06-08T14:12:25Z</time>
      </trkpt>
      <trkpt lat="43.41725" lon="6.09346">
        <ele>193</ele>
        <time>2013-06-08T14:12:36Z</time>
      </trkpt>
      <trkpt lat="43.41724" lon="6.09316">
        <ele>193</ele>
        <time>2013-06-08T14:12:41Z</time>
      </trkpt>
      <trkpt lat="43.41722" lon="6.09276">
        <ele>193</ele>
        <time>2013-06-08T14:12:48Z</time>
      </trkpt>
      <trkpt lat="43.41721" lon="6.0922">
        <ele>193</ele>
        <time>2013-06-08T14:12:57Z</time>
      </trkpt>
      <trkpt lat="43.41721" lon="6.09164">
        <ele>193</ele>
        <time>2013-06-08T14:13:06Z</time>
      </trkpt>
      <trkpt lat="43.41721" lon="6.09091">
        <ele>193</ele>
        <time>2013-06-08T14:13:18Z</time>
      </trkpt>
      <trkpt lat="43.41722" lon="6.09074">
        <ele>193</ele>
        <time>2013-06-08T14:13:21Z</time>
      </trkpt>
      <trkpt lat="43.41722" lon="6.09043">
        <ele>193</ele>
        <time>2013-06-08T14:13:26Z</time>
      </trkpt>
      <trkpt lat="43.41734" lon="6.08967">
        <ele>193</ele>
        <time>2013-06-08T14:13:39Z</time>
      </trkpt>
      <trkpt lat="43.41737" lon="6.08921">
        <ele>193</ele>
        <time>2013-06-08T14:13:47Z</time>
      </trkpt>
      <trkpt lat="43.41733" lon="6.08883">
        <ele>193</ele>
        <time>2013-06-08T14:13:54Z</time>
      </trkpt>
      <trkpt lat="43.41729" lon="6.0887">
        <ele>193</ele>
        <time>2013-06-08T14:13:57Z</time>
      </trkpt>
      <trkpt lat="43.41726" lon="6.08862">
        <ele>193</ele>
        <time>2013-06-08T14:13:59Z</time>
      </trkpt>
      <trkpt lat="43.41714" lon="6.0884">
        <ele>193</ele>
        <time>2013-06-08T14:14:04Z</time>
      </trkpt>
      <trkpt lat="43.4169" lon="6.08798">
        <ele>193</ele>
        <time>2013-06-08T14:14:13Z</time>
      </trkpt>
      <trkpt lat="43.41669" lon="6.0876">
        <ele>193</ele>
        <time>2013-06-08T14:14:21Z</time>
      </trkpt>
      <trkpt lat="43.41633" lon="6.08694">
        <ele>193</ele>
        <time>2013-06-08T14:14:35Z</time>
      </trkpt>
      <trkpt lat="43.41615" lon="6.08653">
        <ele>193</ele>
        <time>2013-06-08T14:14:43Z</time>
      </trkpt>
      <trkpt lat="43.41603" lon="6.08603">
        <ele>193</ele>
        <time>2013-06-08T14:14:52Z</time>
      </trkpt>
      <trkpt lat="43.416" lon="6.08581">
        <ele>193</ele>
        <time>2013-06-08T14:14:56Z</time>
      </trkpt>
      <trkpt lat="43.41589" lon="6.08498">
        <ele>193</ele>
        <time>2013-06-08T14:15:10Z</time>
      </trkpt>
      <trkpt lat="43.41583" lon="6.08454">
        <ele>193</ele>
        <time>2013-06-08T14:15:17Z</time>
      </trkpt>
      <trkpt lat="43.41577" lon="6.08415">
        <ele>193</ele>
        <time>2013-06-08T14:15:24Z</time>
      </trkpt>
      <trkpt lat="43.41558" lon="6.08319">
        <ele>193</ele>
        <time>2013-06-08T14:15:40Z</time>
      </trkpt>
      <trkpt lat="43.4155" lon="6.08278">
        <ele>193</ele>
        <time>2013-06-08T14:15:47Z</time>
      </trkpt>
      <trkpt lat="43.41536" lon="6.0824">
        <ele>193</ele>
        <time>2013-06-08T14:15:54Z</time>
      </trkpt>
      <trkpt lat="43.41516" lon="6.08201">
        <ele>193</ele>
        <time>2013-06-08T14:16:02Z</time>
      </trkpt>
      <trkpt lat="43.4151" lon="6.08188">
        <ele>193</ele>
        <time>2013-06-08T14:16:05Z</time>
      </trkpt>
      <trkpt lat="43.41502" lon="6.0817">
        <ele>194.39999389648</ele>
        <time>2013-06-08T14:16:09Z</time>
      </trkpt>
      <trkpt lat="43.41492" lon="6.08151">
        <ele>195.19999694824</ele>
        <time>2013-06-08T14:16:13Z</time>
      </trkpt>
      <trkpt lat="43.41489" lon="6.08146">
        <ele>195.19999694824</ele>
        <time>2013-06-08T14:16:14Z</time>
      </trkpt>
      <trkpt lat="43.41467" lon="6.08109">
        <ele>195.19999694824</ele>
        <time>2013-06-08T14:16:21Z</time>
      </trkpt>
      <trkpt lat="43.41448" lon="6.08079">
        <ele>195.19999694824</ele>
        <time>2013-06-08T14:16:27Z</time>
      </trkpt>
      <trkpt lat="43.41422" lon="6.08035">
        <ele>195.19999694824</ele>
        <time>2013-06-08T14:16:36Z</time>
      </trkpt>
      <trkpt lat="43.41381" lon="6.07968">
        <ele>195.19999694824</ele>
        <time>2013-06-08T14:16:50Z</time>
      </trkpt>
      <trkpt lat="43.41363" lon="6.07943">
        <ele>195.19999694824</ele>
        <time>2013-06-08T14:16:56Z</time>
      </trkpt>
      <trkpt lat="43.41352" lon="6.07933">
        <ele>195.19999694824</ele>
        <time>2013-06-08T14:16:59Z</time>
      </trkpt>
      <trkpt lat="43.41323" lon="6.07914">
        <ele>195.19999694824</ele>
        <time>2013-06-08T14:17:06Z</time>
      </trkpt>
      <trkpt lat="43.41308" lon="6.07903">
        <ele>195.19999694824</ele>
        <time>2013-06-08T14:17:10Z</time>
      </trkpt>
      <trkpt lat="43.41272" lon="6.07884">
        <ele>195.19999694824</ele>
        <time>2013-06-08T14:17:19Z</time>
      </trkpt>
      <trkpt lat="43.41248" lon="6.07861">
        <ele>195.19999694824</ele>
        <time>2013-06-08T14:17:26Z</time>
      </trkpt>
      <trkpt lat="43.41234" lon="6.07839">
        <ele>195.19999694824</ele>
        <time>2013-06-08T14:17:30Z</time>
      </trkpt>
      <trkpt lat="43.41228" lon="6.07826">
        <ele>195.19999694824</ele>
        <time>2013-06-08T14:17:32Z</time>
      </trkpt>
      <trkpt lat="43.41219" lon="6.07799">
        <ele>195.19999694824</ele>
        <time>2013-06-08T14:17:36Z</time>
      </trkpt>
      <trkpt lat="43.41212" lon="6.0778">
        <ele>195.19999694824</ele>
        <time>2013-06-08T14:17:39Z</time>
      </trkpt>
      <trkpt lat="43.41203" lon="6.0774">
        <ele>195.19999694824</ele>
        <time>2013-06-08T14:17:45Z</time>
      </trkpt>
      <trkpt lat="43.41204" lon="6.07703">
        <ele>195.19999694824</ele>
        <time>2013-06-08T14:17:51Z</time>
      </trkpt>
      <trkpt lat="43.41208" lon="6.07679">
        <ele>195.19999694824</ele>
        <time>2013-06-08T14:17:55Z</time>
      </trkpt>
      <trkpt lat="43.41209" lon="6.07673">
        <ele>195.19999694824</ele>
        <time>2013-06-08T14:17:56Z</time>
      </trkpt>
      <trkpt lat="43.41223" lon="6.07643">
        <ele>197.39999389648</ele>
        <time>2013-06-08T14:18:02Z</time>
      </trkpt>
      <trkpt lat="43.41268" lon="6.07579">
        <ele>197.39999389648</ele>
        <time>2013-06-08T14:18:17Z</time>
      </trkpt>
      <trkpt lat="43.41285" lon="6.07536">
        <ele>197.39999389648</ele>
        <time>2013-06-08T14:18:25Z</time>
      </trkpt>
      <trkpt lat="43.41288" lon="6.07518">
        <ele>197.39999389648</ele>
        <time>2013-06-08T14:18:28Z</time>
      </trkpt>
      <trkpt lat="43.4129" lon="6.07494">
        <ele>197.39999389648</ele>
        <time>2013-06-08T14:18:32Z</time>
      </trkpt>
      <trkpt lat="43.41288" lon="6.07457">
        <ele>197.39999389648</ele>
        <time>2013-06-08T14:18:38Z</time>
      </trkpt>
      <trkpt lat="43.41283" lon="6.07407">
        <ele>197.39999389648</ele>
        <time>2013-06-08T14:18:46Z</time>
      </trkpt>
      <trkpt lat="43.41276" lon="6.07352">
        <ele>199.39999389648</ele>
        <time>2013-06-08T14:18:55Z</time>
      </trkpt>
      <trkpt lat="43.41271" lon="6.07322">
        <ele>199.39999389648</ele>
        <time>2013-06-08T14:19:00Z</time>
      </trkpt>
      <trkpt lat="43.41269" lon="6.07317">
        <ele>199.39999389648</ele>
        <time>2013-06-08T14:19:01Z</time>
      </trkpt>
      <trkpt lat="43.41257" lon="6.07297">
        <ele>199.39999389648</ele>
        <time>2013-06-08T14:19:05Z</time>
      </trkpt>
      <trkpt lat="43.4125" lon="6.07288">
        <ele>199.39999389648</ele>
        <time>2013-06-08T14:19:07Z</time>
      </trkpt>
      <trkpt lat="43.41219" lon="6.07244">
        <ele>199.39999389648</ele>
        <time>2013-06-08T14:19:16Z</time>
      </trkpt>
      <trkpt lat="43.41203" lon="6.07208">
        <ele>199.39999389648</ele>
        <time>2013-06-08T14:19:23Z</time>
      </trkpt>
      <trkpt lat="43.41182" lon="6.07159">
        <ele>199.39999389648</ele>
        <time>2013-06-08T14:19:32Z</time>
      </trkpt>
      <trkpt lat="43.41159" lon="6.07116">
        <ele>199.39999389648</ele>
        <time>2013-06-08T14:19:40Z</time>
      </trkpt>
      <trkpt lat="43.41139" lon="6.07083">
        <ele>199.39999389648</ele>
        <time>2013-06-08T14:19:47Z</time>
      </trkpt>
      <trkpt lat="43.41117" lon="6.0704">
        <ele>199.39999389648</ele>
        <time>2013-06-08T14:19:56Z</time>
      </trkpt>
      <trkpt lat="43.41115" lon="6.07035">
        <ele>199.39999389648</ele>
        <time>2013-06-08T14:19:57Z</time>
      </trkpt>
      <trkpt lat="43.41111" lon="6.07012">
        <ele>199.39999389648</ele>
        <time>2013-06-08T14:20:01Z</time>
      </trkpt>
      <trkpt lat="43.41107" lon="6.06986">
        <ele>199.39999389648</ele>
        <time>2013-06-08T14:20:06Z</time>
      </trkpt>
      <trkpt lat="43.411" lon="6.06951">
        <ele>199.39999389648</ele>
        <time>2013-06-08T14:20:14Z</time>
      </trkpt>
      <trkpt lat="43.41095" lon="6.06932">
        <ele>199.39999389648</ele>
        <time>2013-06-08T14:20:19Z</time>
      </trkpt>
      <trkpt lat="43.41082" lon="6.06884">
        <ele>199.39999389648</ele>
        <time>2013-06-08T14:20:31Z</time>
      </trkpt>
      <trkpt lat="43.41076" lon="6.06853">
        <ele>199.39999389648</ele>
        <time>2013-06-08T14:20:38Z</time>
      </trkpt>
      <trkpt lat="43.41074" lon="6.06851">
        <ele>199.39999389648</ele>
        <time>2013-06-08T14:20:39Z</time>
      </trkpt>
      <trkpt lat="43.41069" lon="6.06851">
        <ele>199.39999389648</ele>
        <time>2013-06-08T14:20:41Z</time>
      </trkpt>
      <trkpt lat="43.41066" lon="6.06859">
        <ele>199.39999389648</ele>
        <time>2013-06-08T14:20:44Z</time>
      </trkpt>
      <trkpt lat="43.41064" lon="6.06867">
        <ele>199.39999389648</ele>
        <time>2013-06-08T14:20:47Z</time>
      </trkpt>
      <trkpt lat="43.41063" lon="6.0687">
        <ele>199.39999389648</ele>
        <time>2013-06-08T14:20:49Z</time>
      </trkpt>
      <trkpt lat="43.41062" lon="6.0687">
        <ele>199.39999389648</ele>
        <time>2013-06-08T14:20:50Z</time>
      </trkpt>
      <trkpt lat="43.4105" lon="6.06876">
        <ele>199.39999389648</ele>
        <time>2013-06-08T14:20:55Z</time>
      </trkpt>
      <trkpt lat="43.41036" lon="6.06882">
        <ele>199.39999389648</ele>
        <time>2013-06-08T14:20:59Z</time>
      </trkpt>
      <trkpt lat="43.41031" lon="6.06884">
        <ele>199.39999389648</ele>
        <time>2013-06-08T14:21:00Z</time>
      </trkpt>
      <trkpt lat="43.41016" lon="6.06897">
        <ele>199.39999389648</ele>
        <time>2013-06-08T14:21:04Z</time>
      </trkpt>
      <trkpt lat="43.41006" lon="6.0691">
        <ele>199.39999389648</ele>
        <time>2013-06-08T14:21:08Z</time>
      </trkpt>
      <trkpt lat="43.41003" lon="6.06913">
        <ele>199.39999389648</ele>
        <time>2013-06-08T14:21:09Z</time>
      </trkpt>
      <trkpt lat="43.40979" lon="6.06926">
        <ele>199.39999389648</ele>
        <time>2013-06-08T14:21:15Z</time>
      </trkpt>
      <trkpt lat="43.40961" lon="6.06936">
        <ele>199.39999389648</ele>
        <time>2013-06-08T14:21:20Z</time>
      </trkpt>
      <trkpt lat="43.40952" lon="6.06938">
        <ele>199.39999389648</ele>
        <time>2013-06-08T14:21:22Z</time>
      </trkpt>
      <trkpt lat="43.40906" lon="6.06955">
        <ele>199.39999389648</ele>
        <time>2013-06-08T14:21:34Z</time>
      </trkpt>
      <trkpt lat="43.40903" lon="6.06959">
        <ele>199.39999389648</ele>
        <time>2013-06-08T14:21:35Z</time>
      </trkpt>
      <trkpt lat="43.409" lon="6.06985">
        <ele>199.39999389648</ele>
        <time>2013-06-08T14:21:40Z</time>
      </trkpt>
      <trkpt lat="43.40894" lon="6.06993">
        <ele>199.39999389648</ele>
        <time>2013-06-08T14:21:42Z</time>
      </trkpt>
      <trkpt lat="43.40883" lon="6.06998">
        <ele>199.39999389648</ele>
        <time>2013-06-08T14:21:45Z</time>
      </trkpt>
      <trkpt lat="43.40879" lon="6.06999">
        <ele>199.39999389648</ele>
        <time>2013-06-08T14:21:46Z</time>
      </trkpt>
      <trkpt lat="43.4085" lon="6.07007">
        <ele>199.39999389648</ele>
        <time>2013-06-08T14:21:54Z</time>
      </trkpt>
      <trkpt lat="43.40844" lon="6.07009">
        <ele>199.39999389648</ele>
        <time>2013-06-08T14:21:57Z</time>
      </trkpt>
      <trkpt lat="43.40844" lon="6.07009">
        <ele>199.39999389648</ele>
        <time>2013-06-08T14:21:58Z</time>
      </trkpt>
      <trkpt lat="43.40841" lon="6.07011">
        <ele>199.39999389648</ele>
        <time>2013-06-08T14:22:01Z</time>
      </trkpt>
      <trkpt lat="43.4084" lon="6.07014">
        <ele>199.39999389648</ele>
        <time>2013-06-08T14:22:02Z</time>
      </trkpt>
      <trkpt lat="43.40841" lon="6.0703">
        <ele>199.39999389648</ele>
        <time>2013-06-08T14:22:06Z</time>
      </trkpt>
      <trkpt lat="43.40841" lon="6.07039">
        <ele>199.39999389648</ele>
        <time>2013-06-08T14:22:08Z</time>
      </trkpt>
      <trkpt lat="43.40844" lon="6.07064">
        <ele>199.39999389648</ele>
        <time>2013-06-08T14:22:13Z</time>
      </trkpt>
      <trkpt lat="43.40842" lon="6.07105">
        <ele>199.39999389648</ele>
        <time>2013-06-08T14:22:20Z</time>
      </trkpt>
      <trkpt lat="43.40833" lon="6.07155">
        <ele>199.39999389648</ele>
        <time>2013-06-08T14:22:29Z</time>
      </trkpt>
      <trkpt lat="43.40817" lon="6.0719">
        <ele>199.39999389648</ele>
        <time>2013-06-08T14:22:36Z</time>
      </trkpt>
      <trkpt lat="43.40793" lon="6.07224">
        <ele>199.39999389648</ele>
        <time>2013-06-08T14:22:44Z</time>
      </trkpt>
      <trkpt lat="43.40768" lon="6.07246">
        <ele>199.39999389648</ele>
        <time>2013-06-08T14:22:51Z</time>
      </trkpt>
      <trkpt lat="43.40716" lon="6.07275">
        <ele>199.39999389648</ele>
        <time>2013-06-08T14:23:05Z</time>
      </trkpt>
      <trkpt lat="43.40688" lon="6.07291">
        <ele>199.39999389648</ele>
        <time>2013-06-08T14:23:13Z</time>
      </trkpt>
      <trkpt lat="43.40662" lon="6.07305">
        <ele>201</ele>
        <time>2013-06-08T14:23:21Z</time>
      </trkpt>
      <trkpt lat="43.40638" lon="6.07319">
        <ele>201.39999389648</ele>
        <time>2013-06-08T14:23:29Z</time>
      </trkpt>
      <trkpt lat="43.40617" lon="6.07308">
        <ele>202.39999389648</ele>
        <time>2013-06-08T14:23:36Z</time>
      </trkpt>
      <trkpt lat="43.40613" lon="6.07303">
        <ele>203.19999694824</ele>
        <time>2013-06-08T14:23:38Z</time>
      </trkpt>
      <trkpt lat="43.40611" lon="6.07299">
        <ele>203.60000610352</ele>
        <time>2013-06-08T14:23:39Z</time>
      </trkpt>
      <trkpt lat="43.40598" lon="6.07282">
        <ele>203.60000610352</ele>
        <time>2013-06-08T14:23:45Z</time>
      </trkpt>
      <trkpt lat="43.40591" lon="6.07265">
        <ele>203.60000610352</ele>
        <time>2013-06-08T14:23:50Z</time>
      </trkpt>
      <trkpt lat="43.40591" lon="6.07241">
        <ele>203.60000610352</ele>
        <time>2013-06-08T14:23:55Z</time>
      </trkpt>
      <trkpt lat="43.4059" lon="6.07201">
        <ele>203.60000610352</ele>
        <time>2013-06-08T14:24:03Z</time>
      </trkpt>
      <trkpt lat="43.40587" lon="6.07179">
        <ele>203.60000610352</ele>
        <time>2013-06-08T14:24:08Z</time>
      </trkpt>
      <trkpt lat="43.40589" lon="6.07137">
        <ele>205.19999694824</ele>
        <time>2013-06-08T14:24:16Z</time>
      </trkpt>
      <trkpt lat="43.4059" lon="6.07133">
        <ele>205.60000610352</ele>
        <time>2013-06-08T14:24:17Z</time>
      </trkpt>
      <trkpt lat="43.40589" lon="6.07102">
        <ele>205.60000610352</ele>
        <time>2013-06-08T14:24:24Z</time>
      </trkpt>
      <trkpt lat="43.4059" lon="6.07079">
        <ele>205.60000610352</ele>
        <time>2013-06-08T14:24:30Z</time>
      </trkpt>
      <trkpt lat="43.40588" lon="6.07063">
        <ele>206.19999694824</ele>
        <time>2013-06-08T14:24:34Z</time>
      </trkpt>
      <trkpt lat="43.40588" lon="6.0705">
        <ele>207.39999389648</ele>
        <time>2013-06-08T14:24:37Z</time>
      </trkpt>
      <trkpt lat="43.40584" lon="6.07023">
        <ele>207.80000305176</ele>
        <time>2013-06-08T14:24:43Z</time>
      </trkpt>
      <trkpt lat="43.40582" lon="6.06996">
        <ele>207.80000305176</ele>
        <time>2013-06-08T14:24:49Z</time>
      </trkpt>
      <trkpt lat="43.4058" lon="6.06962">
        <ele>207.80000305176</ele>
        <time>2013-06-08T14:24:55Z</time>
      </trkpt>
      <trkpt lat="43.40575" lon="6.06941">
        <ele>208.19999694824</ele>
        <time>2013-06-08T14:24:59Z</time>
      </trkpt>
      <trkpt lat="43.4057" lon="6.06922">
        <ele>210</ele>
        <time>2013-06-08T14:25:03Z</time>
      </trkpt>
      <trkpt lat="43.40567" lon="6.06909">
        <ele>210</ele>
        <time>2013-06-08T14:25:06Z</time>
      </trkpt>
      <trkpt lat="43.40567" lon="6.06894">
        <ele>210</ele>
        <time>2013-06-08T14:25:09Z</time>
      </trkpt>
      <trkpt lat="43.4057" lon="6.06857">
        <ele>210</ele>
        <time>2013-06-08T14:25:15Z</time>
      </trkpt>
      <trkpt lat="43.40576" lon="6.06814">
        <ele>210</ele>
        <time>2013-06-08T14:25:22Z</time>
      </trkpt>
      <trkpt lat="43.40581" lon="6.06785">
        <ele>210</ele>
        <time>2013-06-08T14:25:27Z</time>
      </trkpt>
      <trkpt lat="43.40582" lon="6.06766">
        <ele>210</ele>
        <time>2013-06-08T14:25:30Z</time>
      </trkpt>
      <trkpt lat="43.40588" lon="6.0672">
        <ele>210</ele>
        <time>2013-06-08T14:25:38Z</time>
      </trkpt>
      <trkpt lat="43.40593" lon="6.06687">
        <ele>210</ele>
        <time>2013-06-08T14:25:45Z</time>
      </trkpt>
      <trkpt lat="43.40592" lon="6.06675">
        <ele>210</ele>
        <time>2013-06-08T14:25:48Z</time>
      </trkpt>
      <trkpt lat="43.4059" lon="6.06674">
        <ele>210</ele>
        <time>2013-06-08T14:25:49Z</time>
      </trkpt>
      <trkpt lat="43.40569" lon="6.06669">
        <ele>210</ele>
        <time>2013-06-08T14:25:56Z</time>
      </trkpt>
      <trkpt lat="43.40547" lon="6.06666">
        <ele>210</ele>
        <time>2013-06-08T14:26:03Z</time>
      </trkpt>
      <trkpt lat="43.40527" lon="6.06662">
        <ele>210</ele>
        <time>2013-06-08T14:26:10Z</time>
      </trkpt>
      <trkpt lat="43.40513" lon="6.06658">
        <ele>210</ele>
        <time>2013-06-08T14:26:15Z</time>
      </trkpt>
      <trkpt lat="43.40494" lon="6.06656">
        <ele>212</ele>
        <time>2013-06-08T14:26:22Z</time>
      </trkpt>
      <trkpt lat="43.40483" lon="6.06655">
        <ele>212</ele>
        <time>2013-06-08T14:26:26Z</time>
      </trkpt>
      <trkpt lat="43.40483" lon="6.06635">
        <ele>212</ele>
        <time>2013-06-08T14:26:32Z</time>
      </trkpt>
      <trkpt lat="43.40486" lon="6.0662">
        <ele>212.39999389648</ele>
        <time>2013-06-08T14:26:36Z</time>
      </trkpt>
      <trkpt lat="43.40488" lon="6.06605">
        <ele>214</ele>
        <time>2013-06-08T14:26:40Z</time>
      </trkpt>
      <trkpt lat="43.40485" lon="6.06589">
        <ele>214</ele>
        <time>2013-06-08T14:26:45Z</time>
      </trkpt>
      <trkpt lat="43.40476" lon="6.06584">
        <ele>214</ele>
        <time>2013-06-08T14:26:49Z</time>
      </trkpt>
      <trkpt lat="43.40451" lon="6.06575">
        <ele>214</ele>
        <time>2013-06-08T14:26:58Z</time>
      </trkpt>
      <trkpt lat="43.40425" lon="6.06568">
        <ele>214</ele>
        <time>2013-06-08T14:27:07Z</time>
      </trkpt>
      <trkpt lat="43.40414" lon="6.06563">
        <ele>214.39999389648</ele>
        <time>2013-06-08T14:27:11Z</time>
      </trkpt>
      <trkpt lat="43.40405" lon="6.06559">
        <ele>216</ele>
        <time>2013-06-08T14:27:14Z</time>
      </trkpt>
      <trkpt lat="43.40399" lon="6.06548">
        <ele>216</ele>
        <time>2013-06-08T14:27:18Z</time>
      </trkpt>
      <trkpt lat="43.40398" lon="6.06535">
        <ele>216</ele>
        <time>2013-06-08T14:27:23Z</time>
      </trkpt>
      <trkpt lat="43.40398" lon="6.06535">
        <ele>216</ele>
        <time>2013-06-08T14:27:27Z</time>
      </trkpt>
      <trkpt lat="43.40398" lon="6.06535">
        <ele>216</ele>
        <time>2013-06-08T14:27:28Z</time>
      </trkpt>
    </trkseg>
  </trk>
</gpx>